[[[{"header":{"parameterUnit":"kt","parameterCategory":2,"dx":1,"dy":1,"la1":29.285339999999998,"la2":30.599998999999997,"lo1":-89.70041500000002,"lo2":-87.6738589999976,"nx":112,"ny":82,"refTime":"2022-10-28T00:00:00:Z","depth":0,"parameterNumber":1,"parameterNumberName":"U-component_of_WINDS"},"data":[0.0,0.0,0.0,0.0,0.0,0.0109,0.0523,0.0299,0.0,0.0,0.1,0.1746,0.1326,0.1586,0.1862,0.1871,0.215,0.2229,0.0,0.1747,0.1315,0.0139,0.0,0.0,0.0,0.038,0.0445,0.0033,-0.4205,-0.6766,0.0,-0.9138,-1.0487,-1.0487,-1.0487,-1.1051,-1.2232,-1.2245,-1.2245,-1.2245,-1.2245,-1.2245,-1.2245,-1.2245,-1.2245,-1.2245,-1.2245,-1.2245,-1.2245,-1.2245,-1.2245,-1.2245,-1.2245,-1.2245,-1.2245,-1.2245,-1.2245,-1.2245,-1.2245,-1.2245,-1.2245,-1.2245,-1.2245,-1.2245,-1.2245,-1.2245,-1.2245,-1.2245,-1.2245,-1.2245,-1.2245,-1.2245,-1.2245,-1.2245,-1.2245,-1.2245,-1.2245,-1.2245,-1.2245,-1.2245,-1.2245,-1.2245,-1.2245,-1.2245,-1.2245,-1.2245,-1.2245,-1.2245,-1.2245,-1.2245,-1.2245,-1.2245,-1.2245,-1.1065,-0.8139,-0.3038,0.0,0.0,0.0,0.0,0.0,0.0,0.0,0.0,0.0,0.0,0.0,0.0,0.0,0.0,0.0,0.0,0.1764,0.2059,0.1986,0.0397,0.0,0.0,0.0,0.0,0.0,0.0,0.0,0.0,0.0,0.0,0.0,0.0,0.0653,0.1292,0.0,0.1411,0.0869,0.0094,0.0,0.0,0.0,-0.2149,-0.289,0.0,-0.696,0.0,-1.0487,-1.0487,-1.0487,-1.0487,-1.0487,-1.0866,-1.1642,-1.1655,-1.1655,-1.1655,-1.2053,-1.2245,-1.2245,-1.2245,-1.2245,-1.2245,-1.2245,-1.2245,-1.2245,-1.2245,-1.2245,-1.2245,-1.2245,-1.2245,-1.2245,-1.2245,-1.2245,-1.2245,-1.2245,-1.2245,-1.2245,-1.2245,-1.2245,-1.2245,-1.2245,-1.2245,-1.2245,-1.2245,-1.2245,-1.2245,-1.2245,-1.2245,-1.2245,-1.2245,-1.2245,-1.2245,-1.2245,-1.2245,-1.2245,-1.2245,-1.2245,-1.2245,-1.2245,-1.2245,-1.2245,-1.2245,-1.2245,-1.2245,-1.2245,-1.2245,-1.2245,-1.2245,-1.2245,-1.2245,-1.2245,-0.4716,0.0,0.0,0.0,0.0,0.0,0.0,0.0,0.0,0.0,0.0,0.0,0.0,0.0,0.0,0.0,0.0,0.524,0.6076,0.5836,0.1152,0.0,0.0,0.0,0.0055,0.0109,0.0109,0.0055,0.0,0.0,0.0,0.0,0.0,0.0,0.0,0.0,0.0715,0.0,0.0,0.0,-0.0084,-0.0313,-0.6514,-0.8544,0.0,-0.7834,-1.0487,-1.0487,-1.0487,-1.0487,-1.0487,-1.0487,-1.0487,-1.0487,-1.0487,-1.0487,-1.0501,-1.1642,-1.2206,-1.2245,-1.2245,-1.2245,-1.2245,-1.2245,-1.2245,-1.2245,-1.2245,-1.2245,-1.2245,-1.2245,-1.2245,-1.2245,-1.2245,-1.2245,-1.2245,-1.2245,-1.2245,-1.2283,-1.254,-1.2464,-1.2245,-1.2245,-1.2245,-1.2245,-1.2245,-1.2245,-1.2321,-1.254,-1.2427,-1.2245,-1.2245,-1.2245,-1.2245,-1.2245,-1.2245,-1.2245,-1.2245,-1.2245,-1.2245,-1.2245,-1.2245,-1.2245,-1.2245,-1.2245,-1.2245,-1.2245,-1.2245,-1.2245,-1.2245,-1.2245,-1.2139,-1.1874,-0.4564,0.0,0.0,0.0,0.0,0.0,0.0,0.0,0.0,0.0,0.0,0.0,0.0,0.0,0.0,0.0,0.0,0.524,0.5479,0.4798,0.0969,0.0,0.0,0.0,0.1312,0.2543,0.2543,0.1184,0.0,0.0,0.0,0.0,0.0,0.0,0.0113,0.0433,0.0207,0.0,0.0,0.0,-0.2008,-0.7127,-0.9372,-0.8544,-0.3846,-0.7834,-1.0487,-1.0487,-1.0487,-1.0487,-1.0487,-1.0487,-1.0487,-1.0487,-1.0487,-1.0487,-1.0487,-1.0813,-1.1416,-1.2245,-1.2245,-1.2245,-1.2245,-1.2245,-1.2245,-1.2245,-1.2245,-1.2245,-1.2245,-1.2245,-1.2245,-1.2245,-1.2245,-1.2245,-1.2245,-1.2245,-1.2245,-1.3164,-1.8848,-1.6882,-1.2245,-1.2245,-1.2245,-1.2245,-1.2245,-1.2245,-1.3538,-1.9224,-1.6512,-1.2245,-1.2245,-1.2245,-1.2245,-1.2245,-1.2245,-1.2245,-1.2245,-1.2245,-1.2245,-1.2245,-1.2245,-1.2245,-1.2245,-1.2245,-1.2245,-1.2245,-1.2245,-1.2245,-1.2245,-1.2245,-0.9831,-0.3861,-0.1294,0.0,0.0,0.0,0.0,0.0,0.0,0.0,0.0,0.0,0.0,0.0,0.0,0.0,0.0,0.0,0.0,0.4518,0.4518,0.4149,0.2595,0.2198,0.2076,0.1578,0.2521,0.3493,0.3493,0.0,0.0,0.0,0.0,0.0,0.0,0.0,0.0,0.0,0.0,0.0,0.0,0.0,-0.2767,-0.9807,-1.0487,-0.936,-0.6647,-0.8949,-1.0487,-1.0487,-1.0487,-1.0487,-1.0487,-1.0487,-1.0487,-1.0487,-1.0487,-1.0487,-1.0487,-1.0487,-1.0846,-1.1509,-1.1509,-1.1774,-1.2245,-1.2245,-1.2245,-1.2245,-1.2245,-1.2245,-1.2245,-1.2245,-1.2245,-1.2245,-1.2245,-1.4308,-1.666,-1.3388,-1.4383,-1.7904,-2.2443,-2.0827,-1.714,-1.714,-1.4859,-1.2946,-1.6216,-1.714,-1.8198,-2.2731,-1.8124,-1.2245,-1.2245,-1.2245,-1.2245,-1.2245,-1.2245,-1.2245,-1.2245,-1.2245,-1.2245,-1.2245,-1.2245,-1.2245,-1.2245,-1.2245,-1.2245,-1.2245,-1.2245,-1.2245,-1.2245,-1.2245,-0.8922,-0.0697,0.0,0.0,0.0,0.0,0.0,0.0,0.0,0.0,0.0,0.0,0.0,0.0,0.0,0.0,0.0,0.0,0.0,0.3803,0.3791,0.3946,0.4982,0.5141,0.4817,0.3906,0.0,0.3418,0.3161,0.0,0.0,0.0,0.0,0.0,0.0,-0.0222,-0.0295,-0.0031,0.0,0.0,0.0,0.0,-0.2775,-0.9797,-1.0487,-1.0487,-1.0487,-1.0487,-1.0487,-1.0487,-1.0487,-1.0487,-1.0487,-1.0487,-1.0487,-1.0487,-1.0487,-1.0487,-1.0487,-1.0487,-1.0487,-1.0487,-1.0487,-1.1131,-1.2245,-1.2245,-1.2245,-1.2245,-1.2245,-1.2245,-1.2245,-1.2245,-1.2803,-1.3576,-1.3576,-1.7941,-2.2923,-1.5965,-1.8124,-2.3918,-2.3918,-2.3918,-2.3918,-2.3918,-1.9077,-1.5008,-2.1961,-2.3918,-2.3918,-2.3918,-1.8785,-1.3576,-1.3576,-1.2878,-1.2245,-1.2245,-1.2245,-1.2245,-1.2245,-1.2245,-1.2245,-1.2245,-1.2245,-1.2245,-1.2245,-1.2245,-1.2245,-1.2245,-1.2245,-1.2245,-1.2245,-1.141,-0.7907,-0.0617,0.0,0.0,0.0,0.0,0.0,0.0,0.0,0.0,0.0,0.0,0.0,0.0,0.0,0.0,0.0,0.0,0.0,0.5682,0.5549,0.4962,0.5187,0.4538,0.4026,0.0,0.0,0.0,0.1065,0.0316,0.0,0.0,0.0,0.0,0.0,-0.1586,-0.2157,-0.0277,0.0,0.0,0.0,0.0,-0.2775,-0.9797,-1.0487,-1.0487,-1.0487,-1.0487,-1.0487,-1.0487,-1.0487,-1.0487,-1.0487,-1.0487,-1.0487,-1.0487,-1.0487,-1.0487,-1.0487,-1.0487,-1.0487,-1.0487,-1.0487,-1.1131,-1.2245,-1.2245,-1.2245,-1.2245,-1.2245,-1.2245,-1.2245,-1.2245,-1.6114,-2.1636,-2.1636,-2.2587,-2.369,-2.219,-2.2659,-2.3918,-2.3918,-2.3918,-2.3918,-2.3918,-2.2851,-2.1961,-2.3475,-2.3918,-2.3918,-2.3918,-2.2815,-2.1636,-2.1636,-1.6845,-1.2245,-1.2245,-1.2245,-1.2245,-1.2245,-1.2245,-1.2245,-1.2245,-1.2245,-1.2245,-1.2245,-1.2245,-1.2245,-1.2245,-1.2245,-1.2245,-1.2245,-0.6315,-0.1718,-0.0133,0.0,0.0,0.0,0.0,0.0,0.0,0.0,0.0,0.0,0.0,0.0,0.0,0.0,0.0,0.0,0.0,0.0,0.4854,0.4768,0.4372,0.4372,0.3045,0.0,0.0,0.4434,0.4974,0.0858,-0.2808,-0.4175,-0.0655,-0.2873,-0.5268,-0.5256,-0.3278,-0.1339,-0.0159,0.0,0.0,0.0,0.0,-0.2775,-0.9797,-1.0487,-1.0487,-1.0487,-1.0487,-1.0487,-1.0487,-1.0487,-1.0487,-1.0487,-1.0487,-1.0487,-1.0487,-1.0487,-1.0487,-1.0487,-1.0487,-1.0487,-1.0507,-1.1098,-1.1688,-1.2212,-1.1622,-1.1363,-1.1363,-1.1363,-1.4043,-1.8088,-1.8088,-2.0464,-2.3918,-2.3918,-2.3918,-2.3918,-2.3918,-2.3918,-2.3918,-2.3918,-2.3918,-2.3918,-2.3918,-2.3918,-2.3918,-2.3918,-2.3918,-2.3918,-2.3918,-2.3918,-2.2923,-1.9004,-1.5083,-1.2245,-1.2245,-1.2245,-1.2245,-1.2245,-1.2245,-1.2245,-1.2245,-1.2245,-1.2245,-1.2245,-1.2245,-1.2245,-1.2245,-1.2245,-1.2245,-1.2245,-0.4895,0.0,0.0,0.0,0.0,0.0,0.0,0.0,0.0,0.0,0.0,0.0,0.0,0.0,0.0,0.0,0.0,0.0,0.0,0.0,0.3496,0.3493,0.3386,0.293,0.1569,0.0,0.0054,0.3651,0.5585,0.0393,-0.4836,-0.6709,-0.1047,-0.5767,-1.0062,-0.8661,-0.3685,0.0,0.0,0.0,0.0,0.0,-0.121,-0.4271,-0.9933,-1.0487,-1.0487,-1.0487,-1.0487,-1.0487,-1.0487,-1.0487,-1.0487,-1.0487,-1.0487,-1.0487,-1.0487,-1.0487,-1.0487,-1.0487,-1.0487,-1.0487,-1.0521,-1.1469,-1.19,-1.1847,-1.0899,-1.1246,-1.248,-1.248,-1.6723,-2.3295,-2.3737,-2.3918,-2.3918,-2.3918,-2.3918,-2.3918,-2.3918,-2.3918,-2.3918,-2.3918,-2.3918,-2.3918,-2.3918,-2.3918,-2.3918,-2.3918,-2.3918,-2.3918,-2.3918,-2.2779,-2.0027,-1.3755,-1.2245,-1.2245,-1.2245,-1.2245,-1.2245,-1.2245,-1.2245,-1.2245,-1.2245,-1.2245,-1.2245,-1.2245,-1.2245,-1.1673,-1.0065,-0.9845,-0.9857,-0.9857,-0.394,0.0,0.0,0.0,0.0,0.0,0.0,0.0,0.0,0.0,0.0,0.0,0.0,0.0,0.0,0.0,0.0,0.0,0.0,0.0,0.3501,0.3493,0.3,0.0913,0.0979,0.0,0.0234,0.0506,0.0186,-0.2547,-0.2077,-0.0916,-0.0131,-0.5767,-0.8462,-0.2189,-0.0524,0.0,0.0,0.0,0.0,0.0,-0.5536,-0.9636,-1.0416,-1.0487,-1.0487,-1.0487,-1.0487,-1.0487,-1.0487,-1.0487,-1.0487,-1.0487,-1.0487,-1.0487,-1.0487,-1.0487,-1.0487,-1.0487,-1.0487,-1.0487,-1.0487,-1.062,-1.068,-1.0673,-1.0541,-1.3904,-1.9486,-1.9486,-2.007,-2.1164,-2.3126,-2.3918,-2.3918,-2.3918,-2.3918,-2.3918,-2.3918,-2.3918,-2.3918,-2.3918,-2.3918,-2.3918,-2.3918,-2.3918,-2.3918,-2.3918,-2.3918,-2.3918,-2.3918,-1.8748,-1.3314,-1.2464,-1.2245,-1.2245,-1.2245,-1.2245,-1.2245,-1.2245,-1.2245,-1.2245,-1.2245,-1.2245,-1.2245,-1.2245,-1.2245,-0.9598,-0.23,-0.1359,-0.136,-0.136,-0.0544,0.0,0.0,0.0,0.0,0.0,0.0,0.0,0.0,0.0,0.0,0.0,0.0,0.0,0.0,0.0,0.0,0.0,0.0,0.0,0.3504,0.3499,0.2934,0.0589,0.0,0.0,0.0737,-0.3163,-0.6381,-0.7379,-0.6799,-0.4857,-0.0752,-0.2385,-0.3425,-0.0491,0.0,0.0,0.0,0.0,-0.1537,-0.5634,-0.8694,-1.0487,-1.0487,-1.0487,-1.0487,-1.0487,-1.0487,-1.0487,-1.0487,-1.0487,-1.0487,-1.0487,-1.0487,-1.0487,-1.0487,-1.0487,-1.0832,-1.1502,-1.0813,-1.0487,-1.0642,-1.4592,-1.6388,-1.6388,-1.6388,-1.7992,-2.0622,-2.0622,-2.1372,-2.2628,-2.3542,-2.3918,-2.3918,-2.3918,-2.3918,-2.3918,-2.3918,-2.3918,-2.3918,-2.3918,-2.3918,-2.3918,-2.3918,-2.3918,-2.3918,-2.3918,-2.0609,-1.7094,-1.7094,-1.4673,-1.2245,-1.2245,-1.2245,-1.2245,-1.2245,-1.2245,-1.2245,-1.2245,-1.2245,-1.2245,-1.2245,-1.2245,-1.2245,-1.2245,-1.2245,-0.9276,-0.1054,0.0,0.0,0.0,0.0,0.0,0.0,0.0,0.0,0.0,0.0,0.0,0.0,0.0,0.0,0.0,0.0,0.0,0.0,0.0,0.0,0.0,0.0,0.0,0.3504,0.0,0.0,0.0,0.0,0.0,0.2965,-0.4278,-1.0487,-1.0487,-1.0487,-0.8333,-0.1308,0.0,0.0,0.0,0.0,0.0,0.0,0.0,-0.2612,-0.9668,-1.0487,-1.0487,-1.0487,-1.0487,-1.0487,-1.0487,-1.0487,-1.0487,-1.0487,-1.0487,-1.0487,-1.0487,-1.0487,-1.0487,-1.0487,-1.0487,-1.0912,-1.1784,-1.2805,-1.3301,-1.3396,-1.6419,-1.7806,-1.7806,-1.7806,-1.7806,-1.7806,-1.7806,-2.0205,-2.3918,-2.3918,-2.3918,-2.3918,-2.3918,-2.3918,-2.3918,-2.3918,-2.3918,-2.3918,-2.3918,-2.3918,-2.3511,-2.1346,-2.0682,-2.0682,-2.0682,-1.6623,-1.2245,-1.2245,-1.2245,-1.2245,-1.2245,-1.2245,-1.2245,-1.2245,-1.2245,-1.2245,-1.2245,-1.2245,-1.2245,-1.2245,-1.2245,-1.2245,-1.2245,-1.0324,-0.6711,-0.0763,0.0,0.0,0.0,0.0,0.0,0.0,0.0,0.0,0.0,0.0,0.0,0.0,0.0,0.0,0.0,0.0,0.0,0.0,0.0,0.0,0.0,0.0,0.0,0.0,0.0,0.0,0.0022,0.1815,0.4464,0.7736,-0.1352,-1.0487,-1.0487,-1.0487,-0.8333,-0.1308,0.0,0.0,0.0,0.0,0.0,0.0,0.0,-0.2612,-0.9668,-1.0487,-1.0487,-1.0487,-1.0487,-1.0487,-1.0487,-1.0487,-1.0487,-1.0487,-1.0487,-1.0487,-1.0487,-1.0487,-1.0487,-1.0487,-1.0487,-1.0501,-1.0638,-1.7172,-2.0301,-2.0116,-1.3714,-1.0803,-1.0803,-1.0803,-1.0803,-1.0803,-1.0803,-1.5984,-2.3918,-2.3918,-2.3918,-2.3918,-2.3918,-2.3918,-2.3918,-2.3918,-2.3918,-2.3918,-2.3918,-2.3918,-2.2479,-1.4897,-1.2577,-1.2577,-1.2577,-1.2427,-1.2245,-1.2245,-1.2245,-1.2245,-1.2245,-1.2245,-1.2245,-1.2245,-1.2245,-1.2245,-1.2245,-1.2245,-1.2245,-1.2245,-1.2245,-1.2245,-1.2245,-0.5462,-0.0259,-0.0029,0.0,0.0,0.0,0.0,0.0,0.0,0.0,0.0,0.0,0.0,0.0,0.0,0.0,0.0,0.0,0.0,0.0,0.0,0.0,0.0,0.0,0.0,0.0,0.3904,0.1788,0.0,0.0,0.0588,0.0263,-0.3235,-0.3758,-0.3522,-0.3522,-0.7227,-0.8333,-0.1308,0.0,0.0,0.0,0.0,0.0,0.0,0.0,-0.2612,-0.9668,-1.0487,-1.0487,-1.0487,-1.0487,-1.0487,-1.0487,-1.0487,-1.0487,-1.0487,-1.0487,-1.0487,-1.0487,-1.0487,-1.0487,-1.0487,-1.0487,-1.0487,-1.0584,-1.7369,-2.0622,-2.0363,-1.3587,-1.0487,-1.0487,-1.0487,-1.0487,-1.0487,-1.0487,-1.5816,-2.3918,-2.3918,-2.3918,-2.3283,-1.8088,-1.6142,-1.6142,-1.6142,-1.6142,-1.6142,-1.6142,-1.6142,-1.5669,-1.3058,-1.2245,-1.2245,-1.2245,-1.2245,-1.2245,-1.2245,-1.2245,-1.2245,-1.2245,-1.2245,-1.2245,-1.2245,-1.2245,-1.2245,-1.2245,-1.2245,-1.2245,-1.2245,-1.2245,-1.2245,-1.2245,-0.9898,-0.6154,-0.0701,0.0,0.0,0.0,0.0,0.0,0.0,0.0,0.0,0.0,0.0,0.0,0.0,0.0,0.0,0.0,0.0,0.0,0.0,0.0,0.0,0.0,0.0,0.0,0.4605,0.2114,0.0,0.0,0.0,-0.1174,-0.5694,-0.3231,0.0,0.0,-0.3588,-0.5341,-0.0818,0.0,0.0,0.0,0.0,0.0,0.0,0.0,-0.2612,-0.9668,-1.0487,-1.0487,-1.0487,-1.0487,-1.0487,-1.0487,-1.0487,-1.0487,-1.0487,-1.0487,-1.0487,-1.0487,-1.0487,-1.0487,-1.0487,-1.0487,-1.0487,-1.0552,-1.4909,-1.6983,-1.6827,-1.248,-1.0487,-1.0487,-1.0487,-1.0487,-1.0521,-1.0939,-1.4519,-1.9735,-1.9735,-1.9735,-1.9114,-1.4092,-1.2245,-1.2245,-1.2245,-1.2245,-1.2245,-1.2245,-1.2245,-1.2245,-1.2245,-1.2245,-1.2245,-1.2245,-1.2245,-1.2245,-1.2245,-1.2245,-1.2245,-1.2245,-1.2245,-1.2245,-1.2245,-1.2245,-1.2245,-1.2245,-1.2245,-1.2245,-1.2245,-1.2245,-1.2245,-1.2245,-0.9738,-0.5957,-0.0677,0.0,0.0,0.0,0.0,0.0,0.0,0.0,0.0,0.0,0.0,0.0,0.0,0.0,0.0,0.0,0.0,0.0,0.0,0.0,0.0,0.0,0.0,0.0,0.5518,0.2632,0.0,0.0,0.0,0.0,0.0,0.0,0.0,0.0,0.0,0.0,0.0,0.0,0.0,0.0,0.0,0.0,0.0,0.0,-0.2612,-0.9668,-1.0487,-1.0487,-1.0487,-1.0487,-1.0487,-1.0487,-1.0487,-1.0487,-1.0487,-1.0487,-1.0487,-1.0487,-1.0487,-1.0487,-1.0487,-1.0487,-1.0487,-1.0487,-1.0487,-1.0487,-1.0487,-1.0487,-1.0487,-1.0487,-1.0554,-1.058,-1.0667,-1.1781,-1.2245,-1.2245,-1.2245,-1.2245,-1.2245,-1.2245,-1.2245,-1.2245,-1.2245,-1.2245,-1.2245,-1.2245,-1.2245,-1.2245,-1.2245,-1.2245,-1.2245,-1.2245,-1.2245,-1.2245,-1.2245,-1.2245,-1.2245,-1.2245,-1.2245,-1.2245,-1.2245,-1.2245,-1.2245,-1.2245,-1.2245,-1.2245,-1.2245,-1.2245,-1.2245,-1.2245,-0.5254,0.0,0.0,0.0,0.0,0.0,0.0,0.0,0.0,0.0,0.0,0.0,0.0,0.0,0.0,0.0,0.0,0.0,0.0,0.0,0.0,0.0,0.0,0.0,0.0,0.0,0.5277,0.2021,0.0,0.0,0.0,0.0,0.0,0.0,0.0,0.0,0.0,0.0,0.0,0.0,0.0,0.0,0.0,0.0,0.0,0.0,-0.2612,-0.9668,-1.0487,-1.0487,-1.0487,-1.0487,-1.0487,-1.0487,-1.0487,-1.0487,-1.0487,-1.0487,-1.0487,-1.0487,-1.0487,-1.0487,-1.0487,-1.0487,-1.0487,-1.0487,-1.0487,-1.0487,-1.0487,-1.0487,-1.0487,-1.0534,-1.1416,-1.1794,-1.1821,-1.2119,-1.2245,-1.2245,-1.2245,-1.2245,-1.2245,-1.2245,-1.2245,-1.2245,-1.2245,-1.2245,-1.2245,-1.2245,-1.2245,-1.2245,-1.2245,-1.2245,-1.2245,-1.2245,-1.2245,-1.2245,-1.2245,-1.2245,-1.2245,-1.2245,-1.2245,-1.2245,-1.2245,-1.2245,-1.2245,-1.2245,-1.2245,-1.2245,-1.2245,-1.2245,-1.2245,-1.2245,-0.5254,0.0,0.0,0.0,0.0,0.0,0.0,0.0,0.0,0.0,0.0,0.0,0.0,0.0,0.0,0.0,0.0,0.0,0.0,0.0,0.0,0.0,0.0,0.0,0.0,0.0,0.9323,0.6621,0.3881,0.0785,0.0,0.0,0.0,0.0,0.0,0.0,0.0,0.0,0.0,0.0,0.0,0.0,0.0,0.0,0.0,0.0,-0.2612,-0.9668,-1.0487,-1.0487,-1.0487,-1.0487,-1.0487,-1.0487,-1.0487,-1.0487,-1.0487,-1.0487,-1.0487,-1.0487,-1.0487,-1.0487,-1.0487,-1.0487,-1.0487,-1.0487,-1.0487,-1.0487,-1.0487,-1.0487,-1.0766,-1.1297,-1.196,-1.2245,-1.2206,-1.1688,-1.1774,-1.2245,-1.2245,-1.2245,-1.2245,-1.2245,-1.2245,-1.2245,-1.2245,-1.2245,-1.2245,-1.2245,-1.2245,-1.2245,-1.2245,-1.2245,-1.2245,-1.2245,-1.2245,-1.2245,-1.2245,-1.2245,-1.2245,-1.2245,-1.2245,-1.2245,-1.2245,-1.2245,-1.2245,-1.2245,-1.2245,-1.2245,-1.2245,-1.2245,-1.2245,-1.2245,-0.5254,0.0,0.0,0.0,0.0,0.0,0.0,0.0,0.0,0.0,0.0,0.0,0.0,0.0,0.0,0.0,0.0,0.0,0.0,0.0,0.0,0.0,0.0,0.0,0.0,0.0,1.7151,1.5326,1.0428,0.208,0.0,0.0,0.0,0.0,0.0,0.0,0.0,0.0,0.0,0.0,0.0,0.0,0.0,0.0,0.0,0.0,-0.2612,-0.9668,-1.0487,-1.0487,-1.0487,-1.0487,-1.0487,-1.0487,-1.0487,-1.0487,-1.0487,-1.0487,-1.0487,-1.0487,-1.0487,-1.0487,-1.0487,-1.0487,-1.0487,-1.0487,-1.0487,-1.0487,-1.0494,-1.0647,-1.1277,-1.2245,-1.2245,-1.2245,-1.2166,-1.1144,-1.1323,-1.2245,-1.2245,-1.2245,-1.2245,-1.2245,-1.2245,-1.2245,-1.2245,-1.2245,-1.2245,-1.2245,-1.2245,-1.2245,-1.2245,-1.2245,-1.2245,-1.2245,-1.2245,-1.2245,-1.2245,-1.2245,-1.2245,-1.2245,-1.2245,-1.2245,-1.2245,-1.2245,-1.2245,-1.2245,-1.2245,-1.2245,-1.2245,-1.2245,-1.1874,-1.0773,-0.4557,0.0,0.0,0.0,0.0,0.0,0.0,0.0,0.0,0.0,0.0,0.0,0.0,0.0,0.0,0.0,0.0,0.0,0.0,0.0,0.0,0.0,0.0,0.0,0.0,0.0,3.0497,2.8607,1.8916,0.3782,0.0,0.0,0.0,0.0,0.0,0.0,0.0,0.0,0.0,0.0,0.0,0.0,0.0,0.0,0.0,0.0,-0.2612,-0.9668,-1.0487,-1.0487,-1.0487,-1.0487,-1.0487,-1.0487,-1.0487,-1.0487,-1.0487,-1.0487,-1.0487,-1.0487,-1.0487,-1.0487,-1.0487,-1.0487,-1.0487,-1.0487,-1.0487,-1.0487,-1.0521,-1.1496,-1.2053,-1.2245,-1.2245,-1.2245,-1.2225,-1.2026,-1.206,-1.2245,-1.2245,-1.2245,-1.2245,-1.2245,-1.2245,-1.2245,-1.2245,-1.2245,-1.2245,-1.2245,-1.2245,-1.2245,-1.2245,-1.2245,-1.2245,-1.2245,-1.2245,-1.2245,-1.2245,-1.2245,-1.2245,-1.2245,-1.2245,-1.2245,-1.2245,-1.2245,-1.2245,-1.2245,-1.2245,-1.2245,-1.2245,-1.2245,-0.9944,-0.3138,-0.0909,0.0,0.0,0.0,0.0,0.0,0.0,0.0,0.0,0.0,0.0,0.0,0.0,0.0,0.0,0.0,0.0,0.0,0.0,0.0,0.0,0.0,0.0,0.0,0.0,0.0,3.5654,3.316,2.3903,0.841,0.2249,0.0,0.0,0.0,0.0,0.0,0.0,0.0,0.0,0.0,0.121,0.489,0.2385,0.0,0.0,0.0,-0.2612,-0.9668,-1.0487,-1.0487,-1.0487,-1.0487,-1.0487,-1.0487,-1.0487,-1.0487,-1.0487,-1.0487,-1.0487,-1.0487,-1.0487,-1.0487,-1.0487,-1.0487,-1.0487,-1.0487,-1.0487,-1.0487,-1.0507,-1.1071,-1.1662,-1.2245,-1.2245,-1.2245,-1.2245,-1.2245,-1.2245,-1.2245,-1.2245,-1.2245,-1.2245,-1.2245,-1.2245,-1.2245,-1.2245,-1.2245,-1.2245,-1.2245,-1.2245,-1.2245,-1.2245,-1.2245,-1.2245,-1.2245,-1.2245,-1.2245,-1.2245,-1.2245,-1.2245,-1.2245,-1.2245,-1.2245,-1.2245,-1.2245,-1.2245,-1.2245,-1.2245,-1.2245,-1.2245,-1.2245,-0.9459,-0.1234,0.0,0.0,0.0,0.0,0.0,0.0,0.0,0.0,0.0,0.0,0.0,0.0,0.0,0.0,0.0,0.0,0.0,0.0,0.0,0.0,0.0,0.0,0.0,0.0,0.0,0.0,3.2817,2.9108,2.2124,1.1711,0.454,0.0,0.0,0.0,0.0,0.0,0.0,0.0,0.0,0.0,0.2319,0.934,0.5861,0.1733,0.0197,0.0,-0.2612,-0.9668,-1.0487,-1.0487,-1.0487,-1.0487,-1.0487,-1.0487,-1.0487,-1.0487,-1.0487,-1.0487,-1.0487,-1.0487,-1.0487,-1.0487,-1.0487,-1.0487,-1.0487,-1.0487,-1.0487,-1.0487,-1.0487,-1.0487,-1.0992,-1.188,-1.2133,-1.2245,-1.2245,-1.2245,-1.2245,-1.2245,-1.2245,-1.2245,-1.2245,-1.2245,-1.2245,-1.2245,-1.2245,-1.2245,-1.2245,-1.2245,-1.2245,-1.2245,-1.2245,-1.2245,-1.2245,-1.2245,-1.2245,-1.2245,-1.2245,-1.2245,-1.2245,-1.2245,-1.2245,-1.2245,-1.2245,-1.2245,-1.2245,-1.2245,-1.2245,-1.2245,-1.2245,-1.0779,-0.7423,-0.0968,0.0,0.0,0.0,0.0,0.0,0.0,0.0,0.0,0.0,0.0,0.0,0.0,0.0,0.0,0.0,0.0,0.0,0.0,0.0,0.0,0.0,0.0,0.0,0.0,0.0,0.0,1.8329,1.2403,0.7954,0.9868,0.514,0.0,0.0,0.0,0.0,0.0,0.0,0.0,0.0,0.0,0.2319,0.934,0.9965,0.7292,0.0883,0.0,-0.2612,-0.9668,-1.0487,-1.0487,-1.0487,-1.0487,-1.0487,-1.0487,-1.0487,-1.0487,-1.0487,-1.0487,-1.0487,-1.0487,-1.0487,-1.0487,-1.0487,-1.0487,-1.0487,-1.0487,-1.0487,-1.0487,-1.0487,-1.0487,-1.0547,-1.0706,-1.1781,-1.2245,-1.2245,-1.2245,-1.2245,-1.2245,-1.2245,-1.2245,-1.2245,-1.2245,-1.2245,-1.2245,-1.2245,-1.2245,-1.2245,-1.2245,-1.2245,-1.2245,-1.2245,-1.2245,-1.2245,-1.2245,-1.2245,-1.2245,-1.2245,-1.2245,-1.2245,-1.2245,-1.2245,-1.2245,-1.2245,-1.2245,-1.2245,-1.2245,-1.2245,-1.2245,-1.2245,-0.6056,-0.0862,-0.0113,0.0,0.0,0.0,0.0,0.0,0.0,0.0,0.0,0.0,0.0,0.0,0.0,0.0,0.0,0.0,0.0,0.0,0.0,0.0,0.0,0.0,0.0,0.0,0.0,0.0,0.0,2.4022,2.1333,1.5779,0.9866,0.4168,0.0,0.0,0.0,0.0,0.0,0.0,0.0,0.0,0.3457,0.7227,1.003,1.0487,0.8041,0.0981,0.0,-0.1047,-0.3848,-0.7907,-1.0487,-1.0487,-1.0487,-1.0487,-1.0487,-1.0487,-1.0487,-1.0487,-1.0487,-1.0487,-1.0487,-1.0487,-1.0487,-1.0487,-1.0487,-1.0487,-1.0487,-1.0487,-1.0487,-1.0487,-1.0487,-1.0872,-1.1575,-1.204,-1.2245,-1.2245,-1.2245,-1.2245,-1.2245,-1.2245,-1.2245,-1.2245,-1.2245,-1.2245,-1.2245,-1.2245,-1.2245,-1.2245,-1.2245,-1.2245,-1.2245,-1.2245,-1.2245,-1.2245,-1.2245,-1.2245,-1.2245,-1.2245,-1.2245,-1.2245,-1.2245,-1.2245,-1.2245,-1.2245,-1.2245,-1.2245,-1.2245,-1.2245,-1.2245,-1.2245,-0.5439,0.0,0.0,0.0,0.0,0.0,0.0,0.0,0.0,0.0,0.0,0.0,0.0,0.0,0.0,0.0,0.0,0.0,0.0,0.0,0.0,0.0,0.0,0.0,0.0,0.0,0.0,0.0,0.0,2.4764,2.3551,1.857,1.0134,0.5286,0.213,0.039,0.0,0.0,0.0,0.1667,0.2473,0.0376,0.6049,1.0892,1.0541,1.0487,0.8041,0.0981,0.0,0.0,0.0,-0.6218,-1.0487,-1.0487,-1.0487,-1.0487,-1.0487,-1.0487,-1.0487,-1.0487,-1.0487,-1.0487,-1.0487,-1.0487,-1.0487,-1.0487,-1.0487,-1.0487,-1.0487,-0.8365,-0.8645,-1.1005,-1.1005,-1.1456,-1.2245,-1.2245,-1.2245,-1.2245,-1.2245,-1.2245,-1.2245,-1.2245,-1.2245,-1.2245,-1.2245,-1.2245,-1.2245,-1.2245,-1.2245,-1.2245,-1.2245,-1.2245,-1.2245,-1.2245,-1.2245,-1.2245,-1.2245,-1.2245,-1.2245,-1.2245,-1.2245,-1.2245,-1.2245,-1.2245,-1.2245,-1.2245,-1.2245,-1.2245,-1.2245,-1.2245,-1.1476,-0.9035,-0.3827,0.0,0.0,0.0,0.0,0.0,0.0,0.0,0.0,0.0,0.0,0.0,0.0,0.0,0.0,0.0,0.0,0.0,0.0,0.0,0.0,0.0,0.0,0.0,0.0,0.0,0.0,0.0,0.0,1.4815,1.1576,1.0119,1.0396,0.9562,0.7135,0.1338,0.0,0.0,0.0,0.554,0.8273,0.1271,0.6715,1.1847,1.0673,1.0487,0.8041,0.0981,0.0,0.0,0.0,-0.6218,-1.0487,-1.0487,-1.0487,-1.0487,-1.0487,-1.0487,-1.0487,-1.0487,-1.0487,-1.0487,-1.0487,-1.0487,-1.0487,-1.0487,-1.0487,-1.0487,-1.0416,-0.3425,-0.4349,-1.2225,-1.2225,-1.2232,-1.2245,-1.2245,-1.2245,-1.2245,-1.2245,-1.2245,-1.2245,-1.2245,-1.2245,-1.2245,-1.2245,-1.2245,-1.2245,-1.2245,-1.2245,-1.2245,-1.2245,-1.2245,-1.2245,-1.2245,-1.2245,-1.2245,-1.2245,-1.2245,-1.2245,-1.2245,-1.2245,-1.2245,-1.2245,-1.2245,-1.2245,-1.2245,-1.2245,-1.2245,-1.2245,-1.2245,-0.9665,-0.1519,-0.0053,0.0,0.0,0.0,0.0,0.0,0.0,0.0,0.0,0.0,0.0,0.0,0.0,0.0,0.0,0.0,0.0,0.0,0.0,0.0,0.0,0.0,0.0,0.0,0.0,0.0,0.0,0.0,0.0,1.7798,1.6752,1.585,1.4012,0.9935,0.586,0.4022,0.5466,0.5829,0.0981,0.1765,0.2634,0.0412,0.2108,0.5331,0.9767,1.0487,0.9733,0.7486,0.3036,0.0,0.0,-0.196,-0.3327,-0.3327,-0.3327,-0.3327,-0.3327,-0.3327,-0.3327,-0.3327,-0.7875,-1.0487,-1.0487,-1.0487,-0.8171,-0.336,-0.3327,-0.3327,-0.3364,-0.6738,-0.9321,-1.1045,-1.1045,-1.1482,-1.2245,-1.2245,-1.2245,-1.2245,-1.2245,-1.2245,-1.2245,-1.2245,-1.2245,-1.2245,-1.2245,-1.2245,-1.2245,-1.2245,-1.2245,-1.2245,-1.2245,-1.2245,-1.2245,-1.2245,-1.2245,-1.2245,-1.2245,-1.2245,-1.2245,-1.2245,-1.2245,-1.2245,-1.2245,-1.2245,-1.2245,-1.2245,-1.2245,-1.2245,-1.2245,-1.2245,-0.9638,-0.1413,0.0,0.0,0.0,0.0,0.0,0.0,0.0,0.0,0.0,0.0,0.0,0.0,0.0,0.0,0.0,0.0,0.0,0.0,0.0,0.0,0.0,0.0,0.0,0.0,0.0,0.0,0.0,0.0,0.0,1.7267,1.7998,1.8827,1.7031,1.379,1.1052,1.1052,1.3635,1.3714,0.5626,0.5294,0.5821,0.3712,0.3663,0.5415,0.9788,1.0487,1.0487,1.0487,0.6741,0.297,0.0327,0.0,0.0,0.0,0.0,0.0,0.0,0.0,0.0,0.0,-0.4141,-0.6514,-0.6514,-0.6514,-0.4434,-0.0033,0.0,-0.134,-0.4049,-0.9613,-1.1628,-1.0487,-1.0487,-1.1131,-1.2245,-1.2245,-1.2245,-1.2245,-1.2245,-1.2245,-1.2245,-1.2245,-1.2245,-1.2245,-1.2245,-1.2245,-1.2245,-1.2245,-1.2245,-1.2245,-1.2245,-1.2245,-1.2245,-1.2245,-1.2245,-1.2245,-1.2245,-1.2245,-1.2245,-1.2245,-1.2245,-1.2245,-1.2245,-1.2245,-1.2245,-1.2245,-1.2245,-1.2245,-1.2245,-0.9738,-0.5997,-0.0882,0.0,0.0,0.0,0.0,0.0,0.0,0.0,0.0,0.0,0.0,0.0,0.0,0.0,0.0,0.0,0.0,0.0,0.0,0.0,0.0,0.0,0.0,0.0,0.0,0.0,0.0,0.0,0.0,0.0,1.4005,1.6427,2.0144,2.0144,2.0373,2.0638,2.0909,2.3109,2.2455,1.3061,1.4218,1.5244,0.9648,0.9247,0.99,1.0416,1.0487,1.0487,1.0487,1.0487,0.8074,0.1537,0.0752,0.0557,0.0066,0.0,0.0,0.0,0.0,0.0,0.0,0.0,0.0,0.0,0.0,0.0,0.0,-0.0491,-0.4044,-1.0501,-1.1595,-1.1589,-1.0614,-1.0614,-1.1211,-1.2245,-1.2245,-1.2245,-1.2245,-1.2245,-1.2245,-1.2245,-1.2245,-1.2245,-1.2245,-1.2245,-1.2245,-1.2245,-1.2245,-1.2245,-1.2245,-1.2245,-1.2245,-1.2245,-1.2245,-1.2245,-1.2245,-1.2245,-1.2245,-1.2245,-1.2245,-1.2245,-1.2245,-1.2245,-1.2245,-1.2245,-1.2245,-1.2245,-1.2245,-1.2245,-0.5619,0.0,0.0,0.0,0.0,0.0,0.0,0.0,0.0,0.0,0.0,0.0,0.0,0.0,0.0,0.0,0.0,0.0,0.0,0.0,0.0,0.0,0.0,0.0,0.0,0.0,0.0,0.0,0.0,0.0,0.0,0.0,1.4005,2.0789,2.9052,2.9052,2.4581,2.0918,2.3805,2.5007,2.3934,1.8336,1.6267,1.3817,0.8404,0.4689,0.4239,0.9636,1.0487,1.0487,1.0487,1.0487,0.99,0.8236,0.8041,0.5926,0.0524,0.0,0.0,0.0,0.0,0.0,0.0,0.0,0.0,0.0,0.0,0.0,0.0,-0.5345,-0.8855,-1.0487,-1.0766,-1.123,-1.1834,-1.1834,-1.198,-1.2245,-1.2245,-1.2245,-1.2245,-1.2245,-1.2245,-1.2245,-1.2245,-1.2245,-1.2245,-1.2245,-1.2245,-1.2245,-1.2245,-1.2245,-1.2245,-1.2245,-1.2245,-1.2245,-1.2245,-1.2245,-1.2245,-1.2245,-1.2245,-1.2245,-1.2245,-1.2245,-1.2245,-1.2245,-1.2245,-1.2245,-1.2245,-1.2245,-1.2245,-1.2245,-0.5619,0.0,0.0,0.0,0.0,0.0,0.0,0.0,0.0,0.0,0.0,0.0,0.0,0.0,0.0,0.0,0.0,0.0,0.0,0.0,0.0,0.0,0.0,0.0,0.0,0.0,0.0,0.0,0.0,0.0,0.0,0.0,1.6402,2.0876,2.7119,3.1074,2.8804,2.5055,2.3159,2.27,2.2057,1.9743,1.6435,1.3104,1.0204,0.6967,0.6657,1.2581,0.9109,0.5668,0.5673,0.8468,1.0686,1.123,1.0819,0.9017,0.5179,0.1895,0.0,0.0,0.0,0.0,0.0,0.0,0.0,0.0,0.0,-0.1569,-0.4789,-0.8591,-1.0487,-1.0494,-1.1038,-1.1628,-1.2245,-1.2245,-1.2245,-1.2245,-1.2245,-1.2245,-1.2245,-1.2245,-1.2245,-1.2245,-1.2245,-1.2245,-1.2245,-1.2245,-1.2245,-1.2245,-1.2245,-1.2245,-1.2245,-1.2245,-1.2245,-1.2245,-1.2245,-1.2245,-1.2245,-1.2245,-1.2245,-1.2245,-1.2245,-1.2245,-1.2245,-1.2245,-1.2245,-1.2245,-1.2245,-1.2245,-1.2245,-1.2245,-0.5619,0.0,0.0,0.0,0.0,0.0,0.0,0.0,0.0,0.0,0.0,0.0,0.0,0.0,0.0,0.0,0.0,0.0,0.0,0.0,0.0,0.0,0.0,0.0,0.0,0.0,0.0,0.0,0.0,0.0,0.0,0.0,1.9255,1.8929,2.0441,2.8179,2.978,2.7676,2.0805,1.8742,1.8254,1.8254,1.5354,1.2743,1.244,1.249,1.3287,1.5475,0.7823,0.1829,0.2534,0.7155,1.0852,1.1854,1.1257,1.0686,1.0501,0.4141,0.0,0.0,0.0,0.0,0.0,0.0,0.0,0.0,0.0,-0.3392,-1.0423,-1.0487,-1.0487,-1.0501,-1.1681,-1.2245,-1.2245,-1.2245,-1.2245,-1.2245,-1.2245,-1.1517,-1.045,-1.1712,-1.2245,-1.2245,-1.2245,-1.2245,-1.2245,-1.2245,-1.2245,-1.2245,-1.2245,-1.2245,-1.2245,-1.2245,-1.2245,-1.2245,-1.2245,-1.2245,-1.2245,-1.2245,-1.2245,-1.2245,-1.2245,-1.2245,-1.2245,-1.2245,-1.2245,-1.2245,-1.2245,-1.2245,-1.2245,-1.2245,-0.5619,0.0,0.0,0.0,0.0,0.0,0.0,0.0,0.0,0.0,0.0,0.0,0.0,0.0,0.0,0.0,0.0,0.0,0.0,0.0,0.0,0.0,0.0,0.0,0.0,0.0,0.0,0.0,0.0,0.0,0.0,0.0,1.9255,1.7483,1.6521,2.029,1.9377,1.7881,1.8998,1.6427,1.381,1.381,1.329,1.2329,1.0662,1.7188,1.9991,1.1408,0.9298,1.0085,1.3959,1.2172,1.0554,1.0733,1.1482,1.1582,1.058,0.4141,0.0,0.0,0.0,0.0,0.0,0.0,0.0,0.0,0.0,-0.3392,-1.0423,-1.0487,-1.0487,-1.0501,-1.1681,-1.2245,-1.2245,-1.2245,-1.2245,-1.2245,-1.2245,-0.8282,-0.2399,-0.9382,-1.2245,-1.2245,-1.2245,-1.2245,-1.2245,-1.2245,-1.2245,-1.2245,-1.2245,-1.2245,-1.2245,-1.2245,-1.2245,-1.2245,-1.2245,-1.2245,-1.2245,-1.2245,-1.2245,-1.2245,-1.2245,-1.2245,-1.2245,-1.2245,-1.2245,-1.2245,-1.2245,-1.2245,-1.2245,-1.2245,-0.5619,0.0,0.0,0.0,0.0,0.0,0.0,0.0,0.0,0.0,0.0,0.0,0.0,0.0,0.0,0.0,0.0,0.0,0.0,0.0,0.0,0.0,0.0,0.0,0.0,0.0,0.0,0.0,0.0,0.0,0.0,0.0,1.9255,1.9976,2.1064,2.2403,2.1746,2.0483,1.9483,1.7706,1.5647,1.3314,1.1987,1.098,1.0079,1.3724,1.486,0.8694,0.8695,0.9075,0.7996,0.9386,1.0952,1.2144,0.8343,0.6916,1.0178,0.4141,0.0,0.0,0.0,0.0,0.0,0.0,0.0,0.0,0.0,-0.1537,-0.4789,-0.4822,-0.4801,-0.4831,-0.5359,-0.5624,-0.5775,-1.0218,-0.9841,-0.5624,-0.5624,-0.3462,-0.0305,-0.407,-0.5624,-0.5624,-0.5624,-0.832,-1.2245,-1.2245,-1.2245,-1.2245,-1.2245,-1.2245,-1.2245,-1.2245,-1.2245,-1.2245,-1.2245,-1.2245,-1.2245,-1.2245,-1.2245,-1.2245,-1.2245,-0.8962,-0.5624,-0.5624,-0.5624,-0.5624,-0.5624,-0.562,-0.5619,-0.5619,-0.2574,0.0,0.0,0.0,0.0,0.0,0.0,0.0,0.0,0.0,0.0,0.0,0.0,0.0,0.0,0.0,0.0,0.0,0.0,0.0,0.0,0.0,0.0,0.0,0.0,0.0,0.0,0.0,0.0,0.0,0.0,0.0,2.0392,0.0,2.4342,2.4342,2.4999,2.4795,0.0,1.9949,1.8303,1.5013,1.2341,1.0597,1.0597,1.0228,0.9396,0.7788,0.8448,0.7017,0.0867,0.6286,1.1626,1.3549,0.5624,0.2123,0.7519,0.3166,0.0,0.0,0.0,0.0,0.0,0.0,0.0,0.0,0.0,0.0,0.0,0.0,0.0,0.0,0.0,0.0,-0.0229,-0.6495,-0.593,0.0,0.0,0.0,0.0,0.0,0.0,0.0,0.0,-0.3842,-0.9382,-0.9382,-0.9382,-0.9382,-0.9382,-0.9382,-0.9382,-0.9382,-1.0676,-1.2245,-1.2245,-1.0908,-0.9382,-0.9382,-0.9382,-0.9382,-0.9382,-0.4716,0.0,0.0,0.0,0.0,0.0,0.0,0.0,0.0,0.0,0.0,0.0,0.0,0.0,0.0,0.0,0.0,0.0,0.0,0.0,0.0,0.0,0.0,0.0,0.0,0.0,0.0,0.0,0.0,0.0,0.0,0.0,0.0,0.0,0.0,0.0,0.0,0.0,0.0,0.0,0.0,0.0,2.2588,2.0421,2.0421,2.306,2.5582,2.5265,2.213,0.0,1.8864,1.5496,1.261,1.261,1.1143,0.9862,0.972,1.0072,0.7956,0.0991,0.7,1.2538,1.3648,0.5624,0.0197,0.0687,0.0295,0.0,0.0,0.0,0.0,0.0,0.0,0.0,0.0,0.0,0.0,0.0,0.0,0.0,0.0,0.0,0.0,-0.0038,-0.061,-0.0534,0.0,0.0,0.0,0.0,0.0,0.0,0.0,0.0,-0.0343,-0.0877,-0.0877,-0.0877,-0.0877,-0.0877,-0.0877,-0.0877,-0.0877,-0.6041,-1.2245,-1.2245,-0.6915,-0.0877,-0.0877,-0.0877,-0.0877,-0.0877,-0.042,0.0,0.0,0.0,0.0,0.0,0.0,0.0,0.0,0.0,0.0,0.0,0.0,0.0,0.0,0.0,0.0,0.0,0.0,0.0,0.0,0.0,0.0,0.0,0.0,0.0,0.0,0.0,0.0,0.0,0.0,0.0,0.0,0.0,0.0,0.0,0.0,0.0,0.0,0.0,0.0,2.6688,2.7164,2.5264,2.1352,2.2851,2.6064,2.8995,2.4266,1.9255,1.9255,1.795,1.6828,1.6828,1.4771,1.3068,1.3068,1.154,0.7955,0.0972,0.7062,1.2405,1.2803,0.5239,0.0,0.0,0.0,0.0,0.0,0.0,0.0,0.0,0.0,0.0,0.0,0.0,0.0,0.0,0.0,0.0,0.0,0.0,0.0,0.0,0.0,0.0,0.0,0.0,0.0,0.0,0.0,0.0,0.0,0.0,0.0,0.0,0.0,0.0,0.0,0.0,0.0,0.0,0.0,-0.2094,-0.464,-0.464,-0.2475,0.0,0.0,0.0,0.0,0.0,0.0,0.0,0.0,0.0,0.0,0.0,0.0,0.0,0.0,0.0,0.0,0.0,0.0,0.0,0.0,0.0,0.0,0.0,0.0,0.0,0.0,0.0,0.0,0.0,0.0,0.0,0.0,0.0,0.0,0.0,0.0,0.0,0.0,0.0,0.0,0.0,0.0,0.0,0.0,0.0,0.0,2.8779,2.9927,2.8894,2.4633,2.4311,2.5916,2.9124,2.5408,2.09,1.951,1.9255,1.9255,1.9255,1.7641,1.6019,1.5129,1.2926,0.9452,0.402,0.6208,0.8385,0.8363,0.3411,0.0,0.0,0.0,0.0,0.0,0.0,0.0,0.0,0.0,0.0,0.0,0.0,0.0,0.0,0.0,0.0,0.0,0.0,0.0,0.0,0.0,0.0,0.0,0.0,0.0,0.0,0.0,0.0,0.0,0.0,0.0,0.0,0.0,0.0,0.0,0.0,0.0,0.0,0.0,0.0,0.0,0.0,0.0,0.0,0.0,0.0,0.0,0.0,0.0,0.0,0.0,0.0,0.0,0.0,0.0,0.0,0.0,0.0,0.0,0.0,0.0,0.0,0.0,0.0,0.0,0.0,0.0,0.0,0.0,0.0,0.0,0.0,0.0,0.0,0.0,0.0,0.0,0.0,0.0,0.0,0.0,0.0,0.0,0.0,0.0,0.0,0.0,0.0,0.0,2.9927,2.9927,2.9927,2.9927,2.7506,2.5143,2.5195,2.5454,2.4438,2.0133,1.9255,1.9255,1.9255,1.9255,1.8305,1.5433,1.4228,1.2887,1.068,0.4384,0.0,0.0,0.0,0.0,0.0,0.0,0.0,0.0,0.0,0.0,0.0,0.0,0.0,0.0,0.0,0.0,0.0,0.0,0.0,0.0,0.0,0.0,0.0,0.0,0.0,0.0,0.0,0.0,0.0,0.0,0.0,0.0,0.0,0.0,0.0,0.0,0.0,0.0,0.0,0.0,0.0,0.0,0.0,0.0,0.0,0.0,0.0,0.0,0.0,0.0,0.0,0.0,0.0,0.0,0.0,0.0,0.0,0.0,0.0,0.0,0.0,0.0,0.0,0.0,0.0,0.0,0.0,0.0,0.0,0.0,0.0,0.0,0.0,0.0,0.0,0.0,0.0,0.0,0.0,0.0,0.0,0.0,0.0,0.0,0.0,0.0,0.0,0.0,0.0,0.0,0.0,0.0,2.9927,2.9927,2.9927,2.9927,2.9215,2.955,3.3609,2.9924,2.4438,2.0133,1.9255,1.9255,1.9255,1.9255,1.8305,1.5433,1.6751,1.7413,1.537,0.6369,0.0,0.0,0.0,0.0,0.0,0.0,0.0,0.0,0.0,0.0,0.0,0.0,0.0,0.0,0.0,0.0,0.0,0.0,0.0,0.0,0.0,0.0,0.0,0.0,0.0,0.0,0.0,0.0,0.0,0.0,0.0,0.0,0.0,0.0,0.0,0.0,0.0,0.0,0.0,0.0,0.0,0.0,0.0,0.0,0.0,0.0,0.0,0.0,0.0,0.0,0.0,0.0,0.0,0.0,0.0,0.0,0.0,0.0,0.0,0.0,0.0,0.0,0.0,0.0,0.0,0.0,0.0,0.0,0.0,0.0,0.0,0.0,0.0,0.0,0.0,0.0,0.0,0.0,0.0,0.0,0.0,0.0,0.0,0.0,0.0,0.0,0.0,0.0,0.0,0.0,0.0,0.0,2.9927,2.9927,2.9927,2.9927,2.9927,3.1438,3.7175,3.1851,2.4438,2.0133,1.9255,1.9255,1.9255,1.9255,1.8687,1.695,1.9705,2.1527,2.0026,0.8368,0.0,0.0,0.0,0.0,0.0,0.0,0.0,0.0,0.0,0.0,0.0,0.0,0.1501,0.4756,0.4868,0.487,0.4862,0.4865,0.4865,0.4865,0.4865,0.3158,0.0,0.0,0.0,0.0,0.0,0.0,0.0,0.0,0.0,0.0,0.0,0.0,0.0,0.0,0.0,0.0,0.0,0.0,0.0,0.0,0.0,0.0,0.0,0.0,0.0,0.0,0.0,0.0,0.0,0.0,0.0,0.0,0.0,0.0,0.0,0.0,0.0,0.0,0.0,0.0,0.0,0.0,0.0,0.0,0.0,0.0,0.0,0.0,0.0,0.0,0.0,0.0,0.0,0.0,0.0,0.0,0.0,0.0,0.0,0.0,0.0,0.0,0.0,0.0,0.0,0.0,0.0,0.0,0.0,0.0,3.0705,3.0359,2.9927,2.9927,2.9927,3.1438,3.7175,3.2122,2.4916,2.0231,1.9255,1.9255,1.9255,1.9279,1.9259,1.9078,2.1685,2.3467,2.2798,0.957,0.0,0.0,0.0,0.0,0.0,0.0,0.0,0.0,0.0,0.0295,0.0916,0.0949,0.4423,1.2018,1.2245,1.2245,1.2245,1.2245,1.2245,1.2245,1.2245,0.8358,0.1144,0.1144,0.1144,0.1144,0.1144,0.1144,0.1144,0.1144,0.1144,0.1144,0.1144,0.1144,0.1144,0.1144,0.1144,0.1144,0.1144,0.1144,0.0991,0.0229,0.0496,0.1144,0.1144,0.1144,0.1144,0.1144,0.1144,0.1144,0.1144,0.1144,0.1144,0.1144,0.1144,0.1144,0.1144,0.0542,0.0,0.0,0.0,0.0,0.0,0.0,0.0,0.0,0.0,0.0,0.0,0.0,0.0,0.0,0.0,0.0,0.0,0.0,0.0,0.0,0.0,0.0,0.0,0.0,0.0,0.0,0.0,0.0,0.0,0.0,0.0,0.0,0.0,0.0,3.6665,3.3374,2.9927,2.9927,2.9927,3.1438,3.7175,3.4436,2.8515,2.0827,1.9255,1.9255,1.9255,1.9577,1.935,1.7802,1.5331,1.3547,1.3386,0.5636,0.0,0.0,0.0,0.0,0.0,0.0,0.0,0.0,0.0,0.2417,0.7944,0.8236,0.948,1.2168,1.2245,1.2245,1.2245,1.2245,1.2245,1.2245,1.2245,1.1329,0.9614,0.9614,0.9614,0.9614,0.9614,0.9614,0.9614,0.9614,0.9614,0.9614,0.9614,0.9614,0.9614,0.9614,0.9614,0.9614,0.9614,0.9614,0.8547,0.2094,0.4374,0.9614,0.9614,0.9614,0.9614,0.9614,0.9614,0.9614,0.9614,0.9614,0.9614,0.9614,0.9614,0.9614,0.9614,0.4549,0.0,0.0,0.0,0.0,0.0,0.0,0.0,0.0,0.0,0.0,0.0,0.0,0.0,0.0,0.0,0.0,0.0,0.0,0.0,0.0,0.0,0.0,0.0,0.0,0.0,0.0,0.0,0.0,0.0,0.0,0.0,0.0,0.0,0.0,3.8485,3.6303,3.4045,3.4045,3.4045,3.4816,3.7807,3.3582,2.7717,2.3251,2.0681,1.9852,2.1935,1.9731,1.7855,1.8643,1.4128,1.0487,1.0487,0.7357,0.5049,0.5049,0.5049,0.3718,0.0327,0.3066,0.5049,0.5049,0.5049,0.6639,1.0288,1.0487,1.1025,1.2206,1.2245,1.2245,1.2245,1.2245,1.2245,1.2245,1.2245,1.2245,1.2245,1.2245,1.2245,1.2245,1.2245,1.2245,1.2245,1.2245,1.2245,1.2245,1.2245,1.2245,1.2245,1.2245,1.2245,1.2245,1.2245,1.2245,1.1555,0.7256,0.8773,1.2245,1.2245,1.2245,1.2245,1.2245,1.2245,1.2245,1.2245,1.2245,1.2245,1.2245,1.2245,1.2245,1.2245,0.5798,0.0,0.0,0.0,0.0,0.0,0.0,0.0,0.0,0.0,0.0,0.0,0.0,0.0,0.0,0.0,0.0,0.0,0.0,0.0,0.0,0.0,0.0,0.0,0.0,0.0,0.0,0.0,0.0,0.0,0.0,0.0,0.0,0.0,0.0,3.9767,3.9767,3.9993,4.0902,4.1104,4.1104,4.1104,3.4263,2.7888,2.7888,2.3885,2.1447,2.4998,1.9347,1.5581,1.9893,1.4909,1.0487,1.0487,1.0487,1.0487,1.0487,1.0487,0.8203,0.2385,0.7098,1.0487,1.0487,1.0487,1.0487,1.0487,1.0487,1.0932,1.1914,1.194,1.194,1.194,1.2139,1.2245,1.2245,1.2245,1.2245,1.2245,1.2245,1.2245,1.2245,1.2245,1.2245,1.2245,1.2245,1.2245,1.2245,1.2245,1.2245,1.2245,1.2245,1.2245,1.2245,1.2245,1.2245,1.2245,1.2245,1.2245,1.2245,1.2245,1.2245,1.2245,1.2245,1.2245,1.2245,1.2245,1.2245,1.2245,1.2245,1.2245,1.1854,1.0428,0.4789,0.0,0.0,0.0,0.0,0.0,0.0,0.0,0.0,0.0,0.0,0.0,0.0,0.0,0.0,0.0,0.0,0.0,0.0,0.0,0.0,0.0,0.0,0.0,0.0,0.0,0.0,0.0,0.0,0.0,0.0,0.0,0.0,0.0,0.0,4.4914,4.4914,4.5962,5.0505,5.1645,5.1645,5.1645,4.392,3.6801,3.6801,3.0412,2.4973,2.5574,1.7572,1.3046,1.9545,1.4909,1.0487,1.0487,1.0487,1.0487,1.0487,1.0487,1.0126,0.9178,0.9965,1.0487,1.0487,1.0487,1.0487,1.0487,1.0487,1.056,1.0713,1.072,1.072,1.072,1.1735,1.2245,1.2245,1.2245,1.2245,1.2245,1.2245,1.2245,1.2245,1.2245,1.2245,1.2245,1.2245,1.2245,1.2245,1.2245,1.2245,1.2245,1.2245,1.2245,1.2245,1.2245,1.2245,1.2245,1.2245,1.2245,1.2245,1.2245,1.2245,1.2245,1.2245,1.2245,1.2245,1.2245,1.2245,1.2245,1.2245,1.2245,1.0295,0.3164,0.0769,0.0,0.0,0.0,0.0,0.0,0.0,0.0,0.0,0.0,0.0,0.0,0.0,0.0,0.0,0.0,0.0,0.0,0.0,0.0,0.0,0.0,0.0,0.0,0.0,0.0,0.0,0.0,0.0,0.0,0.0,0.0,0.0,0.0,0.0,4.5864,4.8009,5.0797,5.3067,5.365,5.365,5.365,5.0214,4.5371,3.9678,3.5508,3.1875,2.865,2.4371,2.2017,2.4082,2.0801,1.801,1.801,1.6957,1.4751,1.0964,1.0487,1.0487,1.0487,1.0487,1.0487,1.0487,1.0487,1.0487,1.0487,1.4086,1.4434,1.061,1.0487,1.0487,1.0487,1.0998,1.1589,1.2245,1.2245,1.2245,1.2245,1.2245,1.2245,1.2245,1.2245,1.2245,1.2245,1.2245,1.2245,1.2245,1.2245,1.2245,1.2245,1.2245,1.2245,1.2245,1.2245,1.2245,1.2245,1.2245,1.2245,1.2245,1.2245,1.5297,1.8785,1.8785,1.8785,1.8785,1.8785,1.8785,1.8785,1.8785,1.8785,1.5328,0.272,0.0,0.0,0.0,0.0,0.0,0.0,0.0,0.0,0.0,0.0,0.0,0.0,0.0,0.0,0.0,0.0,0.0,0.0,0.0,0.0,0.0,0.0,0.0,0.0,0.0,0.0,0.0,0.0,0.0,0.0,0.0,0.0,0.0,0.0,0.0,4.5515,4.8708,5.167,5.167,5.2444,5.3584,5.5106,5.4504,5.1114,4.2192,3.9377,3.6991,3.2115,2.9686,2.8317,2.807,2.5271,2.3083,2.3083,2.1659,1.8719,1.3682,1.3078,1.2384,1.0681,1.0487,1.1214,1.295,1.3078,1.3078,1.3078,1.6231,1.5728,1.0649,1.0487,1.0487,1.0487,1.0487,1.179,1.4398,1.4939,1.5231,1.5231,1.5231,1.5231,1.5231,1.5231,1.5231,1.5231,1.5231,1.5231,1.5231,1.5231,1.5231,1.4971,1.2983,1.2245,1.254,1.4532,1.5231,1.5231,1.5231,1.5231,1.5231,1.5231,1.9297,2.3918,2.3918,2.3918,2.3918,2.3918,2.3918,2.3918,2.3918,2.3918,1.9516,0.3467,0.0,0.0,0.0,0.0,0.0,0.0,0.0,0.0,0.0,0.0,0.0,0.0,0.0,0.0,0.0,0.0,0.0,0.0,0.0,0.0,0.0,0.0,0.0,0.0,0.0,0.0,0.0,0.0,0.0,0.0,0.0,0.0,0.0,0.0,0.0,4.4556,4.6068,4.6272,4.6272,4.9161,5.345,5.9013,5.6836,5.2094,4.6631,4.1735,3.7717,3.5202,2.896,2.5434,2.9189,2.472,2.076,2.076,2.0687,2.0468,2.0147,2.0085,1.7556,1.1117,1.0487,1.3173,1.961,2.0085,2.0085,2.0085,1.4308,1.0867,1.052,1.0487,1.0487,1.0487,1.0487,1.3749,2.0183,2.2317,2.3295,2.3295,2.3295,2.3295,2.3295,2.3295,2.3295,2.3295,2.3295,2.3295,2.3295,2.3295,2.3295,2.2406,1.4971,1.2245,1.3321,2.0754,2.3295,2.3295,2.3295,2.3295,2.3295,2.3295,2.3583,2.3918,2.3918,2.3918,2.3918,2.3918,2.3918,2.3918,2.3918,2.3918,1.9516,0.3467,0.0,0.0,0.0,0.0,0.0,0.0,0.0,0.0,0.0,0.0,0.0,0.0,0.0,0.0,0.0,0.0,0.0,0.0,0.0,0.0,0.0,0.0,0.0,0.0,0.0,0.0,0.0,0.0,0.0,0.0,0.0,0.0,0.0,0.0,0.0,4.1084,4.529,4.913,4.6511,4.8895,5.2459,5.4564,5.3736,5.1252,4.6771,4.1921,3.8237,3.7402,3.2046,2.8249,2.9717,2.8072,2.5196,2.1178,2.0622,2.0622,2.0622,2.0622,1.9641,1.7244,1.6983,1.7992,2.0437,2.0622,2.0622,2.0622,1.8315,1.6983,1.6983,1.6983,1.6983,1.6983,1.6983,1.8933,2.2745,2.3529,2.3918,2.3918,2.3918,2.3918,2.3918,2.3918,2.3918,2.3918,2.3918,2.3918,2.3918,2.3918,2.3918,2.3583,2.0802,1.9735,2.0136,2.2923,2.3918,2.3918,2.3918,2.3918,2.3918,2.3918,2.3918,2.3918,2.3918,2.3918,2.3918,2.3918,2.3918,2.3918,2.3918,1.6049,0.6973,0.1234,0.0,0.0,0.0,0.0,0.0,0.0,0.0,0.0,0.0,0.0,0.0,0.0,0.0,0.0,0.0,0.0,0.0,0.0,0.0,0.0,0.0,0.0,0.0,0.0,0.0,0.0,0.0,0.0,0.0,0.0,0.0,0.0,0.0,0.0,0.0,4.0282,4.5818,5.1271,4.8588,4.9925,5.19,5.19,5.19,5.1153,4.8455,4.4205,4.049,3.8784,3.3804,2.9927,2.9927,2.9927,2.8475,2.4335,2.3754,2.2958,2.0854,2.0622,2.0622,2.0622,2.0622,2.0622,2.0622,2.0622,2.0622,2.0622,2.0622,2.0622,2.0622,2.0622,2.0622,2.0622,2.1346,2.2459,2.3918,2.3918,2.3918,2.3918,2.3918,2.3918,2.3918,2.3918,2.534,2.762,2.762,2.762,2.7376,2.4879,2.3918,2.3918,2.3918,2.5482,2.762,2.762,2.762,2.762,2.762,2.762,2.762,2.762,2.762,2.762,2.762,2.762,2.762,2.762,2.762,2.762,2.762,1.3496,0.0,0.0,0.0,0.0,0.0,0.0,0.0,0.0,0.0,0.0,0.0,0.0,0.0,0.0,0.0,0.0,0.0,0.0,0.0,0.0,0.0,0.0,0.0,0.0,0.0,0.0,0.0,0.0,0.0,0.0,0.0,0.0,0.0,0.0,0.0,0.0,0.0,4.2475,4.728,5.1472,5.1801,5.19,5.19,5.19,5.19,5.19,5.19,4.8795,4.4554,3.9621,3.405,3.0125,2.9955,2.9927,2.9927,2.9927,2.9927,2.768,2.1622,2.0885,2.0885,2.0885,2.0885,2.0885,2.0885,2.0885,2.0885,2.0885,2.0982,2.0982,2.0885,2.0982,2.1021,2.1021,2.3177,2.4228,2.4228,2.4228,2.4228,2.4228,2.4228,2.4228,2.4228,2.4228,2.8352,3.4971,3.4971,3.4971,3.427,2.7076,2.4228,2.4299,2.4487,2.9116,3.5282,3.5282,3.5282,3.5282,3.5282,3.5282,3.5282,3.5282,3.5282,3.5236,3.5037,3.4971,3.4971,3.4971,3.4971,3.4971,3.4971,1.7085,0.0,0.0,0.0,0.0,0.0,0.0,0.0,0.0,0.0,0.0,0.0,0.0,0.0,0.0,0.0,0.0,0.0,0.0,0.0,0.0,0.0,0.0,0.0,0.0,0.0,0.0,0.0,0.0,0.0,0.0,0.0,0.0,0.0,0.0,0.0,0.0,0.0,4.3436,4.1415,4.1382,4.9795,5.19,5.19,5.19,5.19,5.19,5.19,5.1018,4.8925,4.4642,3.9614,3.479,3.0612,2.9927,2.9927,2.9927,2.9927,2.9283,2.7564,2.7362,2.7362,2.7362,2.7362,2.7362,2.7362,2.7362,2.7362,2.7362,2.9687,2.9893,2.7431,2.9722,3.1041,3.1041,3.1634,3.1951,3.1951,3.1951,3.1951,3.1951,3.1951,3.1951,3.1951,3.1951,3.3098,3.4971,3.4971,3.4971,3.4806,3.2744,3.1951,3.2523,3.7358,4.0403,4.2154,4.2154,4.2154,4.2154,4.2154,4.2154,4.2154,4.2154,4.2154,4.1178,3.6357,3.4971,3.4971,3.4971,3.4971,3.4971,3.4971,1.7085,0.0,0.0,0.0,0.0,0.0,0.0,0.0,0.0,0.0,0.0,0.0,0.0,0.0,0.0,0.0,0.0,0.0,0.0,0.0,0.0,0.0,0.0,0.0,0.0,0.0,0.0,0.0,0.0,0.0,0.0,0.0,0.0,0.0,0.0,0.0,0.0,0.0,4.2654,4.1355,4.0765,4.6806,4.6491,4.4683,4.4683,4.8413,5.19,5.19,5.19,5.1171,4.8851,4.4629,3.9809,3.4379,3.3509,3.269,3.0275,2.9927,2.9927,2.9927,3.206,3.3509,3.3509,3.3509,3.3509,3.3509,3.3509,3.3076,3.2107,3.3909,3.408,3.2108,3.3947,3.4971,3.4971,3.4971,3.4971,3.5037,3.7814,3.7686,3.4971,3.4971,3.65,3.9126,3.9126,3.9126,3.9126,3.9126,3.9126,3.9126,3.9126,3.9126,3.9575,4.3487,4.4918,4.4918,4.4918,4.4918,4.4918,4.4918,4.4918,4.4918,4.4918,4.4918,4.4105,4.0199,3.9126,3.9126,3.9126,3.7063,3.4971,3.4971,2.8089,1.7569,0.3128,0.0,0.0,0.0,0.0,0.0,0.0,0.0,0.0,0.0,0.0,0.0,0.0,0.0,0.0,0.0,0.0,0.0,0.0,0.0,0.0,0.0,0.0,0.0,0.0,0.0,0.0,0.0,0.0,0.0,0.0,0.0,0.0,0.0,0.0,0.0,3.937,4.2046,4.2337,4.0784,3.7996,3.5224,0.0,4.2322,5.0688,5.1687,5.19,5.19,5.19,4.8982,4.4971,4.008,3.9328,3.7358,3.1674,3.0881,3.0881,3.0881,3.5395,3.8485,3.8485,3.8485,3.868,3.9168,3.9217,3.829,3.6212,3.6096,3.6096,3.6096,3.6096,3.6096,3.6096,3.6096,3.6096,3.6162,4.2063,4.182,3.6096,3.6096,3.9314,4.4918,4.4918,4.4918,4.4918,4.4918,4.4918,4.4918,4.4918,4.4918,4.4918,4.4918,4.4918,4.4918,4.4918,4.4918,4.4918,4.4918,4.4918,4.4918,4.4918,4.4918,4.4918,4.4918,4.4918,4.4918,4.4918,4.0531,3.6227,3.6719,4.4352,4.2029,0.7453,0.0,0.0,0.0,0.0,0.0,0.0,0.0,0.0,0.0,0.0,0.0,0.0,0.0,0.0,0.0,0.0,0.0,0.0,0.0,0.0,0.0,0.0,0.0,0.0,0.0,0.0,0.0,0.0,0.0,0.0,0.0,0.0,0.0,0.0,0.0,0.0,0.0,0.0,0.0,0.0,0.0,0.0,3.456,4.3028,5.0393,5.19,5.19,5.19,5.1271,4.9361,4.512,4.4424,4.2646,3.7534,3.6842,3.6842,3.6842,3.7807,3.8485,3.8485,3.8485,3.9923,4.3382,4.365,4.3474,4.2998,4.2985,4.2985,4.2985,4.2985,4.2985,4.2985,4.2985,4.2985,4.3015,4.4282,4.4223,4.2985,4.2985,4.3695,4.4918,4.4918,4.4918,4.4918,4.4918,4.4918,4.4918,4.4918,4.4918,4.4918,4.4918,4.4918,4.4918,4.4918,4.4918,4.4918,4.4918,4.4918,4.4918,4.4918,4.4918,4.4918,4.4918,4.4918,4.4918,4.4918,4.3957,4.3887,4.7464,4.993,4.2029,0.7453,0.0,0.0,0.0,0.0,0.0,0.0,0.0,0.0,0.0,0.0,0.0,0.0,0.0,0.0,0.0,0.0,0.0,0.0,0.0,0.0,0.0,0.0,0.0,0.0,0.0,0.0,0.0,0.0,0.0,0.0,0.0,0.0,0.0,0.0,0.0,0.0,0.0,0.0,0.0,0.0,0.0,0.0,0.0,0.0,0.0,0.0,4.0704,4.2871,0.0,5.0574,4.6532,4.5864,4.5,4.2518,4.0033,3.9402,4.1875,4.2175,4.2175,4.2175,4.2175,4.3074,4.5233,4.7816,4.9289,4.9289,4.6494,4.4918,4.4918,4.4918,4.4918,4.4918,4.4918,4.4918,4.4918,4.4918,4.4918,4.4918,4.4918,4.4918,4.4918,4.4918,4.4918,4.4918,4.4918,4.4918,4.4918,4.4918,4.4918,4.4918,4.4918,4.6749,4.9289,4.9289,4.9289,4.9289,4.9289,4.9289,4.9289,4.9289,4.9289,4.9289,4.9289,4.9289,4.8612,4.5657,4.6532,4.4415,2.9347,2.578,2.1053,0.3739,0.0,0.0,0.0,0.0,0.0,0.0,0.0,0.0,0.0,0.0,0.0,0.0,0.0,0.0,0.0,0.0,0.0,0.0,0.0,0.0,0.0,0.0,0.0,0.0,0.0,0.0,0.0,0.0,0.0,0.0,0.0,0.0,0.0,0.0,0.0,0.0,0.0,0.0,0.0,0.0,0.0,0.0,0.0,0.0,0.0,0.0,0.0,0.0,0.0,0.0,4.7272,4.6367,4.5864,4.5864,4.2427,4.1412,4.5413,4.5864,4.5864,4.5864,4.5864,4.5864,4.5864,5.0686,5.365,5.365,4.9181,4.6579,4.6579,4.6579,4.6035,4.4918,4.4918,4.4918,4.4918,4.4918,0.0,4.4918,4.4918,4.4918,4.4918,4.4918,4.4918,4.4918,4.4918,4.4918,4.501,4.6149,4.6579,4.6579,4.6579,4.961,5.365,5.365,5.365,5.365,5.365,5.365,5.365,5.365,5.365,0.0,5.365,5.365,5.28,4.9049,5.0712,4.4354,0.8505,0.0,0.0,0.0,0.0,0.0,0.0,0.0,0.0,0.0,0.0,0.0,0.0,0.0,0.0,0.0,0.0,0.0,0.0,0.0,0.0,0.0,0.0,0.0,0.0,0.0,0.0,0.0,0.0,0.0,0.0,0.0,0.0,0.0,0.0,0.0,0.0,0.0,0.0,0.0,0.0,0.0,0.0,0.0,0.0,0.0,0.0,0.0,0.0,0.0,0.0,0.0,0.0,0.0,0.0,4.8226,4.5864,4.5864,4.5392,4.5235,4.5822,4.5864,4.5864,4.5864,4.5864,4.5864,4.5864,5.0686,5.365,5.365,5.3024,0.0,0.0,0.0,5.0168,4.4976,4.4918,4.4918,4.4918,4.4918,4.4918,4.4918,4.4918,4.4918,4.4918,4.4918,4.4918,4.4918,4.4918,4.4918,4.5422,5.0641,5.2672,5.2672,5.2672,5.3074,5.365,5.365,0.0,0.0,5.365,5.365,5.365,5.365,5.365,5.365,5.365,5.365,5.4547,5.8391,5.9742,4.9971,0.96,0.0,0.0,0.0,0.0,0.0,0.0,0.0,0.0,0.0,0.0,0.0,0.0,0.0,0.0,0.0,0.0,0.0,0.0,0.0,0.0,0.0,0.0,0.0,0.0,0.0,0.0,0.0,0.0,0.0,0.0,0.0,0.0,0.0,0.0,0.0,0.0,0.0,0.0,0.0,0.0,0.0,0.0,0.0,0.0,0.0,0.0,0.0,0.0,0.0,0.0,0.0,0.0,0.0,0.0,5.0487,4.8569,4.6211,4.5864,4.5864,4.5864,4.5864,4.5864,4.5864,4.5864,4.5864,4.5864,4.7893,5.0477,5.3475,5.365,5.365,5.365,5.365,5.2442,5.0009,4.6608,4.4918,4.4918,4.4918,4.4918,4.4918,4.4918,4.4918,4.4918,4.4918,4.4918,4.4918,4.4918,4.4918,4.548,0.0,0.0,0.0,0.0,5.365,5.365,5.365,5.365,5.365,5.365,5.365,5.365,5.365,5.365,5.365,5.365,5.365,5.4145,5.6276,5.68,4.7202,0.9045,0.0,0.0,0.0,0.0,0.0,0.0,0.0,0.0,0.0,0.0,0.0,0.0,0.0,0.0,0.0,0.0,0.0,0.0,0.0,0.0,0.0,0.0,0.0,0.0,0.0,0.0,0.0,0.0,0.0,0.0,0.0,0.0,0.0,0.0,0.0,0.0,0.0,0.0,0.0,0.0,0.0,0.0,0.0,0.0,0.0,0.0,0.0,0.0,0.0,0.0,0.0,0.0,0.0,0.0,4.9046,5.0333,4.5817,4.6803,4.7486,4.6039,4.5864,4.5864,4.5864,4.5864,4.5864,4.5864,4.5864,4.7544,5.1321,5.2864,5.365,5.365,5.365,5.365,5.365,4.945,4.7314,4.7314,4.7314,4.7314,4.7314,4.7314,4.7314,4.7314,4.7314,4.7314,4.7314,4.7314,4.7314,4.7705,5.1984,5.365,5.365,5.365,5.365,5.365,5.365,5.365,5.365,5.365,5.365,5.3889,5.5175,5.4694,5.365,5.365,5.365,5.365,5.365,5.365,4.4567,0.8558,0.0,0.0,0.0,0.0,0.0,0.0,0.0,0.0,0.0,0.0,0.0,0.0,0.0,0.0,0.0,0.0,0.0,0.0,0.0,0.0,0.0,0.0,0.0,0.0,0.0,0.0,0.0,0.0,0.0,0.0,0.0,0.0,0.0,0.0,0.0,0.0,0.0,0.0,0.0,0.0,0.0,0.0,0.0,0.0,0.0,0.0,0.0,0.0,0.0,0.0,0.0,0.0,0.0,0.0,0.0,0.0,4.4218,4.9158,5.1525,4.6496,4.5864,4.5864,4.5864,4.5864,4.5864,4.5864,4.5864,4.5952,4.6097,5.089,5.365,5.365,5.365,5.365,5.365,5.3473,5.3375,5.3375,5.3375,5.3375,5.3375,5.3375,5.3375,5.3375,5.3375,5.3375,5.3375,5.3375,5.3375,5.34,5.3547,5.365,5.365,5.365,5.365,5.365,5.365,5.365,5.365,5.365,5.365,5.4504,5.9048,5.7229,5.365,5.365,5.365,5.365,5.365,5.365,4.4567,0.8558,0.0,0.0,0.0,0.0,0.0,0.0,0.0,0.0,0.0,0.0,0.0,0.0,0.0,0.0,0.0,0.0,0.0,0.0,0.0,0.0,0.0,0.0,0.0,0.0,0.0,0.0,0.0,0.0,0.0,0.0,0.0,0.0,0.0,0.0,0.0,0.0,0.0,0.0,0.0,0.0,0.0,0.0,0.0,0.0,0.0,0.0,0.0,0.0,0.0,0.0,0.0,0.0,0.0,0.0,0.0,0.0,0.0,4.1126,4.6612,4.5952,3.6878,3.4667,4.4876,4.5864,4.6989,4.966,4.7379,4.5864,4.5864,4.7544,5.0075,5.3533,5.365,5.365,5.365,5.365,5.365,5.365,5.365,5.365,5.365,5.365,5.365,5.365,5.365,5.365,5.365,5.365,5.365,5.365,5.365,5.365,5.365,5.365,5.365,5.365,5.365,5.5707,5.7777,5.4641,5.5745,5.7864,5.5551,5.3739,5.33,5.7175,5.8315,5.7584,5.4456,5.365,4.4567,0.8558,0.0,0.0,0.0,0.0,0.0,0.0,0.0,0.0,0.0,0.0,0.0,0.0,0.0,0.0,0.0,0.0,0.0,0.0,0.0,0.0,0.0,0.0,0.0,0.0,0.0,0.0,0.0,0.0,0.0,0.0,0.0,0.0,0.0,0.0,0.0,0.0,0.0,0.0,0.0,0.0,0.0,0.0,0.0,0.0,0.0,0.0,0.0,0.0,0.0,0.0,0.0,0.0,0.0,0.0,0.0,0.0,0.0,0.0,0.0,4.5677,3.3956,0.0,3.7954,3.9262,4.2995,5.1277,4.9497,4.8034,4.8034,4.6654,4.7428,5.0797,5.0884,5.1758,5.3621,5.365,5.365,5.365,5.365,5.365,5.365,5.365,5.365,5.365,5.365,5.365,5.365,5.365,5.2573,5.0884,5.0884,5.0884,5.0884,5.0884,5.178,5.3022,5.3022,5.6377,5.9813,5.4672,5.5082,5.6833,5.3051,5.3456,5.678,6.4269,6.2087,5.6852,5.3801,4.3829,2.8686,0.5502,0.0,0.0,0.0,0.0,0.0,0.0,0.0,0.0,0.0,0.0,0.0,0.0,0.0,0.0,0.0,0.0,0.0,0.0,0.0,0.0,0.0,0.0,0.0,0.0,0.0,0.0,0.0,0.0,0.0,0.0,0.0,0.0,0.0,0.0,0.0,0.0,0.0,0.0,0.0,0.0,0.0,0.0,0.0,0.0,0.0,0.0,0.0,0.0,0.0,0.0,0.0,0.0,0.0,0.0,0.0,0.0,0.0,0.0,0.0,4.5665,3.7348,0.0,0.0,0.0,0.0,4.9105,5.0251,5.0483,5.1012,4.7939,4.6169,4.6169,4.6169,4.8462,5.3184,5.3242,5.3242,5.3271,5.3533,5.365,5.365,5.365,5.365,5.365,5.365,5.365,5.3621,5.3359,5.0337,4.5864,4.5603,4.5486,4.5507,4.5665,4.8394,5.2012,5.2272,5.5798,5.9281,5.3709,5.1785,5.1637,5.1851,5.5436,0.0,0.0,6.3801,5.19,5.19,2.6081,0.0,0.0,0.0,0.0,0.0,0.0,0.0,0.0,0.0,0.0,0.0,0.0,0.0,0.0,0.0,0.0,0.0,0.0,0.0,0.0,0.0,0.0,0.0,0.0,0.0,0.0,0.0,0.0,0.0,0.0,0.0,0.0,0.0,0.0,0.0,0.0,0.0,0.0,0.0,0.0,0.0,0.0,0.0,0.0,0.0,0.0,0.0,0.0,0.0,0.0,0.0,0.0,0.0,0.0,0.0,0.0,0.0,0.0,0.0,4.2789,4.5379,4.5794,4.3587,3.7171,0.0,0.0,0.0,0.0,0.0,0.0,3.8604,4.6215,5.0382,5.0382,5.0382,4.9542,4.7886,4.7864,4.7864,4.7922,5.1787,5.365,5.365,5.365,5.365,5.365,5.365,5.365,5.3359,4.9464,4.7078,4.5515,4.1725,4.0259,4.0541,4.305,4.7902,5.3749,5.752,5.6771,5.3873,5.2393,4.984,4.7976,5.0984,0.0,0.0,0.0,0.0,5.19,5.19,2.6081,0.0,0.0,0.0,0.0,0.0,0.0,0.0,0.0,0.0,0.0,0.0,0.0,0.0,0.0,0.0,0.0,0.0,0.0,0.0,0.0,0.0,0.0,0.0,0.0,0.0,0.0,0.0,0.0,0.0,0.0,0.0,0.0,0.0,0.0,0.0,0.0,0.0,0.0,0.0,0.0,0.0,0.0,0.0,0.0,0.0,0.0,0.0,0.0,0.0,0.0,0.0,0.0,0.0,0.0,0.0,0.0,0.0,0.0,0.0,4.1513,4.6643,4.1536,3.9911,3.4277,0.0,0.0,0.0,0.0,0.0,0.0,0.0,0.0,0.0,4.1527,4.8274,5.083,4.855,4.6747,4.5864,4.5894,4.8853,5.0244,5.0244,5.0244,5.1194,5.2902,5.2902,5.1889,5.0192,4.9552,4.5304,3.8728,0.0,0.0,0.0,0.0,4.1421,4.9542,5.2405,5.2721,5.19,5.19,0.0,0.0,0.0,0.0,0.0,0.0,0.0,4.1145,4.3664,2.2292,0.0,0.0,0.0,0.0,0.0,0.0,0.0,0.0,0.0,0.0,0.0,0.0,0.0,0.0,0.0,0.0,0.0,0.0,0.0,0.0,0.0,0.0,0.0,0.0,0.0,0.0,0.0,0.0,0.0,0.0,0.0,0.0,0.0,0.0,0.0,0.0,0.0,0.0,0.0,0.0,0.0,0.0,0.0,0.0,0.0,0.0,0.0,0.0,0.0,0.0,0.0,0.0,0.0,0.0,0.0,0.0,0.0,0.0,0.0,0.0,4.3612,3.3526,0.0,0.0,0.0,0.0,0.0,0.0,0.0,0.0,0.0,0.0,0.0,0.0,0.0,4.8384,4.755,4.4418,4.4157,4.6675,4.6675,4.6675,4.6675,4.6675,4.8557,5.1867,5.1094,0.0,4.6147,4.9312,0.0,0.0,0.0,0.0,0.0,0.0,0.0,0.0,0.0,0.0,0.0,0.0,0.0,0.0,0.0,0.0,0.0,0.0,0.0,0.0,0.0,0.0,0.0,0.0,0.0,0.0,0.0,0.0,0.0,0.0,0.0,0.0,0.0,0.0,0.0,0.0,0.0,0.0,0.0,0.0,0.0,0.0,0.0,0.0,0.0,0.0,0.0,0.0,0.0,0.0,0.0,0.0,0.0,0.0,0.0,0.0,0.0,0.0,0.0,0.0,0.0,0.0,0.0,0.0,0.0,0.0,0.0,0.0,0.0,0.0,0.0,0.0,0.0,0.0,0.0,0.0,0.0,0.0,0.0,0.0,0.0,0.0,0.0,0.0,0.0,0.0,0.0,0.0,0.0,0.0,0.0,0.0,0.0,0.0,0.0,0.0,0.0,0.0,0.0,0.0,0.0,0.0,5.0865,5.0865,5.0865,5.0865,5.1237,5.1637,4.6871,4.5224,4.5283,3.7785,0.0,0.0,0.0,0.0,0.0,0.0,0.0,0.0,0.0,0.0,0.0,0.0,0.0,0.0,0.0,0.0,0.0,0.0,0.0,0.0,0.0,0.0,0.0,0.0,0.0,0.0,0.0,0.0,0.0,0.0,0.0,0.0,0.0,0.0,0.0,0.0,0.0,0.0,0.0,0.0,0.0,0.0,0.0,0.0,0.0,0.0,0.0,0.0,0.0,0.0,0.0,0.0,0.0,0.0,0.0,0.0,0.0,0.0,0.0,0.0,0.0,0.0,0.0,0.0,0.0,0.0,0.0,0.0,0.0,0.0,0.0,0.0,0.0,0.0,0.0,0.0,0.0,0.0,0.0,0.0,0.0,0.0,0.0,0.0,0.0,0.0,0.0,0.0,0.0,0.0,0.0,0.0,0.0,0.0,0.0,0.0,0.0,0.0,0.0,0.0,0.0,0.0,0.0,0.0,0.0,0.0,0.0,0.0,4.0076,3.8176,0.0,0.0,0.0,0.0,0.0,0.0,0.0,0.0,0.0,0.0,0.0,0.0,0.0,0.0,0.0,0.0,0.0,0.0,0.0,0.0,0.0,0.0,0.0,0.0,0.0,0.0,0.0,0.0,0.0,0.0,0.0,0.0,0.0,0.0,0.0,0.0,0.0,0.0,0.0,0.0,0.0,0.0,0.0,0.0,0.0,0.0,0.0,0.0,0.0,0.0,0.0,0.0,0.0,0.0,0.0,0.0,0.0,0.0,0.0,0.0,0.0,0.0,0.0,0.0,0.0,0.0,0.0,0.0,0.0,0.0,0.0,0.0,0.0,0.0,0.0,0.0,0.0,0.0,0.0,0.0,0.0,0.0,0.0,0.0,0.0,0.0,0.0,0.0,0.0,0.0,0.0,0.0,0.0,0.0,0.0,0.0,0.0,0.0,0.0,0.0,0.0,0.0,0.0,0.0,0.0,0.0,0.0,0.0,0.0,0.0,3.1089,2.9228,0.0,0.0,0.0,0.0,0.0,0.0,0.0,0.0,0.0,0.0,0.0,0.0,0.0,0.0,0.0,0.0,0.0,0.0,0.0,0.0,0.0,0.0,0.0,0.0,0.0,0.0,0.0,0.0,0.0,0.0,0.0,0.0,0.0,0.0,0.0,0.0,0.0,0.0,0.0,0.0,0.0,0.0,0.0,0.0,0.0,0.0,0.0,0.0,0.0,0.0,0.0,0.0,0.0,0.0,0.0,0.0,0.0,0.0,0.0,0.0,0.0,0.0,0.0,0.0,0.0,0.0,0.0,0.0,0.0,0.0,0.0,0.0,0.0,0.0,0.0,0.0,0.0,0.0,0.0,0.0,0.0,0.0,0.0,0.0,0.0,0.0,0.0,0.0,0.0,0.0,0.0,0.0,0.0,0.0,0.0,0.0,0.0,0.0,0.0,0.0,0.0,0.0,0.0,0.0,0.0,0.0,0.0,0.0,0.0,0.0,0.0,0.0,0.0,0.0,0.0,0.0,0.0,0.0,0.0,0.0,0.0,0.0,0.0,0.0,0.0,0.0,0.0,0.0,0.0,0.0,0.0,0.0,0.0,0.0,0.0,0.0,0.0,0.0,0.0,0.0,0.0,0.0,0.0,0.0,0.0,0.0,0.0,0.0,0.0,0.0,0.0,0.0,0.0,0.0,0.0,0.0,0.0,0.0,0.0,0.0,0.0,0.0,0.0,0.0,0.0,0.0,0.0,0.0,0.0,0.0,0.0,0.0,0.0,0.0,0.0,0.0,0.0,0.0,0.0,0.0,0.0,0.0,0.0,0.0,0.0,0.0,0.0,0.0,0.0,0.0,0.0,0.0,0.0,0.0,0.0,0.0,0.0,0.0,0.0,0.0,0.0,0.0,0.0,0.0,0.0,0.0,0.0,0.0,0.0,0.0,0.0,0.0,0.0,0.0,0.0,0.0,0.0,0.0,0.0,0.0,0.0,0.0,0.0,0.0,0.0,0.0,0.0,0.0,0.0,0.0,0.0,0.0,0.0,0.0,0.0,0.0,0.0,0.0,0.0,0.0,0.0,0.0,0.0,0.0,0.0,0.0,0.0,0.0,0.0,0.0,0.0,0.0,0.0,0.0,0.0,0.0,0.0,0.0,0.0,0.0,0.0,0.0,0.0,0.0,0.0,0.0,0.0,0.0,0.0,0.0,0.0,0.0,0.0,0.0,0.0,0.0,0.0,0.0,0.0,0.0,0.0,0.0,0.0,0.0,0.0,0.0,0.0,0.0,0.0,0.0,0.0,0.0,0.0,0.0,0.0,0.0,0.0,0.0,0.0,0.0,0.0,0.0,0.0,0.0,0.0,0.0,0.0,0.0,0.0,0.0,0.0,0.0,0.0,0.0,0.0,0.0,0.0,0.0,0.0,0.0,0.0,0.0,0.0,0.0,0.0,0.0,0.0,0.0,0.0,0.0,0.0,0.0,0.0,0.0,0.0,0.0,0.0,0.0,0.0,0.0,0.0,0.0,0.0,0.0,0.0,0.0,0.0,0.0,0.0,0.0,0.0,0.0,0.0,0.0,0.0,0.0,0.0,0.0,0.0,0.0,0.0,0.0,0.0,0.0,0.0,0.0,0.0,0.0,0.0,0.0,0.0,0.0,0.0,0.0,0.0,0.0,0.0,0.0,0.0,0.0,0.0,0.0,0.0,0.0,0.0,0.0,0.0,0.0,0.0,0.0,0.0,0.0,0.0,0.0,0.0,0.0,0.0,0.0,0.0,0.0,0.0,0.0,0.0,0.0,0.0,0.0,0.0,0.0,0.0,0.0,0.0,0.0,0.0,0.0,0.0,0.0,0.0,0.0,0.0,0.0,0.0,0.0,0.0,0.0,0.0,0.0,0.0,0.0,0.0,0.0,0.0,0.0,0.0,0.0,0.0,0.0,0.0,0.0,0.0,0.0,0.0,0.0,0.0,0.0,0.0,0.0,0.0,0.0,0.0,0.0,0.0,0.0,0.0,0.0,0.0,0.0,0.0,0.0,0.0,0.0,0.0,0.0,0.0,0.0,0.0,0.0,0.0,0.0,0.0,0.0,0.0,0.0,0.0,0.0,0.0,0.0,0.0,0.0,0.0,0.0,0.0,0.0,0.0,0.0,0.0,0.0,0.0,0.0,0.0,0.0,0.0,0.0,0.0,0.0,0.0,0.0,0.0,0.0,0.0,0.0,0.0,0.0,0.0,0.0,0.0,0.0,0.0,0.0,0.0,0.0,0.0,0.0,0.0,0.0,0.0,0.0,0.0,0.0,0.0,0.0,0.0,0.0,0.0,0.0,0.0,0.0,0.0,0.0,0.0,0.0,0.0,0.0,0.0,0.0,0.0,0.0,0.0,0.0,0.0,0.0,0.0,0.0,0.0,0.0,0.0,0.0,0.0,0.0,0.0,0.0,0.0,0.0,0.0,0.0,0.0,0.0,0.0,0.0,0.0,0.0,0.0,0.0,0.0,0.0,0.0,0.0,0.0,0.0,0.0,0.0,0.0,0.0,0.0,0.0,0.0,0.0,0.0,0.0,0.0,0.0,0.0,0.0,0.0,0.0,0.0,0.0,0.0,0.0,0.0,0.0,0.0,0.0,0.0,0.0,0.0,0.0,0.0,0.0,0.0,0.0,0.0,0.0,0.0,0.0,0.0,0.0,0.0,0.0,0.0,0.0,0.0,0.0,0.0,0.0,0.0,0.0,0.0,0.0,0.0,0.0,0.0,0.0,0.0,0.0,0.0,0.0,0.0,0.0,0.0,0.0,0.0,0.0,0.0,0.0,0.0,0.0,0.0,0.0,0.0,0.0,0.0,0.0,0.0,0.0,0.0,0.0,0.0,0.0,0.0,0.0,0.0,0.0,0.0,0.0,0.0,0.0,0.0,0.0,0.0,0.0,0.0,0.0,0.0,0.0,0.0,0.0,0.0,0.0,0.0,0.0,0.0,0.0,0.0,0.0,0.0,0.0,0.0,0.0,0.0,0.0,0.0,0.0,0.0,0.0,0.0,0.0,0.0,0.0,0.0,0.0,0.0,0.0,0.0,0.0,0.0,0.0,0.0,0.0,0.0,0.0,0.0,0.0,0.0,0.0,0.0,0.0,0.0,0.0,0.0,0.0,0.0,0.0,0.0,0.0,0.0,0.0,0.0,0.0,0.0,0.0,0.0,0.0,0.0,0.0,0.0,0.0,0.0,0.0,0.0,0.0,0.0,0.0,0.0,0.0,0.0,0.0,0.0,0.0,0.0,0.0,0.0,0.0,0.0,0.0,0.0,0.0,0.0,0.0,0.0,0.0,0.0,0.0,0.0,0.0,0.0,0.0,0.0,0.0,0.0,0.0,0.0,0.0,0.0,0.0,0.0,0.0,0.0,0.0,0.0,0.0,0.0,0.0,0.0,0.0,0.0,0.0,0.0,0.0,0.0,0.0,0.0,0.0,0.0,0.0,0.0,0.0,0.0,0.0,0.0,0.0,0.0,0.0,0.0,0.0,0.0,0.0,0.0,0.0,0.0,0.0,0.0,0.0,0.0,0.0,0.0,0.0,0.0,0.0,0.0,0.0,0.0,0.0,0.0,0.0,0.0,0.0,0.0,0.0,0.0,0.0,0.0,0.0,0.0,0.0,0.0,0.0,0.0,0.0,0.0,0.0,0.0,0.0,0.0,0.0,0.0,0.0,0.0,0.0,0.0,0.0,0.0,0.0,0.0,0.0,0.0,0.0,0.0,0.0,0.0,0.0,0.0,0.0,0.0,0.0,0.0,0.0,0.0,0.0,0.0,0.0,0.0,0.0,0.0,0.0,0.0,0.0,0.0,0.0,0.0,0.0,0.0,0.0,0.0,0.0,0.0,0.0,0.0,0.0,0.0,0.0,0.0,0.0,0.0,0.0,0.0,0.0,0.0,0.0,0.0,0.0,0.0,0.0,0.0,0.0,0.0,0.0,0.0,0.0,0.0,0.0,0.0,0.0,0.0,0.0,0.0,0.0,0.0,0.0,0.0,0.0,0.0,0.0,0.0,0.0,0.0,0.0,0.0,0.0,0.0,0.0,0.0,0.0,0.0,0.0,0.0,0.0,0.0,0.0,0.0,0.0,0.0,0.0,0.0,0.0,0.0,0.0,0.0,0.0,0.0,0.0,0.0,0.0,0.0,0.0,0.0,0.0,0.0,0.0,0.0,0.0,0.0,0.0,0.0,0.0,0.0,0.0,0.0,0.0,0.0,0.0,0.0,0.0,0.0,0.0,0.0,0.0,0.0,0.0,0.0,0.0,0.0,0.0,0.0,0.0,0.0,0.0,0.0,0.0,0.0,0.0,0.0,0.0,0.0,0.0,0.0,0.0,0.0,0.0,0.0,0.0,0.0,0.0,0.0,0.0,0.0,0.0,0.0,0.0,0.0,0.0,0.0,0.0,0.0,0.0,0.0,0.0,0.0,0.0,0.0,0.0,0.0,0.0,0.0,0.0,0.0,0.0,0.0,0.0,0.0,0.0,0.0,0.0,0.0,0.0,0.0,0.0,0.0,0.0,0.0,0.0,0.0,0.0,0.0,0.0,0.0,0.0,0.0,0.0,0.0,0.0,0.0,0.0,0.0,0.0,0.0,0.0,0.0,0.0,0.0,0.0,0.0,0.0,0.0,0.0,0.0,0.0,0.0,0.0,0.0,0.0,0.0,0.0,0.0,0.0,0.0,0.0,0.0,0.0,0.0,0.0,0.0,0.0,0.0,0.0,0.0,0.0,0.0,0.0,0.0,0.0,0.0,0.0,0.0,0.0,0.0,0.0,0.0,0.0,0.0,0.0,0.0,0.0,0.0,0.0,0.0,0.0,0.0,0.0,0.0,0.0,0.0,0.0,0.0,0.0,0.0,0.0,0.0,0.0,0.0,0.0,0.0,0.0,0.0,0.0,0.0,0.0,0.0,0.0,0.0,0.0,0.0,0.0,0.0,0.0,0.0,0.0,0.0,0.0,0.0,0.0,0.0,0.0,0.0,0.0,0.0,0.0,0.0,0.0,0.0,0.0,0.0,0.0,0.0,0.0,0.0,0.0,0.0,0.0,0.0,0.0,0.0,0.0,0.0,0.0,0.0,0.0,0.0,0.0,0.0,0.0,0.0,0.0,0.0,0.0,0.0,0.0,0.0,0.0,0.0,0.0,0.0,0.0,0.0,0.0,0.0,0.0,0.0,0.0,0.0,0.0,0.0,0.0,0.0,0.0,0.0,0.0,0.0,0.0,0.0,0.0,0.0,0.0,0.0,0.0,0.0,0.0,0.0,0.0,0.0,0.0,0.0,0.0,0.0,0.0,0.0,0.0,0.0,0.0,0.0,0.0,0.0,0.0,0.0,0.0,0.0,0.0,0.0,0.0,0.0,0.0,0.0,0.0,0.0,0.0,0.0,0.0,0.0,0.0,0.0,0.0,0.0,0.0,0.0,0.0,0.0,0.0,0.0,0.0,0.0,0.0,0.0,0.0,0.0,0.0,0.0,0.0,0.0,0.0,0.0,0.0,0.0,0.0,0.0,0.0,0.0,0.0,0.0,0.0,0.0,0.0,0.0,0.0,0.0,0.0,0.0,0.0,0.0,0.0,0.0,0.0,0.0,0.0,0.0,0.0,0.0,0.0,0.0,0.0,0.0,0.0,0.0,0.0,0.0,0.0,0.0,0.0,0.0,0.0,0.0,0.0,0.0,0.0,0.0,0.0,0.0,0.0]}],[{"header":{"parameterUnit":"kt","parameterCategory":2,"dx":1,"dy":1,"la1":29.285339999999998,"la2":30.599998999999997,"lo1":-89.70041500000002,"lo2":-87.6738589999976,"nx":112,"ny":82,"refTime":"2022-10-28T00:00:00:Z","depth":0,"parameterNumber":2,"parameterNumberName":"V-component_of_WINDS"},"data":[6.0062,5.3759,4.7267,4.7647,4.237,3.3448,1.9583,1.8297,2.3842,3.7282,3.4572,2.9067,2.6695,2.8202,2.8413,2.4112,1.7752,1.256,0.0,0.9908,1.1543,1.5907,1.8565,2.0008,2.0008,1.784,2.0383,2.9955,4.6317,5.5857,0.0,5.7902,5.91,5.91,5.91,6.2278,6.8932,6.9006,6.9006,6.9006,6.9006,6.9006,6.9006,6.9006,6.9006,6.9006,6.9006,6.9006,6.9006,6.9006,6.9006,6.9006,6.9006,6.9006,6.9006,6.9006,6.9006,6.9006,6.9006,6.9006,6.9006,6.9006,6.9006,6.9006,6.9006,6.9006,6.9006,6.9006,6.9006,6.9006,6.9006,6.9006,6.9006,6.9006,6.9006,6.9006,6.9006,6.9006,6.9006,6.9006,6.9006,6.9006,6.9006,6.9006,6.9006,6.9006,6.9006,6.9006,6.9006,6.9006,6.9006,6.9006,6.9006,6.2353,4.5867,1.7121,0.0,0.0,0.0,0.0,0.0,0.0,0.0,0.0,0.0,0.0,0.0,0.0,0.0,0.0,0.0,0.0,4.9742,4.4904,4.0423,4.2861,3.4966,2.5437,2.1033,2.0008,2.2552,3.1436,2.9689,2.6576,2.6576,2.6576,2.4412,1.7692,1.2854,0.9901,0.0,0.9923,1.2422,1.921,2.0008,2.3615,3.2688,3.3341,2.951,0.0,4.4255,0.0,5.91,5.91,5.91,5.91,5.91,6.1231,6.5605,6.568,6.568,6.568,6.7922,6.9006,6.9006,6.9006,6.9006,6.9006,6.9006,6.9006,6.9006,6.9006,6.9006,6.9006,6.9006,6.9006,6.9006,6.9006,6.9006,6.9006,6.9006,6.9006,6.9006,6.9006,6.9006,6.9006,6.9006,6.9006,6.9006,6.9006,6.9006,6.9006,6.9006,6.9006,6.9006,6.9006,6.9006,6.9006,6.9006,6.9006,6.9006,6.9006,6.9006,6.9006,6.9006,6.9006,6.9006,6.9006,6.9006,6.9006,6.9006,6.9006,6.9006,6.9006,6.9006,6.9006,6.9006,2.6578,0.0,0.0,0.0,0.0,0.0,0.0,0.0,0.0,0.0,0.0,0.0,0.0,0.0,0.0,0.0,0.0,2.9531,3.4242,4.3958,6.4,4.4306,2.0008,2.0008,2.0008,2.0008,2.0008,2.0008,2.0008,2.0008,2.0008,1.7882,1.1314,1.0251,0.0,0.0,1.0226,1.2984,2.0426,2.0729,3.079,5.7441,5.9478,4.8148,0.0,4.4148,5.91,5.91,5.91,5.91,5.91,5.91,5.91,5.91,5.91,5.91,5.9175,6.5605,6.8782,6.9006,6.9006,6.9006,6.9006,6.9006,6.9006,6.9006,6.9006,6.9006,6.9006,6.9006,6.9006,6.9006,6.9006,6.9006,6.9006,6.9006,6.9006,6.9,6.8915,6.8929,6.9006,6.9006,6.9006,6.9006,6.9006,6.9006,6.8993,6.8915,6.8935,6.9006,6.9006,6.9006,6.9006,6.9006,6.9006,6.9006,6.9006,6.9006,6.9006,6.9006,6.9006,6.9006,6.9006,6.9006,6.9006,6.9006,6.9006,6.9006,6.9006,6.9006,6.8408,6.6913,2.5719,0.0,0.0,0.0,0.0,0.0,0.0,0.0,0.0,0.0,0.0,0.0,0.0,0.0,0.0,0.0,0.0,2.9531,3.0877,3.4827,4.5548,3.4017,2.0008,2.0008,1.9851,1.9731,1.9731,1.9897,0.0,0.0,0.0,1.94,1.754,0.0,1.7236,1.7269,1.7235,2.5171,4.6546,3.6143,3.5707,5.7266,5.9172,4.8148,2.1604,4.4148,5.91,5.91,5.91,5.91,5.91,5.91,5.91,5.91,5.91,5.91,5.91,6.0932,6.4334,6.9006,6.9006,6.9006,6.9006,6.9006,6.9006,6.9006,6.9006,6.9006,6.9006,6.9006,6.9006,6.9006,6.9006,6.9006,6.9006,6.9006,6.9006,6.8721,6.7108,6.7708,6.9006,6.9006,6.9006,6.9006,6.9006,6.9006,6.8648,6.7041,6.7799,6.9006,6.9006,6.9006,6.9006,6.9006,6.9006,6.9006,6.9006,6.9006,6.9006,6.9006,6.9006,6.9006,6.9006,6.9006,6.9006,6.9006,6.9006,6.9006,6.9006,6.9006,5.54,2.1756,0.7289,0.0,0.0,0.0,0.0,0.0,0.0,0.0,0.0,0.0,0.0,0.0,0.0,0.0,0.0,0.0,0.0,2.538,2.538,2.7057,3.3918,2.9798,2.3294,2.0479,1.9734,1.9623,1.9623,0.0,0.0,0.0,0.0,0.0,0.0,2.2362,2.7145,3.5612,2.9537,3.3106,5.7214,4.9735,4.692,5.8024,5.91,5.2745,3.7341,5.0428,5.91,5.91,5.91,5.91,5.91,5.91,5.91,5.91,5.91,5.91,5.91,5.91,6.1119,6.4857,6.4857,6.6352,6.9006,6.9006,6.9006,6.9006,6.9006,6.9006,6.9006,6.9006,6.9006,6.9006,6.9006,6.8415,6.7763,6.8678,6.8399,6.7406,6.6114,6.6561,6.7643,6.7643,6.8258,6.8801,6.787,6.7643,6.7327,6.6015,6.7347,6.9006,6.9006,6.9006,6.9006,6.9006,6.9006,6.9006,6.9006,6.9006,6.9006,6.9006,6.9006,6.9006,6.9006,6.9006,6.9006,6.9006,6.9006,6.9006,6.9006,6.9006,5.0278,0.3925,0.0,0.0,0.0,0.0,0.0,0.0,0.0,0.0,0.0,0.0,0.0,0.0,0.0,0.0,0.0,0.0,0.0,1.9566,2.0148,2.2165,2.8074,2.8971,2.7062,2.1941,0.0,1.9637,1.968,0.0,1.8186,1.2187,0.0,0.0,2.1033,2.5436,3.6104,5.71,4.4648,4.0016,5.7936,6.0062,5.9807,5.9142,5.91,5.91,5.91,5.91,5.91,5.91,5.91,5.91,5.91,5.91,5.91,5.91,5.91,5.91,5.91,5.91,5.91,5.91,5.91,6.2726,6.9006,6.9006,6.9006,6.9006,6.9006,6.9006,6.9006,6.9006,6.8867,6.8641,6.8641,6.7396,6.5989,6.7969,6.7347,6.5715,6.5715,6.5715,6.5715,6.5715,6.7083,6.8226,6.6235,6.5715,6.5715,6.5715,6.7166,6.8641,6.8641,6.8853,6.9006,6.9006,6.9006,6.9006,6.9006,6.9006,6.9006,6.9006,6.9006,6.9006,6.9006,6.9006,6.9006,6.9006,6.9006,6.9006,6.9006,6.4296,4.4559,0.3476,0.0,0.0,0.0,0.0,0.0,0.0,0.0,0.0,0.0,0.0,0.0,0.0,0.0,0.0,0.0,0.0,0.0,1.9105,2.3227,2.7961,2.9232,2.5492,2.2614,0.0,0.0,0.0,1.9903,1.9967,1.9628,1.8299,1.9135,2.1754,2.7145,2.4398,3.06,5.6416,5.6721,5.5696,5.9606,6.0062,5.9807,5.9142,5.91,5.91,5.91,5.91,5.91,5.91,5.91,5.91,5.91,5.91,5.91,5.91,5.91,5.91,5.91,5.91,5.91,5.91,5.91,6.2726,6.9006,6.9006,6.9006,6.9006,6.9006,6.9006,6.9006,6.9006,6.7934,6.6342,6.6342,6.6064,6.5757,6.6199,6.604,6.5715,6.5715,6.5715,6.5715,6.5715,6.6014,6.6235,6.5835,6.5715,6.5715,6.5715,6.6026,6.6342,6.6342,6.7717,6.9006,6.9006,6.9006,6.9006,6.9006,6.9006,6.9006,6.9006,6.9006,6.9006,6.9006,6.9006,6.9006,6.9006,6.9006,6.9006,6.9006,3.5587,0.9682,0.0748,0.0,0.0,0.0,0.0,0.0,0.0,0.0,0.0,0.0,0.0,0.0,0.0,0.0,0.0,0.0,0.0,0.0,1.9332,2.1847,2.4557,2.4557,2.2192,0.0,0.0,2.9778,3.5531,3.9323,3.9841,3.9721,4.0048,3.9836,4.0701,4.3993,4.1938,4.4627,5.8163,6.0062,6.0062,6.0062,6.0062,5.9807,5.9142,5.91,5.91,5.91,5.91,5.91,5.91,5.91,5.91,5.91,5.91,5.91,5.91,5.91,5.91,5.91,5.91,5.91,5.9212,6.2539,6.5866,6.882,6.5493,6.4035,6.4035,6.4035,6.5366,6.7357,6.7357,6.6673,6.5715,6.5715,6.5715,6.5715,6.5715,6.5715,6.5715,6.5715,6.5715,6.5715,6.5715,6.5715,6.5715,6.5715,6.5715,6.5715,6.5715,6.5715,6.5989,6.7104,6.8209,6.9006,6.9006,6.9006,6.9006,6.9006,6.9006,6.9006,6.9006,6.9006,6.9006,6.9006,6.9006,6.9006,6.9006,6.9006,6.9006,6.9006,2.7588,0.0,0.0,0.0,0.0,0.0,0.0,0.0,0.0,0.0,0.0,0.0,0.0,0.0,0.0,0.0,0.0,0.0,0.0,0.0,1.9276,1.9623,1.9642,1.9677,1.888,0.0,1.9704,3.4202,4.8312,5.1518,5.5981,5.9457,5.9977,5.9555,5.9136,5.928,5.972,6.0062,6.0062,6.0062,6.0062,6.0062,5.9936,5.9681,5.9158,5.91,5.91,5.91,5.91,5.91,5.91,5.91,5.91,5.91,5.91,5.91,5.91,5.91,5.91,5.91,5.91,5.91,5.9287,6.4633,6.7063,6.6764,6.1418,5.8883,5.8557,5.8557,6.0685,6.4003,6.5216,6.5715,6.5715,6.5715,6.5715,6.5715,6.5715,6.5715,6.5715,6.5715,6.5715,6.5715,6.5715,6.5715,6.5715,6.5715,6.5715,6.5715,6.5715,6.6038,6.6806,6.8567,6.9006,6.9006,6.9006,6.9006,6.9006,6.9006,6.9006,6.9006,6.9006,6.9006,6.9006,6.9006,6.9006,6.9991,7.2771,6.2826,5.5549,5.5549,2.2205,0.0,0.0,0.0,0.0,0.0,0.0,0.0,0.0,0.0,0.0,0.0,0.0,0.0,0.0,0.0,0.0,0.0,0.0,0.0,1.7961,1.9623,1.9705,1.9911,1.5459,0.0,1.864,3.0938,3.7813,2.6454,4.3231,5.9979,6.0061,5.9555,5.9271,5.987,6.0021,6.0062,6.0062,6.0062,6.0062,6.0062,5.9539,5.9168,5.9074,5.91,5.91,5.91,5.91,5.91,5.91,5.91,5.91,5.91,5.91,5.91,5.91,5.91,5.91,5.91,5.91,5.91,5.91,5.9848,6.0184,6.0147,5.9399,5.8196,5.6692,5.6692,5.6972,5.795,6.3539,6.5715,6.5715,6.5715,6.5715,6.5715,6.5715,6.5715,6.5715,6.5715,6.5715,6.5715,6.5715,6.5715,6.5715,6.5715,6.5715,6.5715,6.5715,6.7176,6.8692,6.8929,6.9006,6.9006,6.9006,6.9006,6.9006,6.9006,6.9006,6.9006,6.9006,6.9006,6.9006,6.9006,6.9006,7.3523,8.6037,4.0828,0.7663,0.7663,0.3065,0.0,0.0,0.0,0.0,0.0,0.0,0.0,0.0,0.0,0.0,0.0,0.0,0.0,0.0,0.0,0.0,0.0,0.0,0.0,1.7767,1.6684,1.4668,1.8936,0.0,0.0,2.1096,3.6157,4.9515,4.3803,5.1643,5.9636,5.9981,5.9862,5.9736,6.0022,6.0062,6.0062,6.0062,6.0062,5.9928,5.953,5.9276,5.91,5.91,5.91,5.91,5.91,5.91,5.91,5.91,5.91,5.91,5.91,5.91,5.91,5.91,5.91,6.1044,6.482,6.0932,5.91,5.9034,5.7988,5.7506,5.7506,5.7506,5.7065,5.637,5.637,5.8521,6.2064,6.4681,6.5715,6.5715,6.5715,6.5715,6.5715,6.5715,6.5715,6.5715,6.5715,6.5715,6.5715,6.5715,6.5715,6.5715,6.5715,6.6628,6.7616,6.7616,6.8298,6.9006,6.9006,6.9006,6.9006,6.9006,6.9006,6.9006,6.9006,6.9006,6.9006,6.9006,6.9006,6.9006,6.9006,6.9006,6.1377,4.0268,1.5566,0.0,0.0,0.0,0.0,0.0,0.0,0.0,0.0,0.0,0.0,0.0,0.0,0.0,0.0,0.0,0.0,0.0,0.0,0.0,0.0,0.0,0.0,1.7767,0.0,0.0,0.0,0.0,0.0,2.8968,4.4175,5.91,5.91,5.91,5.9289,5.9933,6.0062,6.0062,6.0062,6.0062,6.0062,6.0062,6.0062,5.9815,5.9163,5.91,5.91,5.91,5.91,5.91,5.91,5.91,5.91,5.91,5.91,5.91,5.91,5.91,5.91,5.91,5.91,6.1493,6.6196,6.0894,5.8337,5.8315,5.7497,5.7123,5.7123,5.7123,5.7123,5.7123,5.7123,6.0497,6.5715,6.5715,6.5715,6.5715,6.5715,6.5715,6.5715,6.5715,6.5715,6.5715,6.5715,6.5715,6.5822,6.6436,6.6606,6.6606,6.6606,6.7772,6.9006,6.9006,6.9006,6.9006,6.9006,6.9006,6.9006,6.9006,6.9006,6.9006,6.9006,6.9006,6.9006,6.9006,6.9006,6.9006,6.9006,7.2313,5.6705,0.6447,0.0,0.0,0.0,0.0,0.0,0.0,0.0,0.0,0.0,0.0,0.0,0.0,0.0,0.0,0.0,0.0,0.0,0.0,0.0,0.0,0.0,0.0,0.0,0.0,0.0,0.0,1.997,2.0116,2.5158,4.4011,5.3894,5.91,5.91,5.91,5.9289,5.9933,6.0062,6.0062,6.0062,6.0062,6.0062,6.0062,6.0062,5.9815,5.9163,5.91,5.91,5.91,5.91,5.91,5.91,5.91,5.91,5.91,5.91,5.91,5.91,5.91,5.91,5.91,5.91,5.9175,5.9382,5.7396,5.6446,5.6512,5.8241,5.9005,5.9005,5.9005,5.9005,5.9005,5.9005,6.1668,6.5715,6.5715,6.5715,6.5715,6.5715,6.5715,6.5715,6.5715,6.5715,6.5715,6.5715,6.5715,6.6101,6.825,6.8908,6.8908,6.8908,6.8935,6.9006,6.9006,6.9006,6.9006,6.9006,6.9006,6.9006,6.9006,6.9006,6.9006,6.9006,6.9006,6.9006,6.9006,6.9006,6.9006,6.9006,8.0644,6.773,0.7707,0.0,0.0,0.0,0.0,0.0,0.0,0.0,0.0,0.0,0.0,0.0,0.0,0.0,0.0,0.0,0.0,0.0,0.0,0.0,0.0,0.0,0.0,0.0,1.8926,1.9813,2.1109,2.5513,3.9936,5.3569,5.5373,5.7814,5.973,5.973,5.9396,5.9289,5.9933,6.0062,6.0062,6.0062,6.0062,6.0062,6.0062,6.0062,5.9815,5.9163,5.91,5.91,5.91,5.91,5.91,5.91,5.91,5.91,5.91,5.91,5.91,5.91,5.91,5.91,5.91,5.91,5.91,5.9083,5.7257,5.637,5.6424,5.8271,5.91,5.91,5.91,5.91,5.91,5.91,6.1712,6.5715,6.5715,6.5715,6.5863,6.7357,6.7888,6.7888,6.7888,6.7888,6.7888,6.7888,6.7888,6.8038,6.878,6.9006,6.9006,6.9006,6.9006,6.9006,6.9006,6.9006,6.9006,6.9006,6.9006,6.9006,6.9006,6.9006,6.9006,6.9006,6.9006,6.9006,6.9006,6.9006,6.9006,6.9006,7.3024,5.7646,0.6569,0.0,0.0,0.0,0.0,0.0,0.0,0.0,0.0,0.0,0.0,0.0,0.0,0.0,0.0,0.0,0.0,0.0,0.0,0.0,0.0,0.0,0.0,0.0,2.2386,2.8662,3.5384,3.9636,5.3683,6.5214,6.0516,5.9785,6.0062,6.0062,5.9726,5.9557,5.998,6.0062,6.0062,6.0062,6.0062,6.0062,6.0062,6.0062,5.9815,5.9163,5.91,5.91,5.91,5.91,5.91,5.91,5.91,5.91,5.91,5.91,5.91,5.91,5.91,5.91,5.91,5.91,5.91,5.9089,5.7908,5.7333,5.738,5.8557,5.91,5.91,5.91,5.91,5.9287,6.1642,6.4328,6.6892,6.6892,6.6892,6.7072,6.8498,6.9006,6.9006,6.9006,6.9006,6.9006,6.9006,6.9006,6.9006,6.9006,6.9006,6.9006,6.9006,6.9006,6.9006,6.9006,6.9006,6.9006,6.9006,6.9006,6.9006,6.9006,6.9006,6.9006,6.9006,6.9006,6.9006,6.9006,6.9006,6.9006,6.9006,5.4876,3.3569,0.3813,0.0,0.0,0.0,0.0,0.0,0.0,0.0,0.0,0.0,0.0,0.0,0.0,0.0,0.0,0.0,0.0,0.0,0.0,0.0,0.0,0.0,0.0,0.0,2.7121,4.4228,6.0062,6.0062,6.0062,6.0062,6.0062,6.0062,6.0062,6.0062,6.0062,6.0062,6.0062,6.0062,6.0062,6.0062,6.0062,6.0062,6.0062,6.0062,5.9815,5.9163,5.91,5.91,5.91,5.91,5.91,5.91,5.91,5.91,5.91,5.91,5.91,5.91,5.91,5.91,5.91,5.91,5.91,5.91,5.91,5.91,5.91,5.91,5.91,5.91,5.9474,5.9624,6.011,6.639,6.9006,6.9006,6.9006,6.9006,6.9006,6.9006,6.9006,6.9006,6.9006,6.9006,6.9006,6.9006,6.9006,6.9006,6.9006,6.9006,6.9006,6.9006,6.9006,6.9006,6.9006,6.9006,6.9006,6.9006,6.9006,6.9006,6.9006,6.9006,6.9006,6.9006,6.9006,6.9006,6.9006,6.9006,6.9006,6.9006,2.9606,0.0,0.0,0.0,0.0,0.0,0.0,0.0,0.0,0.0,0.0,0.0,0.0,0.0,0.0,0.0,0.0,0.0,0.0,0.0,0.0,0.0,0.0,0.0,0.0,0.0,2.1066,4.0687,6.0062,6.0062,6.0062,6.0062,6.0062,6.0062,6.0062,6.0062,6.0062,6.0062,6.0062,6.0062,6.0062,6.0062,6.0062,6.0062,6.0062,6.0062,5.9815,5.9163,5.91,5.91,5.91,5.91,5.91,5.91,5.91,5.91,5.91,5.91,5.91,5.91,5.91,5.91,5.91,5.91,5.91,5.91,5.91,5.91,5.91,5.91,5.91,5.9362,6.4334,6.6465,6.6614,6.8296,6.9006,6.9006,6.9006,6.9006,6.9006,6.9006,6.9006,6.9006,6.9006,6.9006,6.9006,6.9006,6.9006,6.9006,6.9006,6.9006,6.9006,6.9006,6.9006,6.9006,6.9006,6.9006,6.9006,6.9006,6.9006,6.9006,6.9006,6.9006,6.9006,6.9006,6.9006,6.9006,6.9006,6.9006,6.9006,6.9006,2.9606,0.0,0.0,0.0,0.0,0.0,0.0,0.0,0.0,0.0,0.0,0.0,0.0,0.0,0.0,0.0,0.0,0.0,0.0,0.0,0.0,0.0,0.0,0.0,0.0,0.0,2.1158,4.0657,5.9708,5.9981,6.0062,6.0062,6.0062,6.0062,6.0062,6.0062,6.0062,6.0062,6.0062,6.0062,6.0062,6.0062,6.0062,6.0062,6.0062,6.0062,5.9815,5.9163,5.91,5.91,5.91,5.91,5.91,5.91,5.91,5.91,5.91,5.91,5.91,5.91,5.91,5.91,5.91,5.91,5.91,5.91,5.91,5.91,5.91,5.91,6.067,6.3661,6.7399,6.9006,6.8782,6.5866,6.6352,6.9006,6.9006,6.9006,6.9006,6.9006,6.9006,6.9006,6.9006,6.9006,6.9006,6.9006,6.9006,6.9006,6.9006,6.9006,6.9006,6.9006,6.9006,6.9006,6.9006,6.9006,6.9006,6.9006,6.9006,6.9006,6.9006,6.9006,6.9006,6.9006,6.9006,6.9006,6.9006,6.9006,6.9006,6.9006,2.9606,0.0,0.0,0.0,0.0,0.0,0.0,0.0,0.0,0.0,0.0,0.0,0.0,0.0,0.0,0.0,0.0,0.0,0.0,0.0,0.0,0.0,0.0,0.0,0.0,0.0,2.6254,4.2541,5.7491,5.957,6.0062,6.0062,6.0062,6.0062,6.0062,6.0062,6.0062,6.0062,6.0062,6.0062,6.0062,6.0062,6.0062,6.0062,6.0062,6.0062,5.9815,5.9163,5.91,5.91,5.91,5.91,5.91,5.91,5.91,5.91,5.91,5.91,5.91,5.91,5.91,5.91,5.91,5.91,5.91,5.91,5.91,5.91,5.9138,5.9998,6.3549,6.9006,6.9006,6.9006,6.8558,6.2801,6.381,6.9006,6.9006,6.9006,6.9006,6.9006,6.9006,6.9006,6.9006,6.9006,6.9006,6.9006,6.9006,6.9006,6.9006,6.9006,6.9006,6.9006,6.9006,6.9006,6.9006,6.9006,6.9006,6.9006,6.9006,6.9006,6.9006,6.9006,6.9006,6.9006,6.9006,6.9006,6.9006,6.9006,6.6913,6.0708,2.5681,0.0,0.0,0.0,0.0,0.0,0.0,0.0,0.0,0.0,0.0,0.0,0.0,0.0,0.0,0.0,0.0,0.0,0.0,0.0,0.0,0.0,0.0,0.0,0.0,0.0,3.7493,4.421,4.8329,5.7698,6.0062,6.0062,6.0062,6.0062,6.0062,6.0062,6.0062,6.0062,6.0062,6.0062,6.0062,6.0062,6.0062,6.0062,6.0062,6.0062,5.9815,5.9163,5.91,5.91,5.91,5.91,5.91,5.91,5.91,5.91,5.91,5.91,5.91,5.91,5.91,5.91,5.91,5.91,5.91,5.91,5.91,5.91,5.9287,6.4782,6.7922,6.9006,6.9006,6.9006,6.8894,6.7773,6.796,6.9006,6.9006,6.9006,6.9006,6.9006,6.9006,6.9006,6.9006,6.9006,6.9006,6.9006,6.9006,6.9006,6.9006,6.9006,6.9006,6.9006,6.9006,6.9006,6.9006,6.9006,6.9006,6.9006,6.9006,6.9006,6.9006,6.9006,6.9006,6.9006,6.9006,6.9006,6.9006,6.9006,5.6035,1.7682,0.5121,0.0,0.0,0.0,0.0,0.0,0.0,0.0,0.0,0.0,0.0,0.0,0.0,0.0,0.0,0.0,0.0,0.0,0.0,0.0,0.0,0.0,0.0,0.0,0.0,0.0,4.2491,4.6811,4.8873,5.329,5.7246,6.0062,6.0062,6.0062,6.0062,6.0062,6.0062,6.0062,6.0062,6.0062,5.9936,5.9634,5.9862,6.0062,6.0062,6.0062,5.9815,5.9163,5.91,5.91,5.91,5.91,5.91,5.91,5.91,5.91,5.91,5.91,5.91,5.91,5.91,5.91,5.91,5.91,5.91,5.91,5.91,5.91,5.9212,6.239,6.5717,6.9006,6.9006,6.9006,6.9006,6.9006,6.9006,6.9006,6.9006,6.9006,6.9006,6.9006,6.9006,6.9006,6.9006,6.9006,6.9006,6.9006,6.9006,6.9006,6.9006,6.9006,6.9006,6.9006,6.9006,6.9006,6.9006,6.9006,6.9006,6.9006,6.9006,6.9006,6.9006,6.9006,6.9006,6.9006,6.9006,6.9006,6.9006,6.9006,5.3306,0.6953,0.0,0.0,0.0,0.0,0.0,0.0,0.0,0.0,0.0,0.0,0.0,0.0,0.0,0.0,0.0,0.0,0.0,0.0,0.0,0.0,0.0,0.0,0.0,0.0,0.0,0.0,4.0255,4.4291,4.7785,5.0599,5.5739,6.0062,6.0062,6.1163,6.1808,6.0365,6.0062,6.0062,6.0062,6.0062,5.9865,5.9177,5.9508,5.9923,6.0061,6.0062,5.9815,5.9163,5.91,5.91,5.91,5.91,5.91,5.91,5.91,5.91,5.91,5.91,5.91,5.91,5.91,5.91,5.91,5.91,5.91,5.91,5.91,5.91,5.91,5.91,6.1941,6.695,6.8371,6.9006,6.9006,6.9006,6.9006,6.9006,6.9006,6.9006,6.9006,6.9006,6.9006,6.9006,6.9006,6.9006,6.9006,6.9006,6.9006,6.9006,6.9006,6.9006,6.9006,6.9006,6.9006,6.9006,6.9006,6.9006,6.9006,6.9006,6.9006,6.9006,6.9006,6.9006,6.9006,6.9006,6.9006,6.9006,6.9006,6.0745,4.183,0.5458,0.0,0.0,0.0,0.0,0.0,0.0,0.0,0.0,0.0,0.0,0.0,0.0,0.0,0.0,0.0,0.0,0.0,0.0,0.0,0.0,0.0,0.0,0.0,0.0,0.0,0.0,2.6607,2.9669,3.588,5.3734,5.9117,6.0062,6.0062,6.4731,6.7351,6.1314,6.0062,6.0062,6.0062,6.0062,5.9865,5.9177,5.9152,5.9388,5.9979,6.0062,5.9815,5.9163,5.91,5.91,5.91,5.91,5.91,5.91,5.91,5.91,5.91,5.91,5.91,5.91,5.91,5.91,5.91,5.91,5.91,5.91,5.91,5.91,5.91,5.91,5.9437,6.0334,6.639,6.9006,6.9006,6.9006,6.9006,6.9006,6.9006,6.9006,6.9006,6.9006,6.9006,6.9006,6.9006,6.9006,6.9006,6.9006,6.9006,6.9006,6.9006,6.9006,6.9006,6.9006,6.9006,6.9006,6.9006,6.9006,6.9006,6.9006,6.9006,6.9006,6.9006,6.9006,6.9006,6.9006,6.9006,6.9006,6.9006,3.4129,0.486,0.0635,0.0,0.0,0.0,0.0,0.0,0.0,0.0,0.0,0.0,0.0,0.0,0.0,0.0,0.0,0.0,0.0,0.0,0.0,0.0,0.0,0.0,0.0,0.0,0.0,0.0,0.0,3.0132,3.5593,3.9363,4.5682,5.3712,6.0062,6.0062,6.2112,6.3251,6.0593,6.0062,6.0062,6.0062,5.9734,5.9396,5.9141,5.91,5.9329,5.9978,6.0062,5.9977,5.971,5.9309,5.91,5.91,5.91,5.91,5.91,5.91,5.91,5.91,5.91,5.91,5.91,5.91,5.91,5.91,5.91,5.91,5.91,5.91,5.91,5.91,5.91,6.1268,6.5231,6.7848,6.9006,6.9006,6.9006,6.9006,6.9006,6.9006,6.9006,6.9006,6.9006,6.9006,6.9006,6.9006,6.9006,6.9006,6.9006,6.9006,6.9006,6.9006,6.9006,6.9006,6.9006,6.9006,6.9006,6.9006,6.9006,6.9006,6.9006,6.9006,6.9006,6.9006,6.9006,6.9006,6.9006,6.9006,6.9006,6.9006,3.0653,0.0,0.0,0.0,0.0,0.0,0.0,0.0,0.0,0.0,0.0,0.0,0.0,0.0,0.0,0.0,0.0,0.0,0.0,0.0,0.0,0.0,0.0,0.0,0.0,0.0,0.0,0.0,0.0,2.8425,3.3518,3.7194,4.3677,5.1095,5.7402,5.9567,6.0062,6.0062,6.0062,5.9925,6.0429,6.2604,6.2465,6.1381,5.9399,5.91,5.9329,5.9978,6.0062,6.0062,6.0062,5.9472,5.91,5.91,5.91,5.91,5.91,5.91,5.91,5.91,5.91,5.91,5.91,5.91,5.91,5.91,5.91,5.91,5.91,5.9285,6.0318,6.2016,6.2016,6.4558,6.9006,6.9006,6.9006,6.9006,6.9006,6.9006,6.9006,6.9006,6.9006,6.9006,6.9006,6.9006,6.9006,6.9006,6.9006,6.9006,6.9006,6.9006,6.9006,6.9006,6.9006,6.9006,6.9006,6.9006,6.9006,6.9006,6.9006,6.9006,6.9006,6.9006,6.9006,6.9006,6.9006,6.9006,6.9006,6.9006,6.467,5.0914,2.1569,0.0,0.0,0.0,0.0,0.0,0.0,0.0,0.0,0.0,0.0,0.0,0.0,0.0,0.0,0.0,0.0,0.0,0.0,0.0,0.0,0.0,0.0,0.0,0.0,0.0,0.0,0.0,0.0,1.6239,1.6551,2.4204,5.197,5.4059,5.1176,5.8414,6.0062,6.0062,6.0062,5.9577,6.129,6.8554,6.9343,6.6764,6.0147,5.91,5.9329,5.9978,6.0062,6.0062,6.0062,5.9472,5.91,5.91,5.91,5.91,5.91,5.91,5.91,5.91,5.91,5.91,5.91,5.91,5.91,5.91,5.91,5.91,5.9074,5.9736,6.3177,6.8894,6.8894,6.8932,6.9006,6.9006,6.9006,6.9006,6.9006,6.9006,6.9006,6.9006,6.9006,6.9006,6.9006,6.9006,6.9006,6.9006,6.9006,6.9006,6.9006,6.9006,6.9006,6.9006,6.9006,6.9006,6.9006,6.9006,6.9006,6.9006,6.9006,6.9006,6.9006,6.9006,6.9006,6.9006,6.9006,6.9006,6.9006,6.9006,5.4465,0.856,0.0299,0.0,0.0,0.0,0.0,0.0,0.0,0.0,0.0,0.0,0.0,0.0,0.0,0.0,0.0,0.0,0.0,0.0,0.0,0.0,0.0,0.0,0.0,0.0,0.0,0.0,0.0,0.0,0.0,2.0747,2.0826,2.3609,3.3933,3.6131,3.6357,3.8668,4.9663,5.9511,5.9978,5.9922,6.1866,6.8717,6.2304,5.666,5.8762,5.91,5.9152,5.9364,5.9795,6.0062,6.0062,5.9878,5.9741,5.9741,5.9741,5.9741,5.9741,5.9741,5.9741,5.9741,5.9313,5.91,5.91,5.91,5.9312,5.9739,5.9741,5.9741,5.9815,6.4112,6.4786,6.224,6.224,6.4708,6.9006,6.9006,6.9006,6.9006,6.9006,6.9006,6.9006,6.9006,6.9006,6.9006,6.9006,6.9006,6.9006,6.9006,6.9006,6.9006,6.9006,6.9006,6.9006,6.9006,6.9006,6.9006,6.9006,6.9006,6.9006,6.9006,6.9006,6.9006,6.9006,6.9006,6.9006,6.9006,6.9006,6.9006,6.9006,6.9006,5.4316,0.7962,0.0,0.0,0.0,0.0,0.0,0.0,0.0,0.0,0.0,0.0,0.0,0.0,0.0,0.0,0.0,0.0,0.0,0.0,0.0,0.0,0.0,0.0,0.0,0.0,0.0,0.0,0.0,0.0,0.0,2.06,2.1473,2.325,2.455,3.2339,3.9683,3.9683,4.6684,5.4372,5.8768,5.7274,5.6574,6.124,5.7325,5.4669,5.8489,5.91,5.91,5.91,5.9453,5.9798,6.0023,6.0062,6.0062,6.0062,6.0062,6.0062,6.0062,6.0062,6.0062,6.0062,5.969,5.9478,5.9478,5.9478,5.9669,6.0062,6.0062,5.9933,5.9773,6.6048,6.553,5.91,5.91,6.2726,6.9006,6.9006,6.9006,6.9006,6.9006,6.9006,6.9006,6.9006,6.9006,6.9006,6.9006,6.9006,6.9006,6.9006,6.9006,6.9006,6.9006,6.9006,6.9006,6.9006,6.9006,6.9006,6.9006,6.9006,6.9006,6.9006,6.9006,6.9006,6.9006,6.9006,6.9006,6.9006,6.9006,6.9006,6.9006,5.4876,3.3793,0.4972,0.0,0.0,0.0,0.0,0.0,0.0,0.0,0.0,0.0,0.0,0.0,0.0,0.0,0.0,0.0,0.0,0.0,0.0,0.0,0.0,0.0,0.0,0.0,0.0,0.0,0.0,0.0,0.0,0.0,1.6746,1.962,2.4034,2.4034,3.9557,5.4744,5.456,4.8245,4.5099,5.4533,5.0624,4.6143,4.8093,5.4345,5.9163,5.9074,5.91,5.91,5.91,5.91,5.9325,5.9928,5.9981,6.0021,6.0062,6.0062,6.0062,6.0062,6.0062,6.0062,6.0062,6.0062,6.0062,6.0062,6.0062,6.0062,6.0062,6.0022,5.9697,5.9175,6.5343,6.5306,5.9811,5.9811,6.3175,6.9006,6.9006,6.9006,6.9006,6.9006,6.9006,6.9006,6.9006,6.9006,6.9006,6.9006,6.9006,6.9006,6.9006,6.9006,6.9006,6.9006,6.9006,6.9006,6.9006,6.9006,6.9006,6.9006,6.9006,6.9006,6.9006,6.9006,6.9006,6.9006,6.9006,6.9006,6.9006,6.9006,6.9006,6.9006,3.1662,0.0,0.0,0.0,0.0,0.0,0.0,0.0,0.0,0.0,0.0,0.0,0.0,0.0,0.0,0.0,0.0,0.0,0.0,0.0,0.0,0.0,0.0,0.0,0.0,0.0,0.0,0.0,0.0,0.0,0.0,0.0,1.6746,2.4831,3.4699,3.4699,3.7226,3.9186,3.7187,3.5139,3.3246,3.1718,3.1166,3.3152,4.0404,5.1649,5.9683,5.9168,5.91,5.91,5.91,5.91,5.9163,5.9303,5.9329,5.9502,6.0021,6.0062,6.0062,6.0062,6.0062,6.0062,6.0062,6.0062,6.0062,6.0062,6.0062,6.0062,6.0062,5.9595,5.9252,5.91,6.067,6.3287,6.6689,6.6689,6.7511,6.9006,6.9006,6.9006,6.9006,6.9006,6.9006,6.9006,6.9006,6.9006,6.9006,6.9006,6.9006,6.9006,6.9006,6.9006,6.9006,6.9006,6.9006,6.9006,6.9006,6.9006,6.9006,6.9006,6.9006,6.9006,6.9006,6.9006,6.9006,6.9006,6.9006,6.9006,6.9006,6.9006,6.9006,6.9006,3.1662,0.0,0.0,0.0,0.0,0.0,0.0,0.0,0.0,0.0,0.0,0.0,0.0,0.0,0.0,0.0,0.0,0.0,0.0,0.0,0.0,0.0,0.0,0.0,0.0,0.0,0.0,0.0,0.0,0.0,0.0,0.0,1.9591,2.4907,3.2355,3.7115,3.7285,3.4684,2.8535,2.7143,2.6345,2.3528,2.1985,2.2639,2.7476,3.7707,4.718,5.2657,5.6907,6.0594,6.3644,6.1225,6.0222,6.3287,6.0969,5.9227,5.9571,5.988,6.0062,6.0062,6.0062,6.0062,6.0062,6.0062,6.0062,6.0062,6.0062,5.9927,5.9604,5.9252,5.91,5.9138,6.2203,6.553,6.9006,6.9006,6.9006,6.9006,6.9006,6.9006,6.9006,6.9006,6.9006,6.9006,6.9006,6.9006,6.9006,6.9006,6.9006,6.9006,6.9006,6.9006,6.9006,6.9006,6.9006,6.9006,6.9006,6.9006,6.9006,6.9006,6.9006,6.9006,6.9006,6.9006,6.9006,6.9006,6.9006,6.9006,6.9006,6.9006,6.9006,6.9006,3.1662,0.0,0.0,0.0,0.0,0.0,0.0,0.0,0.0,0.0,0.0,0.0,0.0,0.0,0.0,0.0,0.0,0.0,0.0,0.0,0.0,0.0,0.0,0.0,0.0,0.0,0.0,0.0,0.0,0.0,0.0,0.0,2.2947,2.3167,2.5412,3.3845,3.6167,3.4062,2.5015,2.2336,2.1754,2.1754,1.8339,1.5425,1.5622,2.3802,3.4224,4.5505,5.1767,5.7793,6.5404,6.2195,6.1156,6.6801,6.3437,6.0222,5.9175,5.969,6.0062,6.0062,6.0062,6.0062,6.0062,6.0062,6.0062,6.0062,6.0062,5.9738,5.9112,5.91,5.91,5.9175,6.5829,6.9006,6.9006,6.9006,6.9006,6.9006,6.9006,6.9055,6.9148,6.9061,6.9006,6.9006,6.9006,6.9006,6.9006,6.9006,6.9006,6.9006,6.9006,6.9006,6.9006,6.9006,6.9006,6.9006,6.9006,6.9006,6.9006,6.9006,6.9006,6.9006,6.9006,6.9006,6.9006,6.9006,6.9006,6.9006,6.9006,6.9006,6.9006,6.9006,3.1662,0.0,0.0,0.0,0.0,0.0,0.0,0.0,0.0,0.0,0.0,0.0,0.0,0.0,0.0,0.0,0.0,0.0,0.0,0.0,0.0,0.0,0.0,0.0,0.0,0.0,0.0,0.0,0.0,0.0,0.0,0.0,2.2947,2.423,2.5531,2.5338,2.6609,2.7047,2.3697,1.962,1.6513,1.6513,1.5909,1.571,1.6796,3.0188,4.2748,4.798,3.9974,3.7153,4.8882,5.5477,5.9474,6.0483,6.4708,6.5268,5.9624,5.969,6.0062,6.0062,6.0062,6.0062,6.0062,6.0062,6.0062,6.0062,6.0062,5.9738,5.9112,5.91,5.91,5.9175,6.5829,6.9006,6.9006,6.9006,6.9006,6.9006,6.9006,6.9326,6.9778,6.9224,6.9006,6.9006,6.9006,6.9006,6.9006,6.9006,6.9006,6.9006,6.9006,6.9006,6.9006,6.9006,6.9006,6.9006,6.9006,6.9006,6.9006,6.9006,6.9006,6.9006,6.9006,6.9006,6.9006,6.9006,6.9006,6.9006,6.9006,6.9006,6.9006,6.9006,3.1662,0.0,0.0,0.0,0.0,0.0,0.0,0.0,0.0,0.0,0.0,0.0,0.0,0.0,0.0,0.0,0.0,0.0,0.0,0.0,0.0,0.0,0.0,0.0,0.0,0.0,0.0,0.0,0.0,0.0,0.0,0.0,2.2947,2.5683,2.8337,2.7389,2.7865,2.7586,2.3793,2.1124,1.8689,1.5938,1.5925,1.6589,1.7196,2.386,3.005,3.2377,3.6567,4.0414,4.2883,5.2394,6.1717,6.887,6.645,6.2833,5.9424,5.969,6.0062,6.0062,6.0062,6.0062,6.0062,6.0062,6.0062,6.0062,6.0062,5.9928,5.9604,5.9601,6.1431,6.5008,6.809,6.9516,6.9503,6.9144,6.9198,6.9516,6.9516,6.9695,6.997,6.9662,6.9516,6.9516,6.9516,6.9321,6.9006,6.9006,6.9006,6.9006,6.9006,6.9006,6.9006,6.9006,6.9006,6.9006,6.9006,6.9006,6.9006,6.9006,6.9006,6.9006,6.9006,6.9241,6.9516,6.9516,6.9516,6.9516,6.9516,4.9569,3.1662,3.1662,1.4504,0.0,0.0,0.0,0.0,0.0,0.0,0.0,0.0,0.0,0.0,0.0,0.0,0.0,0.0,0.0,0.0,0.0,0.0,0.0,0.0,0.0,0.0,0.0,0.0,0.0,0.0,0.0,0.0,0.0,0.0,0.0,2.737,0.0,3.1616,3.1616,3.1148,2.9647,0.0,2.3801,2.1813,1.7932,1.6985,1.6836,1.6836,1.7107,1.7578,1.8347,3.7053,4.9928,4.5399,5.4384,6.5723,7.7335,6.7687,5.9872,5.936,5.9788,6.0062,6.0062,6.0062,6.0062,6.0062,6.0062,6.0062,6.0062,6.0062,6.0062,6.0062,6.1618,6.4959,6.9971,6.9971,6.9971,6.997,6.944,6.9528,6.9971,6.9971,6.9971,6.9971,6.9971,6.9971,6.9971,6.9971,6.9675,6.9224,6.9224,6.9224,6.9224,6.9224,6.9224,6.9224,6.9224,6.9113,6.9006,6.9006,6.9115,6.9224,6.9224,6.9224,6.9224,6.9224,6.9621,6.9971,6.9971,6.9971,6.9971,6.9971,3.3106,0.0,0.0,0.0,0.0,0.0,0.0,0.0,0.0,0.0,0.0,0.0,0.0,0.0,0.0,0.0,0.0,0.0,0.0,0.0,0.0,0.0,0.0,0.0,0.0,0.0,0.0,0.0,0.0,0.0,0.0,0.0,0.0,0.0,0.0,0.0,3.8204,3.4325,3.4325,3.2517,3.0622,3.0244,2.6432,0.0,2.2481,1.8715,1.5485,1.5485,1.6481,1.7321,1.7401,4.049,5.846,5.8611,6.4237,7.0882,7.7896,6.7687,6.0061,6.002,6.0061,6.0062,6.0062,6.0062,6.0062,6.0062,6.0062,6.0062,6.0062,6.0062,6.0062,6.0062,6.6174,6.9515,6.9971,6.9971,6.9971,6.9971,6.993,6.9931,6.9971,6.9971,6.9971,6.9971,6.9971,6.9971,6.9971,6.9971,6.997,6.9889,6.9889,6.9889,6.9889,6.9889,6.9889,6.9889,6.9889,6.9481,6.9006,6.9006,6.9437,6.9889,6.9889,6.9889,6.9889,6.9889,6.9931,6.9971,6.9971,6.9971,6.9971,6.9971,3.3106,0.0,0.0,0.0,0.0,0.0,0.0,0.0,0.0,0.0,0.0,0.0,0.0,0.0,0.0,0.0,0.0,0.0,0.0,0.0,0.0,0.0,0.0,0.0,0.0,0.0,0.0,0.0,0.0,0.0,0.0,0.0,0.0,0.0,0.0,4.8582,4.705,4.5812,4.7678,4.3318,3.8013,3.5925,2.8951,2.2947,2.2947,2.1415,2.0077,2.0077,2.1543,2.2748,2.2748,3.2363,4.1655,4.6877,5.9951,6.9904,7.2378,6.5205,6.0062,6.0062,6.0062,6.0062,6.0062,6.0062,6.0062,6.0062,6.0062,6.0062,6.0062,6.0062,6.2036,6.6212,6.8718,6.9971,6.9971,6.9971,6.9971,6.9971,6.9971,6.9971,6.9971,6.9971,6.9971,0.0,6.9971,6.9971,6.9971,6.9971,6.9971,6.9971,6.9971,6.9971,6.9971,6.9971,6.9971,6.9971,6.9971,6.9787,6.9626,6.9626,6.9775,6.9971,6.9971,6.9971,6.9971,6.9971,6.9971,6.9971,6.9971,6.9971,6.9971,6.9971,3.3106,0.0,0.0,0.0,0.0,0.0,0.0,0.0,0.0,0.0,0.0,0.0,0.0,0.0,0.0,0.0,0.0,0.0,0.0,0.0,0.0,0.0,0.0,0.0,0.0,0.0,0.0,0.0,0.0,0.0,0.0,0.0,0.0,0.0,0.0,5.2458,5.19,5.2395,5.4445,4.9095,4.276,4.0409,3.2375,2.4936,2.3277,2.2947,2.2947,2.2947,2.4115,2.5267,2.5942,2.8905,3.2361,3.5804,4.9882,6.0623,6.2734,6.1258,6.0062,6.0062,6.0062,6.0062,6.0062,6.0062,6.0062,6.0062,6.0062,6.0062,6.0062,6.0062,6.3251,6.9933,6.9971,6.9971,6.9971,6.9971,6.9971,6.9971,6.9971,6.9971,6.9971,6.9971,6.9971,6.9971,6.9971,6.9971,6.9971,6.9971,6.9971,6.9971,6.9971,6.9971,6.9971,6.9971,6.9971,6.9971,6.9971,6.9971,6.9971,6.9971,6.9971,6.9971,6.9971,6.9971,6.9971,6.9971,6.9971,6.9971,6.9971,6.9971,6.9971,6.9971,3.3106,0.0,0.0,0.0,0.0,0.0,0.0,0.0,0.0,0.0,0.0,0.0,0.0,0.0,0.0,0.0,0.0,0.0,0.0,0.0,0.0,0.0,0.0,0.0,0.0,0.0,0.0,0.0,0.0,0.0,0.0,0.0,0.0,0.0,0.0,5.19,5.19,5.19,5.19,4.7642,4.3439,4.3365,3.682,2.9253,2.3994,2.2947,2.2947,2.2947,2.2947,2.3615,2.5717,3.248,3.5348,2.9243,3.5226,4.2673,4.9279,5.5999,6.0062,6.0062,6.0062,6.0062,6.0062,6.0062,6.0062,6.0062,6.0062,6.0062,6.0062,6.0062,6.3251,6.9933,6.9971,6.9971,6.9971,6.9971,6.9971,6.9971,6.9971,6.9971,6.9971,6.9971,6.9971,6.9971,6.9971,6.9971,6.9971,6.9971,6.9971,6.9971,6.9971,6.9971,6.9971,6.9971,6.9971,6.9971,6.9971,6.9971,6.9971,6.9971,6.9971,6.9971,6.9971,6.9971,6.9971,6.9971,6.9971,6.9971,6.9971,6.9971,6.9971,6.9971,3.3106,0.0,0.0,0.0,0.0,0.0,0.0,0.0,0.0,0.0,0.0,0.0,0.0,0.0,0.0,0.0,0.0,0.0,0.0,0.0,0.0,0.0,0.0,0.0,0.0,0.0,0.0,0.0,0.0,0.0,0.0,0.0,0.0,0.0,0.0,5.19,5.19,5.19,5.19,5.0601,4.8637,4.5785,3.7662,2.9253,2.3994,2.2947,2.2947,2.2947,2.2947,2.3615,2.5717,3.134,3.687,4.0906,4.8789,5.486,5.6835,5.8847,6.0062,6.0062,6.0062,6.0062,6.0062,6.0062,6.0062,6.0062,6.0062,6.0062,6.0062,6.0062,6.3251,6.9933,6.9971,6.9971,6.9971,6.9971,6.9971,6.9971,6.9971,6.9971,6.9971,6.9971,6.9971,6.9971,6.9971,6.9971,6.9971,6.9971,6.9971,6.9971,6.9971,6.9971,6.9971,6.9971,6.9971,6.9971,6.9971,6.9971,6.9971,6.9971,6.9971,6.9971,6.9971,6.9971,6.9971,6.9971,6.9971,6.9971,6.9971,6.9971,6.9971,6.9971,3.3106,0.0,0.0,0.0,0.0,0.0,0.0,0.0,0.0,0.0,0.0,0.0,0.0,0.0,0.0,0.0,0.0,0.0,0.0,0.0,0.0,0.0,0.0,0.0,0.0,0.0,0.0,0.0,0.0,0.0,0.0,0.0,0.0,0.0,0.0,5.19,5.19,5.19,5.19,5.19,5.0865,4.6787,3.8,2.9253,2.3994,2.2947,2.2947,2.2947,2.2947,2.3362,2.4606,3.2274,4.191,5.2946,5.7712,6.0062,6.0062,6.0062,6.0062,6.0062,6.0062,6.0062,6.0062,6.0062,6.0062,6.0062,6.0062,6.1144,6.3529,6.3634,6.5538,6.9535,6.9573,6.9573,6.9573,6.9573,6.9709,6.9971,6.9971,6.9971,6.9971,6.9971,6.9971,6.9971,6.9971,6.9971,6.9971,6.9971,6.9971,6.9971,6.9971,6.9971,6.9971,6.9971,6.9971,6.9971,6.9971,6.9971,6.9971,6.9971,6.9971,6.9971,6.9971,6.9971,6.9971,6.9971,6.9971,6.9971,6.9971,6.9971,6.9971,6.9971,3.3106,0.0,0.0,0.0,0.0,0.0,0.0,0.0,0.0,0.0,0.0,0.0,0.0,0.0,0.0,0.0,0.0,0.0,0.0,0.0,0.0,0.0,0.0,0.0,0.0,0.0,0.0,0.0,0.0,0.0,0.0,0.0,0.0,0.0,0.0,5.1355,5.1604,5.19,5.19,5.19,5.0865,4.6787,3.8367,2.9793,2.411,2.2947,2.2947,2.2947,2.3518,2.4266,2.5032,3.6179,4.9546,6.3173,6.2177,6.0062,6.0062,6.0062,6.0062,6.0062,6.0062,6.0062,6.0062,6.0062,6.0061,5.9979,5.9978,6.2753,6.8815,6.9006,6.9006,6.9006,6.9006,6.9006,6.9006,6.9006,6.9317,6.9885,6.9885,6.9885,6.9885,6.9885,6.9885,6.9885,6.9885,6.9885,6.9885,6.9885,6.9885,6.9885,6.9885,6.9885,6.9885,6.9885,6.9885,6.9888,6.997,6.9931,6.9885,6.9885,6.9885,6.9885,6.9885,6.9885,6.9885,6.9885,6.9885,6.9885,6.9885,6.9885,6.9885,6.9885,3.3102,0.0,0.0,0.0,0.0,0.0,0.0,0.0,0.0,0.0,0.0,0.0,0.0,0.0,0.0,0.0,0.0,0.0,0.0,0.0,0.0,0.0,0.0,0.0,0.0,0.0,0.0,0.0,0.0,0.0,0.0,0.0,0.0,0.0,0.0,4.714,4.9479,5.19,5.19,5.19,5.0865,4.6787,4.1084,3.4059,2.4849,2.2947,2.2947,2.2947,2.7959,3.4244,4.0821,4.9662,5.6837,6.0069,6.0254,6.0062,6.0062,6.0062,6.0062,6.0062,6.0062,6.0062,6.0062,6.0062,5.9861,5.9342,5.9303,6.2268,6.8789,6.9006,6.9006,6.9006,6.9006,6.9006,6.9006,6.9006,6.9086,6.923,6.923,6.923,6.923,6.923,6.923,6.923,6.923,6.923,6.923,6.923,6.923,6.923,6.923,6.923,6.923,6.923,6.923,6.9294,6.9787,6.9644,6.923,6.923,6.923,6.923,6.923,6.923,6.923,6.923,6.923,6.923,6.923,6.923,6.923,6.923,3.2754,0.0,0.0,0.0,0.0,0.0,0.0,0.0,0.0,0.0,0.0,0.0,0.0,0.0,0.0,0.0,0.0,0.0,0.0,0.0,0.0,0.0,0.0,0.0,0.0,0.0,0.0,0.0,0.0,0.0,0.0,0.0,0.0,0.0,0.0,4.5864,4.7419,4.9019,4.9019,4.9019,4.8474,4.6376,4.0066,3.3142,2.7771,2.4674,2.3685,2.6199,2.8776,3.5089,4.9207,5.5756,5.91,5.91,5.938,5.9582,5.9582,5.9582,5.9718,6.0023,5.9755,5.9582,5.9582,5.9582,5.9426,5.9097,5.91,6.2128,6.8782,6.9006,6.9006,6.9006,6.9006,6.9006,6.9006,6.9006,6.9006,6.9006,6.9006,6.9006,6.9006,6.9006,6.9006,6.9006,6.9006,6.9006,6.9006,6.9006,6.9006,6.9006,6.9006,6.9006,6.9006,6.9006,6.9006,6.9048,6.9403,6.9265,6.9006,6.9006,6.9006,6.9006,6.9006,6.9006,6.9006,6.9006,6.9006,6.9006,6.9006,6.9006,6.9006,6.9006,3.2672,0.0,0.0,0.0,0.0,0.0,0.0,0.0,0.0,0.0,0.0,0.0,0.0,0.0,0.0,0.0,0.0,0.0,0.0,0.0,0.0,0.0,0.0,0.0,0.0,0.0,0.0,0.0,0.0,0.0,0.0,0.0,0.0,0.0,0.0,4.4605,4.4605,4.4759,4.5526,4.5701,4.5701,4.5701,3.9285,3.3346,3.3346,2.8528,2.5617,2.9923,2.8348,3.2991,5.3118,5.7908,5.91,5.91,5.91,5.91,5.91,5.91,5.9307,5.9862,5.9411,5.91,5.91,5.91,5.91,5.91,5.91,6.1605,6.7137,6.7287,6.7287,6.7287,6.8408,6.9006,6.9006,6.9006,6.9006,6.9006,6.9006,6.9006,6.9006,6.9006,6.9006,6.9006,6.9006,6.9006,6.9006,6.9006,6.9006,6.9006,6.9006,6.9006,6.9006,6.9006,6.9006,6.9006,6.9006,6.9006,6.9006,6.9006,6.9006,6.9006,6.9006,6.9006,6.9006,6.9006,6.9006,6.9006,6.9006,6.9006,6.6801,5.8764,2.699,0.0,0.0,0.0,0.0,0.0,0.0,0.0,0.0,0.0,0.0,0.0,0.0,0.0,0.0,0.0,0.0,0.0,0.0,0.0,0.0,0.0,0.0,0.0,0.0,0.0,0.0,0.0,0.0,0.0,0.0,0.0,0.0,0.0,0.0,3.9475,3.9475,4.0352,4.4097,4.5043,4.5043,4.5043,4.4401,4.3858,4.3858,3.6284,2.9894,3.0579,2.9172,3.4154,5.3247,5.7908,5.91,5.91,5.91,5.91,5.91,5.91,5.9125,5.9203,5.9152,5.91,5.91,5.91,5.91,5.91,5.91,5.9512,6.0371,6.0409,6.0409,6.0409,6.6128,6.9006,6.9006,6.9006,6.9006,6.9006,6.9006,6.9006,6.9006,6.9006,6.9006,6.9006,6.9006,6.9006,6.9006,6.9006,6.9006,6.9006,6.9006,6.9006,6.9006,6.9006,6.9006,6.9006,6.9006,6.9006,6.9006,6.9006,6.9006,6.9006,6.9006,6.9006,6.9006,6.9006,6.9006,6.9006,6.9006,6.9006,5.8016,1.7831,0.4336,0.0,0.0,0.0,0.0,0.0,0.0,0.0,0.0,0.0,0.0,0.0,0.0,0.0,0.0,0.0,0.0,0.0,0.0,0.0,0.0,0.0,0.0,0.0,0.0,0.0,0.0,0.0,0.0,0.0,0.0,0.0,0.0,0.0,0.0,3.8485,4.024,4.2529,4.443,4.4918,4.4918,4.4918,4.5113,4.5421,4.5795,4.2316,3.9893,4.2177,4.1999,4.7081,6.4198,6.4617,6.2808,6.2808,5.9752,5.7948,5.8975,5.91,5.91,5.91,5.91,5.91,5.91,5.91,5.91,5.91,5.8113,5.8028,5.904,5.91,5.91,5.91,6.1979,6.5306,6.9006,6.9006,6.9006,6.9006,6.9006,6.9006,6.9006,6.9006,6.9006,6.9006,6.9006,6.9006,6.9006,6.9006,6.9006,6.9006,6.9006,6.9006,6.9006,6.9006,6.9006,6.9006,6.9006,6.9006,6.9006,6.9006,6.8122,6.7166,6.7166,6.7166,6.7166,6.7166,6.7166,6.7166,6.7166,6.7166,5.4807,0.9726,0.0,0.0,0.0,0.0,0.0,0.0,0.0,0.0,0.0,0.0,0.0,0.0,0.0,0.0,0.0,0.0,0.0,0.0,0.0,0.0,0.0,0.0,0.0,0.0,0.0,0.0,0.0,0.0,0.0,0.0,0.0,0.0,0.0,0.0,0.0,3.8192,4.0825,4.326,4.326,4.2138,4.1303,4.2189,4.3695,4.4727,4.4122,4.5,4.756,5.312,5.4817,5.8462,6.7766,6.594,6.3312,6.3312,5.9306,5.687,5.8248,5.8387,5.8577,5.9066,5.91,5.889,5.8416,5.8387,5.8387,5.8387,5.7551,5.769,5.9072,5.91,5.91,5.91,5.91,6.1369,6.5794,6.7385,6.8176,6.8176,6.8176,6.8176,6.8176,6.8176,6.8176,6.8176,6.8176,6.8176,6.8176,6.8176,6.8176,6.8234,6.8794,6.9006,6.8915,6.8367,6.8176,6.8176,6.8176,6.8176,6.8176,6.8176,6.702,6.5715,6.5715,6.5715,6.5715,6.5715,6.5715,6.5715,6.5715,6.5715,5.3621,0.9525,0.0,0.0,0.0,0.0,0.0,0.0,0.0,0.0,0.0,0.0,0.0,0.0,0.0,0.0,0.0,0.0,0.0,0.0,0.0,0.0,0.0,0.0,0.0,0.0,0.0,0.0,0.0,0.0,0.0,0.0,0.0,0.0,0.0,0.0,0.0,3.7387,3.8656,3.8826,3.8826,3.4703,3.1563,3.4761,4.0354,4.376,3.9695,4.2609,4.8822,5.8441,6.2819,6.2364,5.4395,5.5197,5.6845,5.6845,5.6548,5.6426,5.6501,5.6523,5.72,5.8908,5.91,5.8366,5.665,5.6523,5.6523,5.6523,5.8059,5.8993,5.9095,5.91,5.91,5.91,5.91,5.8389,5.7093,6.3023,6.5898,6.5898,6.5898,6.5898,6.5898,6.5898,6.5898,6.5898,6.5898,6.5898,6.5898,6.5898,6.5898,6.6126,6.8234,6.9006,6.873,6.6583,6.5898,6.5898,6.5898,6.5898,6.5898,6.5898,6.5796,6.5715,6.5715,6.5715,6.5715,6.5715,6.5715,6.5715,6.5715,6.5715,5.3621,0.9525,0.0,0.0,0.0,0.0,0.0,0.0,0.0,0.0,0.0,0.0,0.0,0.0,0.0,0.0,0.0,0.0,0.0,0.0,0.0,0.0,0.0,0.0,0.0,0.0,0.0,0.0,0.0,0.0,0.0,0.0,0.0,0.0,0.0,0.0,0.0,3.3121,3.3704,3.3885,3.758,3.4157,3.0249,3.1463,3.3578,3.5887,3.8043,4.2427,4.6956,5.0488,5.4267,5.5742,5.2457,5.2797,5.4187,5.6082,5.637,5.637,5.637,5.637,5.6639,5.7295,5.7333,5.7065,5.6437,5.637,5.637,5.637,5.7002,5.7333,5.7333,5.7333,5.7333,5.7333,5.7333,5.9036,6.2385,6.4645,6.5715,6.5715,6.5715,6.5715,6.5715,6.5715,6.5715,6.5715,6.5715,6.5715,6.5715,6.5715,6.5715,6.5796,6.6608,6.6892,6.6773,6.5989,6.5715,6.5715,6.5715,6.5715,6.5715,6.5715,6.5715,6.5715,6.5715,6.5715,6.5715,6.5715,6.5715,6.5715,6.5715,4.4096,1.9158,0.3389,0.0,0.0,0.0,0.0,0.0,0.0,0.0,0.0,0.0,0.0,0.0,0.0,0.0,0.0,0.0,0.0,0.0,0.0,0.0,0.0,0.0,0.0,0.0,0.0,0.0,0.0,0.0,0.0,0.0,0.0,0.0,0.0,0.0,0.0,0.0,2.93,2.9826,3.0845,3.4657,3.2771,2.9927,2.9927,2.9927,3.104,3.4843,3.9759,4.3898,4.5562,4.9185,5.19,5.19,5.19,5.2581,5.4578,5.4875,5.5254,5.6244,5.637,5.637,5.637,5.637,5.637,5.637,5.637,5.637,5.637,5.637,5.637,5.637,5.637,5.637,5.637,5.845,6.16,6.5715,6.5715,6.5715,6.5715,6.5715,6.5715,6.5715,6.5715,6.5058,6.3999,6.3999,6.3999,6.4104,6.5236,6.5715,6.5715,6.5715,6.5002,6.3999,6.3999,6.3999,6.3999,6.3999,6.3999,6.3999,6.3999,6.3999,6.3999,6.3999,6.3999,6.3999,6.3999,6.3999,6.3999,6.3999,3.1225,0.0,0.0,0.0,0.0,0.0,0.0,0.0,0.0,0.0,0.0,0.0,0.0,0.0,0.0,0.0,0.0,0.0,0.0,0.0,0.0,0.0,0.0,0.0,0.0,0.0,0.0,0.0,0.0,0.0,0.0,0.0,0.0,0.0,0.0,0.0,0.0,0.0,2.6381,2.7297,2.968,2.987,2.9927,2.9927,2.9927,2.9927,2.9927,2.9927,3.4365,3.9766,4.4734,4.8969,5.1785,5.1883,5.19,5.19,5.19,5.19,5.2961,5.5872,5.6233,5.6233,5.6233,5.6233,5.6233,5.6233,5.6233,5.6233,5.6233,5.6399,5.6399,5.6233,5.6399,5.6506,5.6506,6.2509,6.5561,6.5561,6.5561,6.5561,6.5561,6.5561,6.5561,6.5561,6.5561,6.3679,6.0648,6.0648,6.0648,6.096,6.4273,6.5561,6.5535,6.5384,6.3249,6.0424,6.0424,6.0424,6.0424,6.0424,6.0424,6.0424,6.0424,6.0424,6.0495,6.061,6.0648,6.0648,6.0648,6.0648,6.0648,6.0648,2.9591,0.0,0.0,0.0,0.0,0.0,0.0,0.0,0.0,0.0,0.0,0.0,0.0,0.0,0.0,0.0,0.0,0.0,0.0,0.0,0.0,0.0,0.0,0.0,0.0,0.0,0.0,0.0,0.0,0.0,0.0,0.0,0.0,0.0,0.0,0.0,0.0,0.0,2.7208,2.3941,2.3922,2.8713,2.9927,2.9927,2.9927,2.9927,2.9927,2.9927,3.1188,3.398,3.9496,4.4335,4.8493,5.1454,5.19,5.19,5.19,5.19,5.2222,5.3021,5.3126,5.3126,5.3126,5.3126,5.3126,5.3126,5.3126,5.3126,5.3126,5.718,5.7501,5.3261,5.7248,5.9472,5.9472,6.1175,6.2036,6.2036,6.2036,6.2036,6.2036,6.2036,6.2036,6.2036,6.2036,6.1518,6.0648,6.0648,6.0648,6.0743,6.1664,6.2036,6.1653,5.8218,5.6382,5.5561,5.5561,5.5561,5.5561,5.5561,5.5561,5.5561,5.5561,5.5561,5.6289,5.9694,6.0648,6.0648,6.0648,6.0648,6.0648,6.0648,2.9591,0.0,0.0,0.0,0.0,0.0,0.0,0.0,0.0,0.0,0.0,0.0,0.0,0.0,0.0,0.0,0.0,0.0,0.0,0.0,0.0,0.0,0.0,0.0,0.0,0.0,0.0,0.0,0.0,0.0,0.0,0.0,0.0,0.0,0.0,0.0,0.0,0.0,2.6524,2.6378,2.7756,2.7881,2.6842,2.5798,2.5798,2.7916,2.9927,2.9927,2.9927,3.0937,3.4285,3.9225,4.4261,4.8646,4.9387,4.9979,5.1653,5.19,5.19,5.19,5.0385,4.9387,4.9387,4.9387,4.9387,4.9387,4.9387,5.1177,5.5332,5.8807,5.9103,5.5682,5.8872,6.0648,6.0648,6.0648,6.0648,6.061,5.8647,5.873,6.0648,6.0648,5.9563,5.7734,5.7734,5.7734,5.7734,5.7734,5.7734,5.7734,5.7734,5.7734,5.7381,5.467,5.365,5.365,5.365,5.365,5.365,5.365,5.365,5.365,5.365,5.365,5.4222,5.6946,5.7734,5.7734,5.7734,5.9169,6.0648,6.0648,4.269,2.0892,0.3719,0.0,0.0,0.0,0.0,0.0,0.0,0.0,0.0,0.0,0.0,0.0,0.0,0.0,0.0,0.0,0.0,0.0,0.0,0.0,0.0,0.0,0.0,0.0,0.0,0.0,0.0,0.0,0.0,0.0,0.0,0.0,0.0,0.0,0.0,0.0,2.4038,2.9509,3.3376,2.5361,2.1965,2.0388,0.0,2.5023,3.0119,2.9992,2.9927,2.9927,2.9927,3.4099,3.9179,4.4221,4.5043,4.6495,5.0628,5.1205,5.1205,5.1205,4.8053,4.5864,4.5864,4.5864,4.6097,4.6679,4.6737,5.0582,5.9383,5.9852,5.9852,5.9852,5.9852,5.9852,5.9852,5.9852,5.9852,5.9813,5.563,5.5813,5.9852,5.9852,5.7606,5.365,5.365,5.365,5.365,5.365,5.365,5.365,5.365,5.365,5.365,5.365,5.365,5.365,5.365,5.365,5.365,5.365,5.365,5.365,5.365,5.365,5.365,5.365,5.365,5.365,5.365,5.6757,5.9995,6.0585,6.0975,4.9978,0.8862,0.0,0.0,0.0,0.0,0.0,0.0,0.0,0.0,0.0,0.0,0.0,0.0,0.0,0.0,0.0,0.0,0.0,0.0,0.0,0.0,0.0,0.0,0.0,0.0,0.0,0.0,0.0,0.0,0.0,0.0,0.0,0.0,0.0,0.0,0.0,0.0,0.0,0.0,0.0,0.0,0.0,0.0,2.4115,3.1333,3.0167,2.9927,2.9927,2.9927,3.0845,3.3412,3.9007,3.9912,4.1589,4.6402,4.705,4.705,4.705,4.6376,4.5864,4.5864,4.5864,4.7631,5.1816,5.2136,5.2973,5.4911,5.5018,5.5018,5.5018,5.5018,5.5018,5.5018,5.5018,5.5018,5.4994,5.4078,5.4126,5.5018,5.5018,5.4504,5.365,5.365,5.365,5.365,5.365,5.365,5.365,5.365,5.365,5.365,5.365,5.365,5.365,5.365,5.365,5.365,5.365,5.365,5.365,5.365,5.365,5.365,5.365,5.365,5.365,5.365,5.4342,5.6047,6.0141,6.118,4.9978,0.8862,0.0,0.0,0.0,0.0,0.0,0.0,0.0,0.0,0.0,0.0,0.0,0.0,0.0,0.0,0.0,0.0,0.0,0.0,0.0,0.0,0.0,0.0,0.0,0.0,0.0,0.0,0.0,0.0,0.0,0.0,0.0,0.0,0.0,0.0,0.0,0.0,0.0,0.0,0.0,0.0,0.0,0.0,0.0,0.0,0.0,0.0,2.1133,2.4379,0.0,3.1833,3.7555,3.8485,3.9377,4.1828,4.4315,4.4978,4.2473,4.2175,4.2175,4.2175,4.2175,4.3262,4.5879,4.8077,4.9289,4.9289,5.2035,5.365,5.365,5.365,5.365,5.365,5.365,5.365,5.365,5.365,5.365,5.365,5.365,5.365,5.365,5.365,5.365,5.365,5.365,5.365,5.365,5.365,5.365,5.365,5.365,5.1806,4.9289,4.9289,4.9289,4.9289,4.9289,4.9289,4.9289,4.9289,4.9289,4.9289,4.9289,4.9289,4.9956,5.2871,5.5516,5.2932,3.4897,3.0655,2.5006,0.4446,0.0,0.0,0.0,0.0,0.0,0.0,0.0,0.0,0.0,0.0,0.0,0.0,0.0,0.0,0.0,0.0,0.0,0.0,0.0,0.0,0.0,0.0,0.0,0.0,0.0,0.0,0.0,0.0,0.0,0.0,0.0,0.0,0.0,0.0,0.0,0.0,0.0,0.0,0.0,0.0,0.0,0.0,0.0,0.0,0.0,0.0,0.0,0.0,0.0,0.0,3.5744,3.7757,3.8485,3.8485,4.1921,4.2977,3.8958,3.8485,3.8485,3.8485,3.8485,3.8485,3.8485,4.2484,4.4918,4.4918,4.9396,5.1959,5.1959,5.1959,5.2493,5.365,5.365,5.365,5.365,5.365,0.0,5.365,5.365,5.365,5.365,5.365,5.365,5.365,5.365,5.365,5.3522,5.2392,5.1959,5.1959,5.1959,4.8965,4.4918,4.4918,4.4918,4.4918,4.4918,4.4918,4.4918,4.4918,4.4918,0.0,4.4918,4.4918,4.6202,5.18,5.6259,4.9314,0.9456,0.0,0.0,0.0,0.0,0.0,0.0,0.0,0.0,0.0,0.0,0.0,0.0,0.0,0.0,0.0,0.0,0.0,0.0,0.0,0.0,0.0,0.0,0.0,0.0,0.0,0.0,0.0,0.0,0.0,0.0,0.0,0.0,0.0,0.0,0.0,0.0,0.0,0.0,0.0,0.0,0.0,0.0,0.0,0.0,0.0,0.0,0.0,0.0,0.0,0.0,0.0,0.0,0.0,0.0,3.5159,3.8485,3.8485,3.8983,3.9106,3.8535,3.8485,3.8485,3.8485,3.8485,3.8485,3.8485,4.2484,4.4918,4.4918,4.5538,0.0,0.0,0.0,4.8394,5.3601,5.365,5.365,5.365,5.365,5.365,5.365,5.365,5.365,5.365,5.365,5.365,5.365,5.365,5.365,5.3124,4.7899,4.5888,4.5888,4.5888,4.548,4.4918,4.4918,0.0,0.0,4.4918,4.4918,4.4918,4.4918,4.4918,4.4918,4.4918,4.4918,4.5974,5.0535,5.2163,4.3727,0.84,0.0,0.0,0.0,0.0,0.0,0.0,0.0,0.0,0.0,0.0,0.0,0.0,0.0,0.0,0.0,0.0,0.0,0.0,0.0,0.0,0.0,0.0,0.0,0.0,0.0,0.0,0.0,0.0,0.0,0.0,0.0,0.0,0.0,0.0,0.0,0.0,0.0,0.0,0.0,0.0,0.0,0.0,0.0,0.0,0.0,0.0,0.0,0.0,0.0,0.0,0.0,0.0,0.0,0.0,3.197,3.4684,3.8009,3.8485,3.8485,3.8485,3.8485,3.8485,3.8485,3.8485,3.8485,3.8485,4.0143,4.2261,4.4772,4.4918,4.4918,4.4918,4.4918,4.6092,4.8558,5.1934,5.365,5.365,5.365,5.365,5.365,5.365,5.365,5.365,5.365,5.365,5.365,5.365,5.365,5.3074,0.0,0.0,0.0,0.0,4.4918,4.4918,4.4918,4.4918,4.4918,4.4918,4.4918,4.4918,4.4918,4.4918,4.4918,4.4918,4.4918,4.5332,4.7221,4.7661,3.9607,0.759,0.0,0.0,0.0,0.0,0.0,0.0,0.0,0.0,0.0,0.0,0.0,0.0,0.0,0.0,0.0,0.0,0.0,0.0,0.0,0.0,0.0,0.0,0.0,0.0,0.0,0.0,0.0,0.0,0.0,0.0,0.0,0.0,0.0,0.0,0.0,0.0,0.0,0.0,0.0,0.0,0.0,0.0,0.0,0.0,0.0,0.0,0.0,0.0,0.0,0.0,0.0,0.0,0.0,0.0,2.7573,3.1071,3.433,3.7943,3.9801,3.8631,3.8485,3.8485,3.8485,3.8485,3.8485,3.8485,3.8485,3.985,4.2968,4.426,4.4918,4.4918,4.4918,4.4918,4.4918,4.9127,5.124,5.124,5.124,5.124,5.124,5.124,5.124,5.124,5.124,5.124,5.124,5.124,5.124,5.0823,4.6551,4.4918,4.4918,4.4918,4.4918,4.4918,4.4918,4.4918,4.4918,4.4918,4.4918,4.4571,4.2721,4.3457,4.4918,4.4918,4.4918,4.4918,4.4918,4.4918,3.7314,0.7165,0.0,0.0,0.0,0.0,0.0,0.0,0.0,0.0,0.0,0.0,0.0,0.0,0.0,0.0,0.0,0.0,0.0,0.0,0.0,0.0,0.0,0.0,0.0,0.0,0.0,0.0,0.0,0.0,0.0,0.0,0.0,0.0,0.0,0.0,0.0,0.0,0.0,0.0,0.0,0.0,0.0,0.0,0.0,0.0,0.0,0.0,0.0,0.0,0.0,0.0,0.0,0.0,0.0,0.0,0.0,0.0,2.5917,3.6583,4.3139,3.8972,3.8485,3.8485,3.8485,3.8485,3.8485,3.8485,3.8485,3.8558,3.868,4.2655,4.4918,4.4918,4.4918,4.4918,4.4918,4.5069,4.5185,4.5185,4.5185,4.5185,4.5185,4.5185,4.5185,4.5185,4.5185,4.5185,4.5185,4.5185,4.5185,4.5156,4.4981,4.4918,4.4918,4.4918,4.4918,4.4918,4.4918,4.4918,4.4918,4.4918,4.4918,4.3695,3.7256,3.9794,4.4918,4.4918,4.4918,4.4918,4.4918,4.4918,3.7314,0.7165,0.0,0.0,0.0,0.0,0.0,0.0,0.0,0.0,0.0,0.0,0.0,0.0,0.0,0.0,0.0,0.0,0.0,0.0,0.0,0.0,0.0,0.0,0.0,0.0,0.0,0.0,0.0,0.0,0.0,0.0,0.0,0.0,0.0,0.0,0.0,0.0,0.0,0.0,0.0,0.0,0.0,0.0,0.0,0.0,0.0,0.0,0.0,0.0,0.0,0.0,0.0,0.0,0.0,0.0,0.0,0.0,0.0,2.4803,3.344,3.7964,3.0944,2.9089,3.7655,3.8485,3.6919,3.3103,3.6355,3.8485,3.8485,3.985,4.1972,4.482,4.4918,4.4918,4.4918,4.4918,4.4918,4.4918,4.4918,4.4918,4.4918,4.4918,4.4918,4.4918,4.4918,4.4918,4.4918,4.4918,4.4918,4.4918,4.4918,4.4918,4.4918,4.4918,4.4918,4.4918,4.4918,4.2026,3.9063,4.3463,4.1912,3.7487,3.3008,3.3214,3.5446,3.7709,3.8324,3.9346,4.3755,4.4918,3.7314,0.7165,0.0,0.0,0.0,0.0,0.0,0.0,0.0,0.0,0.0,0.0,0.0,0.0,0.0,0.0,0.0,0.0,0.0,0.0,0.0,0.0,0.0,0.0,0.0,0.0,0.0,0.0,0.0,0.0,0.0,0.0,0.0,0.0,0.0,0.0,0.0,0.0,0.0,0.0,0.0,0.0,0.0,0.0,0.0,0.0,0.0,0.0,0.0,0.0,0.0,0.0,0.0,0.0,0.0,0.0,0.0,0.0,0.0,0.0,0.0,3.7403,2.8461,0.0,2.9553,2.9086,2.8864,2.9866,3.3347,3.5422,3.5422,3.7402,3.9752,4.2529,4.2602,4.3334,4.4893,4.4918,4.4918,4.4918,4.4918,4.4918,4.4918,4.4918,4.4918,4.4918,4.4918,4.4918,4.4918,4.4918,4.4016,4.2602,4.2602,4.2602,4.2602,4.2602,4.1326,3.9594,3.9594,3.7537,3.5497,3.8549,3.6674,3.2771,3.059,3.3525,3.8706,4.3965,3.9553,3.416,3.8464,3.4243,2.3991,0.4606,0.0,0.0,0.0,0.0,0.0,0.0,0.0,0.0,0.0,0.0,0.0,0.0,0.0,0.0,0.0,0.0,0.0,0.0,0.0,0.0,0.0,0.0,0.0,0.0,0.0,0.0,0.0,0.0,0.0,0.0,0.0,0.0,0.0,0.0,0.0,0.0,0.0,0.0,0.0,0.0,0.0,0.0,0.0,0.0,0.0,0.0,0.0,0.0,0.0,0.0,0.0,0.0,0.0,0.0,0.0,0.0,0.0,0.0,0.0,3.7476,3.1269,0.0,0.0,0.0,0.0,2.7853,2.8757,2.8963,2.9415,3.4909,3.8059,3.8059,3.8059,4.0172,4.4528,4.4577,4.4577,4.4601,4.482,4.4918,4.4918,4.4918,4.4918,4.4918,4.4918,4.4918,4.4893,4.4674,4.2191,3.8485,3.8265,3.8168,3.8143,3.7895,3.4798,3.0714,3.0945,3.2663,3.4226,3.097,3.0125,3.0303,3.0011,3.9178,0.0,0.0,4.6727,2.9927,2.9927,1.5039,0.0,0.0,0.0,0.0,0.0,0.0,0.0,0.0,0.0,0.0,0.0,0.0,0.0,0.0,0.0,0.0,0.0,0.0,0.0,0.0,0.0,0.0,0.0,0.0,0.0,0.0,0.0,0.0,0.0,0.0,0.0,0.0,0.0,0.0,0.0,0.0,0.0,0.0,0.0,0.0,0.0,0.0,0.0,0.0,0.0,0.0,0.0,0.0,0.0,0.0,0.0,0.0,0.0,0.0,0.0,0.0,0.0,0.0,0.0,2.9236,3.5895,3.8214,3.6533,3.071,0.0,0.0,0.0,0.0,0.0,0.0,2.2204,2.8634,3.2135,3.2135,3.2135,3.4689,4.0092,4.0118,4.0118,4.0167,4.3358,4.4918,4.4918,4.4918,4.4918,4.4918,4.4918,4.4918,4.4674,4.146,3.946,3.8192,3.4972,3.3707,3.3308,2.9795,3.3854,4.1523,4.4839,3.9522,3.1064,3.0211,3.2832,3.55,3.1243,0.0,0.0,0.0,0.0,2.9927,2.9927,1.5039,0.0,0.0,0.0,0.0,0.0,0.0,0.0,0.0,0.0,0.0,0.0,0.0,0.0,0.0,0.0,0.0,0.0,0.0,0.0,0.0,0.0,0.0,0.0,0.0,0.0,0.0,0.0,0.0,0.0,0.0,0.0,0.0,0.0,0.0,0.0,0.0,0.0,0.0,0.0,0.0,0.0,0.0,0.0,0.0,0.0,0.0,0.0,0.0,0.0,0.0,0.0,0.0,0.0,0.0,0.0,0.0,0.0,0.0,0.0,2.787,3.3656,3.0735,3.1853,2.8193,0.0,0.0,0.0,0.0,0.0,0.0,0.0,0.0,0.0,2.1359,2.6931,3.1493,3.471,3.7226,3.8485,3.8509,4.0947,4.2066,4.2066,4.2066,4.0722,3.8348,3.8348,3.9771,4.2069,4.1533,3.7972,3.246,0.0,0.0,0.0,0.0,2.7254,3.6575,3.9088,3.556,2.9927,2.9927,0.0,0.0,0.0,0.0,0.0,0.0,0.0,2.3725,2.5209,1.287,0.0,0.0,0.0,0.0,0.0,0.0,0.0,0.0,0.0,0.0,0.0,0.0,0.0,0.0,0.0,0.0,0.0,0.0,0.0,0.0,0.0,0.0,0.0,0.0,0.0,0.0,0.0,0.0,0.0,0.0,0.0,0.0,0.0,0.0,0.0,0.0,0.0,0.0,0.0,0.0,0.0,0.0,0.0,0.0,0.0,0.0,0.0,0.0,0.0,0.0,0.0,0.0,0.0,0.0,0.0,0.0,0.0,0.0,0.0,0.0,2.5147,1.9381,0.0,0.0,0.0,0.0,0.0,0.0,0.0,0.0,0.0,0.0,0.0,0.0,0.0,2.72,2.6902,3.2905,3.6441,3.7377,3.7377,3.7377,3.7377,3.7377,3.4635,2.9908,2.9499,0.0,3.8679,4.1286,0.0,0.0,0.0,0.0,0.0,0.0,0.0,0.0,0.0,0.0,0.0,0.0,0.0,0.0,0.0,0.0,0.0,0.0,0.0,0.0,0.0,0.0,0.0,0.0,0.0,0.0,0.0,0.0,0.0,0.0,0.0,0.0,0.0,0.0,0.0,0.0,0.0,0.0,0.0,0.0,0.0,0.0,0.0,0.0,0.0,0.0,0.0,0.0,0.0,0.0,0.0,0.0,0.0,0.0,0.0,0.0,0.0,0.0,0.0,0.0,0.0,0.0,0.0,0.0,0.0,0.0,0.0,0.0,0.0,0.0,0.0,0.0,0.0,0.0,0.0,0.0,0.0,0.0,0.0,0.0,0.0,0.0,0.0,0.0,0.0,0.0,0.0,0.0,0.0,0.0,0.0,0.0,0.0,0.0,0.0,0.0,0.0,0.0,0.0,0.0,0.0,0.0,3.1438,3.1438,3.1438,3.1438,3.0901,2.9775,2.7095,3.072,3.7997,3.1635,0.0,0.0,0.0,0.0,0.0,0.0,0.0,0.0,0.0,0.0,0.0,0.0,0.0,0.0,0.0,0.0,0.0,0.0,0.0,0.0,0.0,0.0,0.0,0.0,0.0,0.0,0.0,0.0,0.0,0.0,0.0,0.0,0.0,0.0,0.0,0.0,0.0,0.0,0.0,0.0,0.0,0.0,0.0,0.0,0.0,0.0,0.0,0.0,0.0,0.0,0.0,0.0,0.0,0.0,0.0,0.0,0.0,0.0,0.0,0.0,0.0,0.0,0.0,0.0,0.0,0.0,0.0,0.0,0.0,0.0,0.0,0.0,0.0,0.0,0.0,0.0,0.0,0.0,0.0,0.0,0.0,0.0,0.0,0.0,0.0,0.0,0.0,0.0,0.0,0.0,0.0,0.0,0.0,0.0,0.0,0.0,0.0,0.0,0.0,0.0,0.0,0.0,0.0,0.0,0.0,0.0,0.0,0.0,2.6809,2.8637,0.0,0.0,0.0,0.0,0.0,0.0,0.0,0.0,0.0,0.0,0.0,0.0,0.0,0.0,0.0,0.0,0.0,0.0,0.0,0.0,0.0,0.0,0.0,0.0,0.0,0.0,0.0,0.0,0.0,0.0,0.0,0.0,0.0,0.0,0.0,0.0,0.0,0.0,0.0,0.0,0.0,0.0,0.0,0.0,0.0,0.0,0.0,0.0,0.0,0.0,0.0,0.0,0.0,0.0,0.0,0.0,0.0,0.0,0.0,0.0,0.0,0.0,0.0,0.0,0.0,0.0,0.0,0.0,0.0,0.0,0.0,0.0,0.0,0.0,0.0,0.0,0.0,0.0,0.0,0.0,0.0,0.0,0.0,0.0,0.0,0.0,0.0,0.0,0.0,0.0,0.0,0.0,0.0,0.0,0.0,0.0,0.0,0.0,0.0,0.0,0.0,0.0,0.0,0.0,0.0,0.0,0.0,0.0,0.0,0.0,2.3216,2.351,0.0,0.0,0.0,0.0,0.0,0.0,0.0,0.0,0.0,0.0,0.0,0.0,0.0,0.0,0.0,0.0,0.0,0.0,0.0,0.0,0.0,0.0,0.0,0.0,0.0,0.0,0.0,0.0,0.0,0.0,0.0,0.0,0.0,0.0,0.0,0.0,0.0,0.0,0.0,0.0,0.0,0.0,0.0,0.0,0.0,0.0,0.0,0.0,0.0,0.0,0.0,0.0,0.0,0.0,0.0,0.0,0.0,0.0,0.0,0.0,0.0,0.0,0.0,0.0,0.0,0.0,0.0,0.0,0.0,0.0,0.0,0.0,0.0,0.0,0.0,0.0,0.0,0.0,0.0,0.0,0.0,0.0,0.0,0.0,0.0,0.0,0.0,0.0,0.0,0.0,0.0,0.0,0.0,0.0,0.0,0.0,0.0,0.0,0.0,0.0,0.0,0.0,0.0,0.0,0.0,0.0,0.0,0.0,0.0,0.0,0.0,0.0,0.0,0.0,0.0,0.0,0.0,0.0,0.0,0.0,0.0,0.0,0.0,0.0,0.0,0.0,0.0,0.0,0.0,0.0,0.0,0.0,0.0,0.0,0.0,0.0,0.0,0.0,0.0,0.0,0.0,0.0,0.0,0.0,0.0,0.0,0.0,0.0,0.0,0.0,0.0,0.0,0.0,0.0,0.0,0.0,0.0,0.0,0.0,0.0,0.0,0.0,0.0,0.0,0.0,0.0,0.0,0.0,0.0,0.0,0.0,0.0,0.0,0.0,0.0,0.0,0.0,0.0,0.0,0.0,0.0,0.0,0.0,0.0,0.0,0.0,0.0,0.0,0.0,0.0,0.0,0.0,0.0,0.0,0.0,0.0,0.0,0.0,0.0,0.0,0.0,0.0,0.0,0.0,0.0,0.0,0.0,0.0,0.0,0.0,0.0,0.0,0.0,0.0,0.0,0.0,0.0,0.0,0.0,0.0,0.0,0.0,0.0,0.0,0.0,0.0,0.0,0.0,0.0,0.0,0.0,0.0,0.0,0.0,0.0,0.0,0.0,0.0,0.0,0.0,0.0,0.0,0.0,0.0,0.0,0.0,0.0,0.0,0.0,0.0,0.0,0.0,0.0,0.0,0.0,0.0,0.0,0.0,0.0,0.0,0.0,0.0,0.0,0.0,0.0,0.0,0.0,0.0,0.0,0.0,0.0,0.0,0.0,0.0,0.0,0.0,0.0,0.0,0.0,0.0,0.0,0.0,0.0,0.0,0.0,0.0,0.0,0.0,0.0,0.0,0.0,0.0,0.0,0.0,0.0,0.0,0.0,0.0,0.0,0.0,0.0,0.0,0.0,0.0,0.0,0.0,0.0,0.0,0.0,0.0,0.0,0.0,0.0,0.0,0.0,0.0,0.0,0.0,0.0,0.0,0.0,0.0,0.0,0.0,0.0,0.0,0.0,0.0,0.0,0.0,0.0,0.0,0.0,0.0,0.0,0.0,0.0,0.0,0.0,0.0,0.0,0.0,0.0,0.0,0.0,0.0,0.0,0.0,0.0,0.0,0.0,0.0,0.0,0.0,0.0,0.0,0.0,0.0,0.0,0.0,0.0,0.0,0.0,0.0,0.0,0.0,0.0,0.0,0.0,0.0,0.0,0.0,0.0,0.0,0.0,0.0,0.0,0.0,0.0,0.0,0.0,0.0,0.0,0.0,0.0,0.0,0.0,0.0,0.0,0.0,0.0,0.0,0.0,0.0,0.0,0.0,0.0,0.0,0.0,0.0,0.0,0.0,0.0,0.0,0.0,0.0,0.0,0.0,0.0,0.0,0.0,0.0,0.0,0.0,0.0,0.0,0.0,0.0,0.0,0.0,0.0,0.0,0.0,0.0,0.0,0.0,0.0,0.0,0.0,0.0,0.0,0.0,0.0,0.0,0.0,0.0,0.0,0.0,0.0,0.0,0.0,0.0,0.0,0.0,0.0,0.0,0.0,0.0,0.0,0.0,0.0,0.0,0.0,0.0,0.0,0.0,0.0,0.0,0.0,0.0,0.0,0.0,0.0,0.0,0.0,0.0,0.0,0.0,0.0,0.0,0.0,0.0,0.0,0.0,0.0,0.0,0.0,0.0,0.0,0.0,0.0,0.0,0.0,0.0,0.0,0.0,0.0,0.0,0.0,0.0,0.0,0.0,0.0,0.0,0.0,0.0,0.0,0.0,0.0,0.0,0.0,0.0,0.0,0.0,0.0,0.0,0.0,0.0,0.0,0.0,0.0,0.0,0.0,0.0,0.0,0.0,0.0,0.0,0.0,0.0,0.0,0.0,0.0,0.0,0.0,0.0,0.0,0.0,0.0,0.0,0.0,0.0,0.0,0.0,0.0,0.0,0.0,0.0,0.0,0.0,0.0,0.0,0.0,0.0,0.0,0.0,0.0,0.0,0.0,0.0,0.0,0.0,0.0,0.0,0.0,0.0,0.0,0.0,0.0,0.0,0.0,0.0,0.0,0.0,0.0,0.0,0.0,0.0,0.0,0.0,0.0,0.0,0.0,0.0,0.0,0.0,0.0,0.0,0.0,0.0,0.0,0.0,0.0,0.0,0.0,0.0,0.0,0.0,0.0,0.0,0.0,0.0,0.0,0.0,0.0,0.0,0.0,0.0,0.0,0.0,0.0,0.0,0.0,0.0,0.0,0.0,0.0,0.0,0.0,0.0,0.0,0.0,0.0,0.0,0.0,0.0,0.0,0.0,0.0,0.0,0.0,0.0,0.0,0.0,0.0,0.0,0.0,0.0,0.0,0.0,0.0,0.0,0.0,0.0,0.0,0.0,0.0,0.0,0.0,0.0,0.0,0.0,0.0,0.0,0.0,0.0,0.0,0.0,0.0,0.0,0.0,0.0,0.0,0.0,0.0,0.0,0.0,0.0,0.0,0.0,0.0,0.0,0.0,0.0,0.0,0.0,0.0,0.0,0.0,0.0,0.0,0.0,0.0,0.0,0.0,0.0,0.0,0.0,0.0,0.0,0.0,0.0,0.0,0.0,0.0,0.0,0.0,0.0,0.0,0.0,0.0,0.0,0.0,0.0,0.0,0.0,0.0,0.0,0.0,0.0,0.0,0.0,0.0,0.0,0.0,0.0,0.0,0.0,0.0,0.0,0.0,0.0,0.0,0.0,0.0,0.0,0.0,0.0,0.0,0.0,0.0,0.0,0.0,0.0,0.0,0.0,0.0,0.0,0.0,0.0,0.0,0.0,0.0,0.0,0.0,0.0,0.0,0.0,0.0,0.0,0.0,0.0,0.0,0.0,0.0,0.0,0.0,0.0,0.0,0.0,0.0,0.0,0.0,0.0,0.0,0.0,0.0,0.0,0.0,0.0,0.0,0.0,0.0,0.0,0.0,0.0,0.0,0.0,0.0,0.0,0.0,0.0,0.0,0.0,0.0,0.0,0.0,0.0,0.0,0.0,0.0,0.0,0.0,0.0,0.0,0.0,0.0,0.0,0.0,0.0,0.0,0.0,0.0,0.0,0.0,0.0,0.0,0.0,0.0,0.0,0.0,0.0,0.0,0.0,0.0,0.0,0.0,0.0,0.0,0.0,0.0,0.0,0.0,0.0,0.0,0.0,0.0,0.0,0.0,0.0,0.0,0.0,0.0,0.0,0.0,0.0,0.0,0.0,0.0,0.0,0.0,0.0,0.0,0.0,0.0,0.0,0.0,0.0,0.0,0.0,0.0,0.0,0.0,0.0,0.0,0.0,0.0,0.0,0.0,0.0,0.0,0.0,0.0,0.0,0.0,0.0,0.0,0.0,0.0,0.0,0.0,0.0,0.0,0.0,0.0,0.0,0.0,0.0,0.0,0.0,0.0,0.0,0.0,0.0,0.0,0.0,0.0,0.0,0.0,0.0,0.0,0.0,0.0,0.0,0.0,0.0,0.0,0.0,0.0,0.0,0.0,0.0,0.0,0.0,0.0,0.0,0.0,0.0,0.0,0.0,0.0,0.0,0.0,0.0,0.0,0.0,0.0,0.0,0.0,0.0,0.0,0.0,0.0,0.0,0.0,0.0,0.0,0.0,0.0,0.0,0.0,0.0,0.0,0.0,0.0,0.0,0.0,0.0,0.0,0.0,0.0,0.0,0.0,0.0,0.0,0.0,0.0,0.0,0.0,0.0,0.0,0.0,0.0,0.0,0.0,0.0,0.0,0.0,0.0,0.0,0.0,0.0,0.0,0.0,0.0,0.0,0.0,0.0,0.0,0.0,0.0,0.0,0.0,0.0,0.0,0.0,0.0,0.0,0.0,0.0,0.0,0.0,0.0,0.0,0.0,0.0,0.0,0.0,0.0,0.0,0.0,0.0,0.0,0.0,0.0,0.0,0.0,0.0,0.0,0.0,0.0,0.0,0.0,0.0,0.0,0.0,0.0,0.0,0.0,0.0,0.0,0.0,0.0,0.0,0.0,0.0,0.0,0.0,0.0,0.0,0.0,0.0,0.0,0.0,0.0,0.0,0.0,0.0,0.0,0.0,0.0,0.0,0.0,0.0,0.0,0.0,0.0,0.0,0.0,0.0,0.0,0.0,0.0,0.0,0.0,0.0,0.0,0.0,0.0,0.0,0.0,0.0,0.0,0.0,0.0,0.0,0.0,0.0,0.0,0.0,0.0,0.0,0.0,0.0,0.0,0.0,0.0,0.0,0.0,0.0,0.0,0.0,0.0,0.0,0.0,0.0,0.0,0.0,0.0,0.0,0.0,0.0,0.0,0.0,0.0,0.0,0.0,0.0,0.0,0.0,0.0,0.0,0.0,0.0,0.0,0.0,0.0,0.0,0.0,0.0,0.0,0.0,0.0,0.0,0.0,0.0,0.0,0.0,0.0,0.0,0.0,0.0,0.0,0.0,0.0,0.0,0.0,0.0,0.0,0.0,0.0,0.0,0.0,0.0,0.0,0.0,0.0,0.0,0.0,0.0,0.0,0.0,0.0,0.0,0.0,0.0,0.0,0.0,0.0,0.0,0.0,0.0,0.0,0.0,0.0,0.0,0.0,0.0,0.0,0.0,0.0,0.0,0.0,0.0,0.0,0.0,0.0,0.0,0.0,0.0,0.0,0.0,0.0,0.0,0.0,0.0,0.0,0.0,0.0,0.0,0.0,0.0,0.0,0.0,0.0,0.0,0.0,0.0,0.0,0.0,0.0,0.0,0.0,0.0,0.0,0.0,0.0,0.0,0.0,0.0,0.0,0.0,0.0,0.0,0.0,0.0,0.0,0.0,0.0,0.0,0.0,0.0,0.0,0.0,0.0,0.0,0.0,0.0,0.0,0.0,0.0,0.0,0.0,0.0,0.0,0.0,0.0,0.0,0.0,0.0,0.0,0.0,0.0,0.0,0.0,0.0,0.0,0.0,0.0,0.0,0.0,0.0,0.0,0.0,0.0,0.0,0.0,0.0,0.0,0.0,0.0,0.0,0.0,0.0,0.0,0.0,0.0,0.0,0.0,0.0,0.0,0.0,0.0,0.0,0.0,0.0,0.0,0.0,0.0,0.0,0.0,0.0,0.0,0.0,0.0,0.0,0.0,0.0,0.0,0.0,0.0,0.0,0.0,0.0,0.0,0.0,0.0,0.0,0.0,0.0,0.0,0.0,0.0,0.0,0.0,0.0,0.0,0.0,0.0,0.0,0.0,0.0,0.0,0.0,0.0,0.0,0.0,0.0,0.0,0.0,0.0,0.0,0.0,0.0,0.0,0.0]}]]]